[[{"header":{"parameterUnit":"m.s-1","parameterCategory":1,"la1":30.6,"la2":28.766,"lo1":-90.7593,"lo2":-88.6598,"dx":0.0162,"dy":0.0183,"nx":116,"ny":114,"refTime":"2023-02-13T06:00:00:Z","depth":0,"parameterNumber":2,"parameterNumberName":"U-component_of_WINDS"},"data":[0.0,0.0,0.0,0.0,0.0,0.0,0.0,0.0,0.0,0.0,0.0,0.0,0.0,0.0,0.0,0.0,0.0,0.0,0.0,0.0,0.0,0.0,0.0,0.0,0.0,0.0,0.0,0.0,0.0,0.0,0.0,0.0,0.0,0.0,0.0,0.0,0.0,0.0,0.0,0.0,0.0,0.0,0.0,0.0,0.0,0.0,0.0,0.0,0.0,0.0,0.0,0.0,0.0,0.0,0.0,0.0,0.0,0.0,0.0,0.0,0.0,0.0,0.0,0.0,0.0,0.0,0.0,0.0,0.0,0.0,0.0,0.0,0.0,0.0,0.0,0.0,0.0,0.0,0.0,0.0,0.0,0.0,0.0,0.0,0.0,0.0,0.0,0.0,0.0,0.0,0.0,0.0,0.0,0.0,0.0,0.0,0.0,0.0,0.0,0.0,0.0,0.0,0.0,0.0,0.0,0.0,0.0,0.0,0.0,0.0,0.0,0.0,0.0,0.0,0.0,0.0,0.0,0.0,0.0,0.0,0.0,0.0,0.0,0.0,0.0,0.0,0.0,0.0,0.0,0.0,0.0,0.0,0.0,0.0,0.0,0.0,0.0,0.0,0.0,0.0,0.0,0.0,0.0,0.0,0.0,0.0,0.0,0.0,0.0,0.0,0.0,0.0,0.0,0.0,0.0,0.0,0.0,0.0,0.0,0.0,0.0,0.0,0.0,0.0,0.0,0.0,0.0,0.0,0.0,0.0,0.0,0.0,0.0,0.0,0.0,0.0,0.0,0.0,0.0,0.0,0.0,0.0,0.0,0.0,0.0,0.0,0.0,0.0,0.0,0.0,0.0,0.0,0.0,0.0,0.0,0.0,0.0,0.0,0.0,0.0,0.0,0.0,0.0,0.0,0.0,0.0,0.0,0.0,0.0,0.0,0.0,0.0,0.0,0.0,0.0,0.0,0.0,0.0,0.0,0.0,0.0,0.0,0.0,0.0,0.0,0.0,0.0,0.0,0.0,0.0,0.0,0.0,0.0,0.0,0.0,0.0,0.0,0.0,0.0,0.0,0.0,0.0,0.0,0.0,0.0,0.0,0.0,0.0,0.0,0.0,0.0,0.0,0.0,0.0,0.0,0.0,0.0,0.0,0.0,0.0,0.0,0.0,0.0,0.0,0.0,0.0,0.0,0.0,0.0,0.0,0.0,0.0,0.0,0.0,0.0,0.0,0.0,0.0,0.0,0.0,0.0,0.0,0.0,0.0,0.0,0.0,0.0,0.0,0.0,0.0,0.0,0.0,0.0,0.0,0.0,0.0,0.0,0.0,0.0,0.0,0.0,0.0,0.0,0.0,0.0,0.0,0.0,0.0,0.0,0.0,0.0,0.0,0.0,0.0,0.0,0.0,0.0,0.0,0.0,0.0,0.0,0.0,0.0,0.0,0.0,0.0,0.0,0.0,0.0,0.0,0.0,0.0,0.0,0.0,0.0,0.0,0.0,0.0,0.0,0.0,0.0,0.0,0.0,0.0,0.0,0.0,0.0,0.0,0.0,0.0,0.0,0.0,0.0,0.0,0.0,0.0,0.0,0.0,0.0,0.0,0.0,0.0,0.0,0.0,0.0,0.0,0.0,0.0,0.0,0.0,0.0,0.0,0.0,0.0,0.0,0.0,0.0,0.0,0.0,0.0,0.0,0.0,0.0,0.0,0.0,0.0,0.0,0.0,0.0,0.0,0.0,0.0,0.0,0.0,0.0,0.0,0.0,0.0,0.0,0.0,0.0,0.0,0.0,0.0,0.0,0.0,0.0,0.0,0.0,0.0,0.0,0.0,0.0,0.0,0.0,0.0,0.0,0.0,0.0,0.0,0.0,0.0,0.0,0.0,0.0,0.0,0.0,0.0,0.0,0.0,0.0,0.0,0.0,0.0,0.0,0.0,0.0,0.0,0.0,0.0,0.0,0.0,0.0,0.0,0.0,0.0,0.0,0.0,0.0,0.0,0.0,0.0,0.0,0.0,0.0,0.0,0.0,0.0,0.0,0.0,0.0,0.0,0.0,0.0,0.0,0.0,0.0,0.0,0.0,0.0,0.0,0.0,0.0,0.0,0.0,0.0,0.0,0.0,0.0,0.0,0.0,0.0,0.0,0.0,0.0,0.0,0.0,0.0,0.0,0.0,0.0,0.0,0.0,0.0,0.0,0.0,0.0,0.0,0.0,0.0,0.0,0.0,0.0,0.0,0.0,0.0,0.0,0.0,0.0,0.0,0.0,0.0,0.0,0.0,0.0,0.0,0.0,0.0,0.0,0.0,0.0,0.0,0.0,0.0,0.0,0.0,0.0,0.0,0.0,0.0,0.0,0.0,0.0,0.0,0.0,0.0,0.0,0.0,0.0,0.0,0.0,0.0,0.0,0.0,0.0,0.0,0.0,0.0,0.0,0.0,0.0,0.0,0.0,0.0,0.0,0.0,0.0,0.0,0.0,0.0,0.0,0.0,0.0,0.0,0.0,0.0,0.0,0.0,0.0,0.0,0.0,0.0,0.0,0.0,0.0,0.0,0.0,0.0,0.0,0.0,0.0,0.0,0.0,0.0,0.0,0.0,0.0,0.0,0.0,0.0,0.0,0.0,0.0,0.0,0.0,0.0,0.0,0.0,0.0,0.0,0.0,0.0,0.0,0.0,0.0,0.0,0.0,0.0,0.0,0.0,0.0,0.0,0.0,0.0,0.0,0.0,0.0,0.0,0.0,0.0,0.0,0.0,0.0,0.0,0.0,0.0,0.0,0.0,0.0,0.0,0.0,0.0,0.0,0.0,0.0,0.0,0.0,0.0,0.0,0.0,0.0,0.0,0.0,0.0,0.0,0.0,0.0,0.0,0.0,0.0,0.0,0.0,0.0,0.0,0.0,0.0,0.0,0.0,0.0,0.0,0.0,0.0,0.0,0.0,0.0,0.0,0.0,0.0,0.0,0.0,0.0,0.0,0.0,0.0,0.0,0.0,0.0,0.0,0.0,0.0,0.0,0.0,0.0,0.0,0.0,0.0,0.0,0.0,0.0,0.0,0.0,0.0,0.0,0.0,0.0,0.0,0.0,0.0,0.0,0.0,0.0,0.0,0.0,0.0,0.0,0.0,0.0,0.0,0.0,0.0,0.0,0.0,0.0,0.0,0.0,0.0,0.0,0.0,0.0,0.0,0.0,0.0,0.0,0.0,0.0,0.0,0.0,0.0,0.0,0.0,0.0,0.0,0.0,0.0,0.0,0.0,0.0,0.0,0.0,0.0,0.0,0.0,0.0,0.0,0.0,0.0,0.0,0.0,0.0,0.0,0.0,0.0,0.0,0.0,0.0,0.0,0.0,0.0,0.0,0.0,0.0,0.0,0.0,0.0,0.0,0.0,0.0,0.0,0.0,0.0,0.0,0.0,0.0,0.0,0.0,0.0,0.0,0.0,0.0,0.0,0.0,0.0,0.0,0.0,0.0,0.0,0.0,0.0,0.0,0.0,0.0,0.0,0.0,0.0,0.0,0.0,0.0,0.0,0.0,0.0,0.0,0.0,0.0,0.0,0.0,0.0,0.0,0.0,0.0,0.0,0.0,0.0,0.0,0.0,0.0,0.0,0.0,0.0,0.0,0.0,0.0,0.0,0.0,0.0,0.0,0.0,0.0,0.0,0.0,0.0,0.0,0.0,0.0,0.0,0.0,0.0,0.0,0.0,0.0,0.0,0.0,0.0,0.0,0.0,0.0,0.0,0.0,0.0,0.0,0.0,0.0,0.0,0.0,0.0,0.0,0.0,0.0,0.0,0.0,0.0,0.0,0.0,0.0,0.0,0.0,0.0,0.0,0.0,0.0,0.0,0.0,0.0,0.0,0.0,0.0,0.0,0.0,0.0,0.0,0.0,0.0,0.0,0.0,0.0,0.0,0.0,0.0,0.0,0.0,0.0,0.0,0.0,0.0,0.0,0.0,0.0,0.0,0.0,0.0,0.0,0.0,0.0,0.0,0.0,0.0,0.0,0.0,0.0,0.0,0.0,0.0,0.0,0.0,0.0,0.0,0.0,0.0,0.0,0.0,0.0,0.0,0.0,0.0,0.0,0.0,0.0,0.0,0.0,0.0,0.0,0.0,0.0,0.0,0.0,0.0,0.0,0.0,0.0,0.0,0.0,0.0,0.0,0.0,0.0,0.0,0.0,0.0,0.0,0.0,0.0,0.0,0.0,0.0,0.0,0.0,0.0,0.0,0.0,0.0,0.0,0.0,0.0,0.0,0.0,0.0,0.0,0.0,0.0,0.0,0.0,0.0,0.0,0.0,0.0,0.0,0.0,0.0,0.0,0.0,0.0,0.0,0.0,0.0,0.0,0.0,0.0,0.0,0.0,0.0,0.0,0.0,0.0,0.0,0.0,0.0,0.0,0.0,0.0,0.0,0.0,0.0,0.0,0.0,0.0,0.0,0.0,0.0,0.0,0.0,0.0,0.0,0.0,0.0,0.0,0.0,0.0,0.0,0.0,0.0,0.0,0.0,0.0,0.0,0.0,0.0,0.0,0.0,0.0,0.0,0.0,0.0,0.0,0.0,0.0,0.0,0.0,0.0,0.0,0.0,0.0,0.0,0.0,0.0,0.0,0.0,0.0,0.0,0.0,0.0,0.0,0.0,0.0,0.0,0.0,0.0,0.0,0.0,0.0,0.0,0.0,0.0,0.0,0.0,0.0,0.0,0.0,0.0,0.0,0.0,0.0,0.0,0.0,0.0,0.0,0.0,0.0,0.0,0.0,0.0,0.0,0.0,0.0,0.0,0.0,0.0,0.0,0.0,0.0,0.0,0.0,0.0,0.0,0.0,0.0,0.0,0.0,0.0,0.0,0.0,0.0,0.0,0.0,0.0,0.0,0.0,0.0,0.0,0.0,0.0,0.0,0.0,0.0,0.0,0.0,0.0,0.0,0.0,0.0,0.0,0.0,0.0,0.0,0.0,0.0,0.0,0.0,0.0,0.0,0.0,0.0,0.0,0.0,0.0,0.0,0.0,0.0,0.0,0.0,0.0,0.0,0.0,0.0,0.0,0.0,0.0,0.0,0.0,0.0,0.0,0.0,0.0,0.0,0.0,0.0,0.0,0.0,0.0,0.0,0.0,0.0,0.0,0.0,0.0,0.0,0.0,0.0,0.0,0.0,0.0,0.0,0.0,0.0,0.0,0.0,0.0,0.0,0.0,0.0,0.0,0.0,0.0,0.0,0.0,0.0,0.0,0.0,0.0,0.0,0.0,0.0,0.0,0.0,0.0,0.0,0.0,0.0,0.0,0.0,0.0,0.0,0.0,0.0,0.0,0.0,0.0,0.0,0.0,0.0,0.0,0.0,0.0,0.0,0.0,0.0,0.0,0.0,0.0,0.0,0.0,0.0,0.0,0.0,0.0,0.0,0.0,0.0,0.0,0.0,0.0,0.0,0.0,0.0,0.0,0.0,0.0,0.0,0.0,0.0,0.0,0.0,0.0,0.0,0.0,0.0,0.0,0.0,0.0,0.0,0.0,0.0,0.0,0.0,0.0,0.0,0.0,0.0,0.0,0.0,0.0,0.0,0.0,0.0,0.0,0.0,0.0,0.0,0.0,0.0,0.0,0.0,0.0,0.0,0.0,0.0,0.0,0.0,0.0,0.0,0.0,0.0,0.0,0.0,0.0,0.0,0.0,0.0,0.0,0.0,0.0,0.0,0.0,0.0,0.0,0.0,0.0,0.0,0.0,0.0,0.0,0.0,0.0,0.0,0.0,0.0,0.0,0.0,0.0,0.0,0.0,0.0,0.0,0.0,0.0,0.0,0.0,0.0,0.0,0.0,0.0,0.0,0.0,0.0,0.0,0.0,0.0,0.0,0.0,0.0,0.0,0.0,0.0,0.0,0.0,0.0,0.0,0.0,0.0,0.0,0.0,0.0,0.0,0.0,0.0,0.0,0.0,0.0,0.0,0.0,0.0,0.0,0.0,0.0,0.0,0.0,0.0,0.0,0.0,0.0,0.0,0.0,0.0,0.0,0.0,0.0,0.0,0.0,0.0,0.0,0.0,0.0,0.0,0.0,0.0,0.0,0.0,0.0,0.0,0.0,0.0,0.0,-6.9064,0.0,0.0,0.0,0.0,0.0,0.0,0.0,0.0,0.0,0.0,0.0,0.0,0.0,0.0,0.0,0.0,0.0,0.0,0.0,0.0,0.0,0.0,0.0,0.0,0.0,0.0,0.0,0.0,0.0,0.0,0.0,0.0,0.0,0.0,0.0,0.0,0.0,0.0,0.0,0.0,0.0,0.0,0.0,0.0,0.0,0.0,0.0,0.0,0.0,0.0,0.0,0.0,0.0,0.0,0.0,0.0,0.0,0.0,0.0,0.0,0.0,0.0,0.0,0.0,0.0,0.0,0.0,0.0,0.0,0.0,0.0,0.0,0.0,0.0,0.0,0.0,0.0,0.0,0.0,0.0,0.0,0.0,0.0,0.0,0.0,0.0,0.0,0.0,0.0,0.0,0.0,0.0,0.0,0.0,0.0,0.0,0.0,0.0,0.0,0.0,0.0,0.0,0.0,0.0,0.0,0.0,0.0,0.0,0.0,0.0,0.0,0.0,0.0,0.0,0.0,0.0,-6.7561,0.0,0.0,0.0,0.0,0.0,0.0,0.0,0.0,0.0,0.0,0.0,0.0,0.0,0.0,0.0,0.0,0.0,0.0,0.0,0.0,0.0,0.0,0.0,0.0,0.0,0.0,0.0,0.0,0.0,0.0,0.0,0.0,0.0,0.0,0.0,0.0,0.0,0.0,0.0,0.0,0.0,0.0,0.0,0.0,0.0,0.0,0.0,0.0,0.0,0.0,0.0,0.0,0.0,0.0,0.0,0.0,0.0,0.0,0.0,0.0,0.0,0.0,0.0,0.0,0.0,0.0,0.0,0.0,0.0,0.0,0.0,0.0,0.0,0.0,0.0,0.0,0.0,0.0,0.0,0.0,0.0,0.0,0.0,0.0,0.0,0.0,0.0,0.0,0.0,0.0,0.0,0.0,0.0,0.0,0.0,0.0,0.0,0.0,0.0,0.0,0.0,0.0,0.0,0.0,0.0,0.0,0.0,0.0,-6.5861,-6.6004,-6.6356,-6.6356,-6.5268,-6.3435,-6.4953,-6.4908,-6.4011,-6.6789,0.0,0.0,0.0,0.0,0.0,0.0,0.0,0.0,0.0,0.0,0.0,0.0,0.0,0.0,0.0,0.0,0.0,0.0,0.0,0.0,0.0,0.0,0.0,0.0,0.0,0.0,0.0,0.0,0.0,0.0,0.0,0.0,0.0,0.0,0.0,0.0,0.0,0.0,0.0,0.0,0.0,0.0,0.0,0.0,0.0,0.0,0.0,0.0,0.0,0.0,0.0,0.0,0.0,0.0,0.0,0.0,0.0,0.0,0.0,0.0,0.0,0.0,0.0,0.0,0.0,0.0,0.0,0.0,0.0,0.0,0.0,0.0,0.0,0.0,0.0,0.0,0.0,0.0,0.0,0.0,0.0,0.0,0.0,0.0,0.0,0.0,-6.9229,-6.9229,0.0,0.0,0.0,0.0,0.0,0.0,0.0,0.0,0.0,0.0,0.0,0.0,0.0,-7.0581,-6.9435,-6.8689,-6.72,-6.5011,-6.4256,-6.3251,-6.2093,-6.2093,-6.1915,-6.1698,-6.2566,0.0,-6.2927,-6.4008,0.0,0.0,0.0,0.0,0.0,0.0,0.0,0.0,0.0,0.0,0.0,0.0,0.0,0.0,0.0,0.0,0.0,0.0,0.0,0.0,0.0,0.0,0.0,0.0,0.0,0.0,0.0,0.0,0.0,0.0,0.0,0.0,0.0,0.0,0.0,0.0,0.0,0.0,0.0,0.0,0.0,0.0,0.0,0.0,0.0,0.0,0.0,0.0,0.0,0.0,0.0,0.0,0.0,0.0,0.0,0.0,0.0,0.0,0.0,0.0,0.0,0.0,0.0,0.0,0.0,0.0,0.0,0.0,0.0,0.0,0.0,0.0,0.0,0.0,0.0,0.0,0.0,0.0,0.0,0.0,0.0,0.0,0.0,0.0,0.0,-7.0587,-7.0587,-6.9669,-7.1798,-7.2973,0.0,0.0,0.0,0.0,0.0,0.0,0.0,0.0,0.0,-7.1468,-7.1358,-7.0374,-6.8475,-6.7218,-6.5934,-6.4679,-6.3866,-6.3396,-6.3159,-6.3159,-6.3159,-6.3159,-6.3497,-6.3435,-6.3186,-6.3606,-6.3937,-6.4321,0.0,0.0,0.0,0.0,-6.4076,-6.3552,0.0,0.0,0.0,0.0,0.0,0.0,0.0,0.0,0.0,0.0,0.0,0.0,0.0,0.0,0.0,0.0,0.0,0.0,0.0,0.0,0.0,0.0,0.0,0.0,0.0,0.0,0.0,0.0,0.0,0.0,0.0,0.0,0.0,0.0,0.0,0.0,0.0,0.0,0.0,0.0,0.0,0.0,0.0,0.0,0.0,0.0,0.0,0.0,0.0,0.0,0.0,0.0,0.0,0.0,0.0,0.0,0.0,0.0,0.0,0.0,0.0,0.0,0.0,0.0,0.0,0.0,0.0,0.0,0.0,0.0,0.0,0.0,0.0,0.0,0.0,0.0,0.0,-7.0991,-7.1211,-6.9376,-7.2386,-7.3891,0.0,0.0,0.0,0.0,0.0,0.0,-7.2496,-7.3083,-7.312,-7.2532,-7.2129,-7.0859,-6.8598,-6.7188,-6.6177,-6.5493,-6.4948,-6.488,-6.5261,-6.5504,-6.5465,-6.5221,-6.5221,-6.4788,-6.4011,-6.3566,-6.308,-6.2673,-6.3135,-6.3689,-6.4041,-6.2577,-6.1807,-6.1183,0.0,0.0,0.0,0.0,0.0,0.0,0.0,0.0,0.0,0.0,0.0,0.0,0.0,0.0,0.0,0.0,0.0,0.0,0.0,0.0,0.0,0.0,0.0,0.0,0.0,0.0,0.0,0.0,0.0,0.0,0.0,0.0,0.0,0.0,0.0,0.0,0.0,0.0,0.0,0.0,0.0,0.0,0.0,0.0,0.0,0.0,0.0,0.0,0.0,0.0,0.0,0.0,0.0,0.0,0.0,0.0,0.0,0.0,0.0,0.0,0.0,0.0,0.0,0.0,0.0,0.0,0.0,0.0,0.0,0.0,0.0,0.0,0.0,0.0,0.0,0.0,0.0,0.0,0.0,-6.6953,-7.0881,0.0,0.0,0.0,0.0,-7.3634,-7.356,-7.3266,-7.2532,-7.2532,-7.2532,-7.2496,-7.3193,-7.31,-7.2073,-7.1087,-6.9732,-6.8007,-6.7973,-6.7627,-6.7007,-6.7973,-6.7901,-6.6969,-6.6969,-6.646,-6.5425,-6.334,-6.2425,-6.2363,-6.1689,-6.1452,-6.1384,-6.0532,-5.9343,-5.8022,0.0,0.0,0.0,0.0,0.0,0.0,0.0,0.0,0.0,0.0,0.0,0.0,0.0,0.0,0.0,0.0,0.0,0.0,0.0,0.0,0.0,0.0,0.0,0.0,0.0,0.0,0.0,0.0,0.0,0.0,0.0,0.0,0.0,0.0,0.0,0.0,0.0,0.0,0.0,0.0,0.0,0.0,0.0,0.0,0.0,0.0,0.0,0.0,0.0,0.0,0.0,0.0,0.0,0.0,0.0,0.0,0.0,0.0,0.0,0.0,0.0,0.0,0.0,0.0,0.0,0.0,0.0,0.0,0.0,0.0,0.0,0.0,0.0,0.0,0.0,0.0,0.0,0.0,0.0,-7.0477,-7.3707,0.0,-7.3377,-7.4258,-7.4588,-7.3744,-7.3707,-7.378,-7.4037,-7.4551,-7.5065,-7.5579,-7.5359,-7.4999,-7.456,-7.3245,-7.2192,-7.142,-7.0928,-7.0295,-6.9558,-6.9919,-6.9275,-6.7808,-6.7808,-6.729,-6.6271,-6.4546,-6.326,-6.2279,-6.1028,-6.052,-6.0486,-6.0216,-5.9776,-5.9268,0.0,0.0,0.0,0.0,0.0,0.0,0.0,0.0,0.0,0.0,0.0,0.0,0.0,0.0,0.0,0.0,0.0,0.0,0.0,0.0,0.0,0.0,0.0,0.0,0.0,0.0,0.0,0.0,0.0,0.0,0.0,0.0,0.0,0.0,0.0,0.0,0.0,0.0,0.0,0.0,0.0,0.0,-6.4154,0.0,0.0,0.0,0.0,0.0,0.0,0.0,0.0,0.0,0.0,0.0,0.0,0.0,0.0,0.0,0.0,0.0,0.0,0.0,0.0,0.0,0.0,0.0,0.0,0.0,0.0,0.0,0.0,0.0,0.0,0.0,0.0,0.0,0.0,0.0,-7.323,-7.2936,-7.5763,-7.7011,-7.5102,-7.5652,-7.5689,-7.4588,-7.4771,-7.5139,-7.5689,-7.624,-7.6754,-7.7273,-7.679,-7.6293,-7.5931,-7.4579,-7.3676,-7.3298,-7.2798,-7.2263,-7.1799,-7.1824,-7.1052,-6.9593,-6.9275,-6.8648,-6.7679,-6.648,-6.5049,-6.3435,-6.1588,-6.0723,-6.052,-6.052,-6.0317,-6.0047,0.0,0.0,0.0,0.0,0.0,0.0,0.0,0.0,0.0,0.0,0.0,0.0,0.0,0.0,0.0,0.0,0.0,0.0,0.0,0.0,0.0,0.0,0.0,0.0,0.0,0.0,0.0,0.0,0.0,0.0,0.0,0.0,0.0,0.0,0.0,0.0,0.0,0.0,0.0,0.0,0.0,0.0,-6.1596,0.0,0.0,0.0,0.0,0.0,0.0,0.0,0.0,0.0,0.0,0.0,0.0,0.0,0.0,0.0,0.0,0.0,0.0,0.0,0.0,0.0,0.0,0.0,0.0,0.0,0.0,0.0,0.0,0.0,0.0,0.0,0.0,0.0,-7.1439,-7.345,-7.4625,-7.3891,-7.6644,-7.7671,-7.5249,-7.7194,-7.7928,-7.6313,-7.69,-7.7273,-7.7273,-7.7273,-7.7273,-7.7273,-7.7273,-7.6937,-7.6166,-7.5237,-7.4407,-7.3612,-7.3612,-7.3612,-7.3573,-7.3672,-7.3216,-7.2214,-7.1452,-7.0568,-6.9637,-6.8928,-6.7587,-6.5798,-6.3431,-6.2014,-6.1332,-6.1332,-6.0825,-6.0047,0.0,0.0,0.0,0.0,0.0,0.0,0.0,0.0,0.0,0.0,0.0,0.0,0.0,0.0,0.0,0.0,0.0,0.0,0.0,0.0,0.0,0.0,0.0,0.0,0.0,0.0,0.0,0.0,0.0,0.0,0.0,0.0,0.0,0.0,0.0,0.0,0.0,0.0,0.0,0.0,0.0,0.0,-5.9085,0.0,0.0,0.0,0.0,0.0,0.0,0.0,0.0,0.0,0.0,0.0,0.0,0.0,0.0,0.0,0.0,0.0,0.0,0.0,0.0,0.0,0.0,0.0,0.0,0.0,0.0,0.0,0.0,0.0,0.0,0.0,0.0,-7.345,-7.4625,-7.4845,-7.5249,-7.6203,-7.7671,-7.8332,-7.7635,-7.8185,-7.8405,-7.7965,-7.7561,-7.7273,-7.7273,-7.7273,-7.7273,-7.7273,-7.7273,-7.7163,-7.6974,-7.6721,-7.6449,-7.6267,-7.6267,-7.5645,-7.4513,-7.4542,-7.3435,-7.1416,-7.12,-7.0568,-6.9637,-6.8928,-6.794,-6.6778,-6.4934,-6.3349,-6.211,-6.211,-6.1603,-6.0791,0.0,0.0,0.0,0.0,0.0,0.0,0.0,0.0,0.0,0.0,0.0,0.0,0.0,0.0,0.0,0.0,0.0,0.0,0.0,0.0,0.0,0.0,0.0,0.0,0.0,0.0,0.0,0.0,0.0,0.0,0.0,0.0,0.0,0.0,0.0,0.0,0.0,0.0,0.0,0.0,0.0,0.0,-5.7981,-5.774,-5.9313,-6.1677,-6.1847,-6.3743,-6.6119,-6.5475,0.0,0.0,0.0,0.0,0.0,0.0,0.0,0.0,0.0,0.0,0.0,0.0,0.0,0.0,0.0,0.0,0.0,0.0,0.0,0.0,0.0,0.0,0.0,0.0,-7.4111,-7.5395,-7.7378,-7.6644,-7.6533,-7.8148,-7.8772,-7.9103,-7.9103,-7.8809,-7.8442,-7.8075,-7.7567,-7.7273,-7.7273,-7.7273,-7.7273,-7.7273,-7.7273,-7.7273,-7.7273,-7.7273,-7.7273,-7.7273,-7.7273,-7.6796,-7.5879,-7.5579,-7.4421,-7.2647,-7.232,-7.1675,-7.0829,-7.0037,-6.9017,-6.7769,0.0,0.0,0.0,0.0,-6.2144,-6.1633,0.0,0.0,0.0,0.0,0.0,0.0,0.0,0.0,0.0,0.0,0.0,0.0,0.0,0.0,0.0,0.0,0.0,0.0,0.0,0.0,0.0,0.0,0.0,0.0,0.0,0.0,0.0,0.0,0.0,0.0,0.0,0.0,0.0,0.0,0.0,0.0,0.0,0.0,0.0,0.0,0.0,0.0,-5.7814,-5.707,-5.8593,-6.1016,-6.06,-6.204,-6.4252,-6.4983,0.0,0.0,0.0,0.0,0.0,0.0,0.0,0.0,0.0,0.0,0.0,0.0,0.0,0.0,0.0,0.0,0.0,0.0,0.0,0.0,0.0,0.0,0.0,0.0,-7.6166,-7.7084,-7.9433,-7.8589,-7.8295,-7.9764,-7.991,-7.9874,-7.98,-7.914,-7.8369,-7.7494,-7.7347,-7.7273,-7.7273,0.0,0.0,0.0,0.0,-7.7273,-7.7273,-7.7273,-7.7273,-7.7273,-7.7273,-7.7237,-7.7127,-7.6423,-7.5652,-7.4882,-7.4147,-7.3377,-7.2569,-7.1872,-7.0515,-6.877,-6.6848,-6.5161,-6.3721,-6.2871,-6.2616,-6.2508,0.0,0.0,0.0,0.0,0.0,0.0,0.0,0.0,0.0,0.0,0.0,0.0,0.0,0.0,0.0,0.0,0.0,0.0,0.0,0.0,0.0,0.0,0.0,0.0,0.0,0.0,0.0,0.0,0.0,0.0,0.0,0.0,0.0,0.0,0.0,0.0,0.0,0.0,0.0,0.0,0.0,0.0,-5.7814,-5.707,-5.7552,-5.8757,-6.0047,-6.242,-6.5019,-6.5196,-6.7963,-7.1321,-7.1138,0.0,0.0,0.0,0.0,0.0,0.0,0.0,0.0,0.0,0.0,0.0,0.0,0.0,0.0,0.0,0.0,0.0,0.0,0.0,0.0,-7.5763,-7.6644,-7.7708,-7.9543,-8.0094,-8.0424,-8.0718,-8.0755,-8.0498,-7.9837,-7.9653,-7.9213,-7.8405,-7.7708,-7.7273,-7.7273,-7.7273,-7.7273,-7.7273,-7.7273,-7.7273,-7.7273,-7.7273,-7.7273,-7.7273,-7.7273,0.0,-7.635,-7.6166,-7.5652,-7.4918,-7.4735,-7.4221,-7.345,-7.3303,-7.1896,-6.9551,-6.6467,-6.5041,-6.4662,-6.3895,-6.3645,-6.3531,0.0,0.0,0.0,0.0,0.0,0.0,0.0,0.0,0.0,0.0,0.0,0.0,0.0,0.0,0.0,0.0,0.0,0.0,0.0,0.0,0.0,0.0,0.0,0.0,0.0,0.0,0.0,0.0,0.0,0.0,0.0,0.0,0.0,0.0,0.0,0.0,0.0,0.0,0.0,0.0,0.0,0.0,-6.0808,-6.0079,-6.0287,-6.105,-6.194,-6.3754,-6.5797,-6.5833,-6.8007,-7.0624,-7.0257,-7.0632,-7.1394,0.0,0.0,0.0,0.0,0.0,0.0,0.0,0.0,0.0,0.0,0.0,0.0,0.0,0.0,-7.2753,0.0,0.0,-7.4955,-7.7011,-7.8369,-7.9433,-8.0277,-8.1085,-8.1452,-8.1048,-8.1012,-8.0828,-8.0424,-7.9653,-7.9029,-7.8626,-7.7818,-7.7273,-7.7273,-7.7273,-7.7273,-7.7273,-7.7273,-7.7273,-7.7273,-7.7273,-7.7273,-7.7273,-7.7273,-7.709,-7.6717,-7.6717,-7.6276,-7.5506,-7.5506,-7.4808,-7.3634,-7.2826,-7.1541,-6.9907,-6.7781,-6.6449,-6.5613,-6.4738,-6.476,-6.497,0.0,0.0,0.0,0.0,0.0,0.0,0.0,0.0,0.0,0.0,0.0,0.0,0.0,0.0,0.0,0.0,0.0,0.0,0.0,0.0,0.0,0.0,0.0,0.0,0.0,0.0,0.0,0.0,0.0,0.0,0.0,0.0,0.0,0.0,0.0,0.0,0.0,0.0,0.0,0.0,0.0,0.0,-6.5014,-6.4434,-6.4318,-6.4457,-6.465,-6.5551,-6.671,-6.7184,-6.8239,-6.9412,-6.9743,-7.0513,-7.1183,-7.0697,-7.1615,0.0,0.0,0.0,0.0,0.0,0.0,0.0,0.0,0.0,-7.0991,-7.2422,-7.2349,-7.2789,-7.5395,-7.5616,-7.613,-7.8442,-8.0057,-8.1048,-8.1232,-8.1929,-8.2186,-8.1562,-8.1342,-8.1158,-8.1012,-7.9837,-7.8993,-7.8846,-7.8038,-7.753,-7.753,-7.7384,-7.7273,-7.7273,-7.7273,-7.7273,-7.7273,-7.7273,-7.7273,-7.7273,-7.7273,-7.7273,-7.7273,-7.7273,-7.6974,-7.6313,-7.6166,-7.5175,-7.3597,-7.2129,-7.1064,-7.0257,-6.9449,-6.8207,-6.677,-6.5878,-6.5997,-6.6444,0.0,0.0,0.0,0.0,0.0,0.0,0.0,0.0,0.0,0.0,0.0,0.0,0.0,0.0,0.0,0.0,0.0,0.0,0.0,0.0,0.0,0.0,0.0,0.0,0.0,0.0,0.0,0.0,0.0,0.0,0.0,0.0,0.0,0.0,0.0,0.0,0.0,0.0,0.0,0.0,0.0,0.0,-6.9409,-6.9299,-6.7903,-6.6053,-6.6899,-6.7312,-6.7819,-7.0025,-7.0869,-7.1284,-7.2716,-7.2312,-7.1403,-7.2055,0.0,-6.9412,-6.9229,-6.8788,-6.8825,-7.0807,-7.0257,-7.0073,0.0,0.0,-7.2496,-7.3377,-7.4074,-7.4625,-7.4992,-7.6099,-7.7635,-7.936,-8.0424,-8.1269,-8.1966,-8.2774,-8.3251,-8.3141,-8.2517,-8.1782,-8.1085,-8.0828,-8.0424,-7.969,-7.8919,-7.8442,-7.8442,-7.7745,-7.7273,-7.7273,-7.7273,-7.7273,-7.7273,-7.7273,-7.7273,-7.7273,-7.7273,-7.7273,-7.7273,-7.7273,-7.7237,-7.7127,-7.6423,-7.5175,-7.3634,-7.2716,-7.1908,-7.1101,-7.0293,-6.9394,-6.8504,-6.7689,-6.746,-6.7542,0.0,0.0,0.0,0.0,0.0,0.0,0.0,0.0,0.0,0.0,0.0,0.0,0.0,0.0,0.0,0.0,0.0,0.0,0.0,0.0,0.0,0.0,0.0,0.0,0.0,0.0,0.0,0.0,0.0,0.0,0.0,0.0,0.0,0.0,0.0,0.0,0.0,0.0,0.0,0.0,0.0,0.0,-7.1965,-7.1495,-7.0835,-7.0059,-6.9336,-6.9034,0.0,0.0,-7.055,-7.1219,-7.0991,-7.1101,-7.1211,-7.0587,-7.0036,0.0,-6.8458,0.0,0.0,0.0,-6.9779,-7.077,-7.2422,-7.2642,-7.2863,-7.4147,-7.5432,-7.646,-7.6974,-7.8369,-7.969,0.0,-8.1562,-8.2517,-8.2847,-8.3581,-8.3765,-8.281,-8.281,-8.2774,-8.2443,-8.1562,-8.0865,-8.0534,-7.9323,-7.8589,-7.8589,-7.7781,-7.7273,-7.7273,-7.7273,-7.7273,-7.7273,-7.7273,-7.7273,-7.7273,-7.7273,-7.7273,-7.7273,-7.7273,-7.7273,-7.7237,-7.646,-7.5469,-7.4331,-7.3523,-7.2716,-7.1945,-7.1101,-7.033,-6.9486,-6.8715,-6.8091,-6.7687,0.0,0.0,0.0,0.0,0.0,0.0,0.0,0.0,0.0,0.0,0.0,0.0,0.0,0.0,0.0,0.0,0.0,0.0,0.0,0.0,0.0,0.0,0.0,0.0,0.0,0.0,0.0,0.0,0.0,0.0,0.0,0.0,0.0,0.0,0.0,0.0,0.0,0.0,0.0,0.0,0.0,0.0,-7.3862,-7.3089,-7.2883,-7.2789,-7.0968,-7.0042,0.0,0.0,-6.9853,-7.0513,-6.9816,-7.0367,-7.0999,-6.9633,-6.9009,-6.8568,-6.7614,0.0,0.0,-6.8605,-7.0312,-7.2134,-7.3019,-7.3813,-7.4783,-7.622,-7.7452,-7.8387,-7.8872,-8.0057,-8.1012,-8.1012,-8.2186,-8.3067,-8.3067,-8.3581,-8.3508,-8.2333,-8.2517,-8.2847,-8.3067,-8.2003,-8.1415,-8.1672,-8.0167,-7.925,-7.925,-7.8259,-7.7671,-7.7671,-7.742,-7.7273,-7.7273,-7.7273,-7.7273,-7.7273,-7.7273,-7.7273,-7.7273,-7.7273,-7.7163,-7.6937,-7.635,-7.5542,-7.4515,-7.3927,-7.323,-7.2459,-7.1872,-7.1138,-7.0367,-6.9779,-6.8752,-6.7724,0.0,0.0,0.0,0.0,0.0,0.0,0.0,0.0,0.0,0.0,0.0,0.0,0.0,0.0,0.0,0.0,0.0,0.0,0.0,0.0,0.0,0.0,0.0,0.0,0.0,0.0,0.0,0.0,0.0,0.0,0.0,0.0,0.0,0.0,0.0,0.0,0.0,0.0,0.0,0.0,0.0,0.0,-7.535,-7.4535,-7.3727,-7.2833,-7.1471,0.0,0.0,0.0,-6.9596,-6.9265,-7.077,-7.1256,0.0,-7.0293,-6.7871,0.0,0.0,0.0,-6.732,-7.044,-7.2267,-7.4162,-7.7367,-7.8591,-7.9386,-8.042,-8.0656,-8.0505,-7.9884,-8.0424,-8.1012,-8.1012,-8.1709,-8.2223,-8.2223,-8.226,-8.226,-8.2186,-8.1525,-8.1379,0.0,-8.2186,-8.248,-8.3287,-8.1856,-8.0938,-8.0938,-7.9433,-7.8552,-7.8552,-7.7745,-7.7273,-7.7273,-7.7273,-7.7273,-7.7273,-7.7273,-7.7273,-7.7273,-7.7273,-7.69,-7.613,-7.6093,-7.5212,-7.3707,-7.3707,-7.323,-7.2496,-7.2459,-7.1982,-7.1284,-7.1219,-6.9743,-6.7797,0.0,0.0,0.0,0.0,0.0,0.0,0.0,0.0,0.0,0.0,0.0,0.0,0.0,0.0,0.0,0.0,0.0,0.0,0.0,0.0,0.0,0.0,0.0,0.0,0.0,0.0,0.0,0.0,0.0,0.0,0.0,0.0,0.0,0.0,0.0,0.0,0.0,0.0,0.0,0.0,0.0,0.0,-7.8382,-7.6994,-7.6579,-7.6547,0.0,0.0,0.0,0.0,0.0,0.0,-6.8898,0.0,0.0,-6.732,0.0,0.0,0.0,0.0,-7.0808,-7.2971,-7.4973,-7.7057,-7.9276,-7.9934,-8.0225,-8.0671,-8.0348,-7.9753,-7.9112,-7.9213,-7.958,-8.0131,-8.1305,-8.2186,-8.2186,-8.3104,-8.2994,-8.0865,-8.1305,0.0,0.0,0.0,0.0,-8.2553,-8.1599,-8.1012,-8.1012,-7.9984,-7.914,-7.8626,-7.8332,-7.7892,-7.731,-7.7273,-7.7273,-7.7273,-7.7273,-7.7273,-7.7273,-7.7273,-7.7127,-7.69,-7.635,-7.5506,-7.4441,-7.3927,-7.323,-7.2496,-7.2496,-7.2018,-7.1329,-7.1908,-7.0917,-6.9229,0.0,0.0,0.0,0.0,0.0,0.0,0.0,0.0,0.0,0.0,0.0,0.0,0.0,0.0,0.0,0.0,0.0,0.0,0.0,0.0,0.0,0.0,0.0,0.0,0.0,0.0,0.0,0.0,0.0,0.0,0.0,0.0,0.0,0.0,0.0,0.0,0.0,0.0,0.0,0.0,0.0,0.0,-8.0654,-7.8665,-7.8163,0.0,0.0,0.0,0.0,0.0,0.0,0.0,0.0,0.0,0.0,0.0,0.0,0.0,0.0,-7.0565,-7.3442,-7.5119,-7.7358,-7.9594,-8.0959,-8.1452,-8.1659,-8.1869,-8.0969,-7.9903,-7.9076,-7.8684,-7.8565,-7.884,-7.9764,-8.0645,-8.1269,-8.1709,-8.1452,-7.9947,-8.0461,0.0,0.0,0.0,0.0,-8.2113,-8.1709,-8.1415,-8.1415,-8.0681,-7.9984,-7.947,-7.8883,-7.8332,-7.7781,-7.7457,-7.7273,-7.7273,-7.7273,-7.7273,-7.7273,-7.7273,-7.7273,-7.7237,-7.6166,-7.5542,-7.5212,-7.3854,-7.312,-7.2899,-7.2606,-7.2202,-7.1798,-7.2312,-7.1835,-7.0807,0.0,0.0,0.0,0.0,0.0,0.0,0.0,0.0,0.0,0.0,0.0,0.0,0.0,0.0,0.0,0.0,0.0,0.0,0.0,0.0,0.0,0.0,0.0,0.0,0.0,0.0,0.0,0.0,0.0,0.0,0.0,0.0,0.0,0.0,0.0,0.0,0.0,0.0,0.0,0.0,0.0,0.0,-8.1977,-7.9477,0.0,0.0,0.0,0.0,0.0,0.0,0.0,0.0,0.0,0.0,0.0,0.0,0.0,-6.8458,-7.0807,-7.3081,-7.5245,-7.6786,-7.9328,-8.1671,-8.2472,-8.3114,-8.3593,-8.3733,-8.2393,-8.0786,0.0,0.0,-7.7896,-7.7359,-7.7347,-7.8038,-7.969,-7.8589,-7.8185,0.0,0.0,0.0,0.0,0.0,0.0,-8.215,0.0,-8.215,-8.2186,-8.1489,-8.1048,-8.1012,-7.9507,-7.8699,-7.8662,-7.7818,-7.7347,-7.7273,-7.7273,-7.7273,-7.7273,-7.7273,-7.7273,-7.72,-7.5622,-7.5395,-7.5873,-7.3523,-7.2973,-7.356,-7.2789,-7.2496,-7.2496,-7.2496,-7.2496,-7.2275,0.0,0.0,0.0,0.0,0.0,0.0,0.0,0.0,0.0,0.0,0.0,0.0,0.0,0.0,0.0,0.0,0.0,0.0,0.0,0.0,0.0,0.0,0.0,0.0,0.0,0.0,0.0,0.0,0.0,0.0,0.0,0.0,0.0,0.0,0.0,0.0,0.0,0.0,0.0,0.0,0.0,0.0,-8.1246,0.0,0.0,0.0,0.0,0.0,0.0,0.0,0.0,0.0,0.0,0.0,-6.8164,0.0,0.0,-7.1541,-7.2753,-7.5522,-7.8182,-7.8572,-8.0365,-8.2122,-8.2352,-8.2512,-8.2501,-8.2034,-8.0659,-7.8929,0.0,0.0,0.0,-7.7175,-7.8369,0.0,-8.1342,-8.1746,0.0,0.0,0.0,-8.2039,-8.1636,-8.1599,0.0,0.0,-8.2003,-8.1562,-8.215,-8.2003,-8.1636,-8.1012,-8.0608,-8.0094,-7.9507,-7.8662,-7.7965,-7.7273,-7.7273,-7.7273,-7.7273,-7.7273,-7.7273,-7.7237,-7.624,-7.5579,-7.5139,-7.3891,-7.3156,-7.2789,-7.2569,-7.2496,-7.2496,-7.2496,-7.2496,-7.2349,0.0,0.0,0.0,0.0,0.0,0.0,0.0,0.0,0.0,0.0,0.0,0.0,0.0,0.0,0.0,0.0,0.0,0.0,0.0,0.0,0.0,0.0,0.0,0.0,0.0,0.0,0.0,0.0,0.0,0.0,0.0,0.0,0.0,0.0,0.0,0.0,0.0,0.0,0.0,0.0,0.0,0.0,0.0,0.0,0.0,0.0,0.0,0.0,0.0,0.0,0.0,-6.8788,-6.8238,-6.8715,-6.9669,-7.0807,0.0,-7.3266,-7.4441,-7.7255,-7.9811,-7.9787,-8.1327,-8.267,-8.1939,-8.1477,-8.0898,-7.9748,-7.8526,0.0,0.0,0.0,0.0,0.0,0.0,0.0,-8.1379,-8.2076,-8.2443,0.0,-8.3141,0.0,-8.2774,-8.2737,-8.3067,0.0,-8.2774,-8.226,-8.27,-8.3067,-8.27,-8.1562,-8.1525,-8.0791,-7.9286,-7.8809,-7.8185,-7.7273,-7.7273,-7.7273,-7.7273,-7.7273,-7.7273,-7.7237,-7.646,-7.6056,-7.5842,-7.4698,-7.4184,-7.4001,-7.3303,-7.323,-7.3487,-7.2753,-7.2716,-7.2973,0.0,0.0,0.0,0.0,0.0,0.0,0.0,0.0,0.0,0.0,0.0,0.0,0.0,0.0,0.0,0.0,0.0,0.0,0.0,0.0,0.0,0.0,0.0,0.0,0.0,0.0,0.0,0.0,0.0,0.0,0.0,0.0,0.0,0.0,0.0,0.0,0.0,0.0,0.0,0.0,0.0,0.0,0.0,0.0,0.0,0.0,0.0,0.0,0.0,0.0,-7.1659,-6.9563,-7.0192,-7.0533,-7.0983,-7.2524,-7.3487,-7.4368,-7.5983,-7.8522,-8.0679,-8.0679,-8.2147,-8.317,-8.1477,-8.0439,-7.9285,-7.7515,0.0,0.0,-7.3997,0.0,-7.5366,-7.5045,0.0,-7.8535,-8.1232,-8.1562,-8.2076,-8.3691,-8.3875,-8.3875,-8.3875,-8.3801,-8.4058,-8.4866,-8.4168,-8.3691,-8.3581,-8.4242,-8.3911,-8.2406,-8.226,-8.1085,-7.8772,-7.8883,-7.8369,-7.7273,-7.742,-7.7384,-7.7273,-7.7273,-7.7273,-7.7237,-7.657,-7.6607,-7.7017,-7.5652,-7.5432,-7.5799,-7.4404,-7.4294,-7.4735,-7.334,-7.3266,-7.3854,0.0,0.0,0.0,0.0,0.0,0.0,0.0,0.0,0.0,0.0,0.0,0.0,0.0,0.0,0.0,0.0,0.0,0.0,0.0,0.0,0.0,0.0,0.0,0.0,0.0,0.0,0.0,0.0,0.0,0.0,0.0,0.0,0.0,0.0,0.0,0.0,0.0,0.0,0.0,0.0,0.0,0.0,0.0,0.0,0.0,0.0,0.0,0.0,0.0,0.0,-7.4861,-7.229,-7.1938,-7.2743,-7.4026,-7.5161,-7.5579,-7.6056,-7.7708,-7.9762,-8.1509,-8.1462,-8.2547,-8.317,-8.1477,-8.0439,0.0,0.0,0.0,-7.5357,-7.3216,-7.4104,0.0,-7.7308,0.0,0.0,0.0,0.0,-8.4572,0.0,0.0,0.0,0.0,0.0,0.0,0.0,0.0,-8.5086,-8.4425,-8.4535,-8.4168,-8.3214,-8.2553,-8.1342,-7.958,-8.0241,-7.9507,-7.731,-7.8038,-7.8002,-7.7273,-7.7273,-7.7273,-7.7273,-7.7127,0.0,-7.6276,-7.6019,-7.5579,-7.5102,-7.4808,-7.4808,-7.4882,-7.4588,-7.4588,-7.4698,0.0,0.0,0.0,0.0,0.0,0.0,0.0,0.0,0.0,0.0,0.0,0.0,0.0,0.0,0.0,0.0,0.0,0.0,0.0,0.0,0.0,0.0,0.0,0.0,0.0,0.0,0.0,0.0,0.0,0.0,0.0,0.0,0.0,0.0,0.0,0.0,0.0,0.0,0.0,0.0,0.0,0.0,0.0,0.0,0.0,0.0,0.0,0.0,0.0,0.0,-7.7823,-7.6503,-7.6037,-7.6468,-7.7351,-7.8265,-7.8549,-7.88,-8.0059,-8.2245,-8.4073,-8.3633,-8.3888,-8.3593,-8.1016,0.0,0.0,0.0,0.0,-7.4226,-7.2686,-7.3879,0.0,0.0,0.0,0.0,0.0,0.0,0.0,0.0,0.0,0.0,0.0,0.0,0.0,0.0,0.0,-8.6077,-8.527,-8.4829,-8.4425,-8.4058,-8.3251,-8.2039,-8.0424,-8.0828,-7.9984,-7.8002,-7.8405,-7.8148,-7.7273,-7.7273,-7.7273,-7.7273,-7.7273,-7.7053,-7.6717,-7.6717,-7.6497,-7.6099,-7.5689,-7.5799,-7.6026,-7.5212,-7.5175,-7.5542,0.0,0.0,0.0,0.0,0.0,0.0,0.0,0.0,0.0,0.0,0.0,0.0,0.0,0.0,0.0,0.0,0.0,0.0,0.0,0.0,0.0,0.0,0.0,0.0,0.0,0.0,0.0,0.0,0.0,0.0,0.0,0.0,0.0,0.0,0.0,0.0,0.0,0.0,0.0,0.0,0.0,0.0,0.0,0.0,0.0,0.0,0.0,0.0,0.0,0.0,-8.0092,-8.0059,-7.9967,-7.9802,-7.969,-8.0069,-8.0555,-8.1169,-8.1965,-8.4311,-8.6403,-8.5848,-8.5301,-8.4093,-8.1016,-7.89,0.0,0.0,0.0,-7.3514,-7.2629,-7.3881,-7.5124,0.0,0.0,0.0,0.0,0.0,0.0,0.0,0.0,0.0,0.0,0.0,0.0,0.0,0.0,-8.6738,-8.6077,-8.5306,-8.4792,-8.4609,-8.3838,-8.2627,-8.1012,-8.1158,-8.0461,-7.8846,-7.8846,-7.8405,-7.7598,-7.7384,-7.7273,-7.7273,-7.7273,-7.7273,-7.7273,-7.7273,-7.7273,-7.7237,-7.6607,-7.6754,-7.7127,-7.5879,-7.5836,-7.635,0.0,0.0,0.0,0.0,0.0,0.0,0.0,0.0,0.0,0.0,0.0,0.0,0.0,0.0,0.0,0.0,0.0,0.0,0.0,0.0,0.0,0.0,0.0,0.0,0.0,0.0,0.0,0.0,0.0,0.0,0.0,0.0,0.0,0.0,0.0,0.0,0.0,0.0,0.0,0.0,0.0,0.0,0.0,0.0,0.0,0.0,0.0,0.0,0.0,0.0,0.0,-8.1115,-8.182,-8.1132,-7.9789,-7.8527,0.0,0.0,-8.2621,-8.4613,-8.667,-8.7298,-8.6163,-8.4401,-8.2516,0.0,0.0,0.0,-7.4591,-7.4361,-7.3553,-7.4125,-7.5302,0.0,0.0,0.0,0.0,0.0,0.0,0.0,0.0,0.0,0.0,0.0,0.0,0.0,-8.6995,-8.6995,-8.6885,-8.6114,-8.5343,-8.4609,-8.3838,-8.2627,-8.1012,-8.1709,-8.1269,-7.969,-7.969,-7.925,-7.8442,-7.7671,-7.7273,-7.7273,-7.7273,-7.7273,0.0,-7.7273,-7.7273,-7.7273,-7.72,-7.7237,-7.7273,-7.7127,-7.7127,-7.7163,0.0,0.0,0.0,0.0,0.0,0.0,0.0,0.0,0.0,0.0,0.0,0.0,0.0,0.0,0.0,0.0,0.0,0.0,0.0,0.0,0.0,0.0,0.0,0.0,0.0,0.0,0.0,0.0,0.0,0.0,0.0,0.0,0.0,0.0,0.0,0.0,0.0,0.0,0.0,0.0,0.0,0.0,0.0,0.0,0.0,0.0,0.0,0.0,0.0,0.0,0.0,0.0,-8.0862,-8.0389,0.0,0.0,-8.1837,-8.3416,-8.5279,-8.7916,-9.0071,-8.9861,-8.7686,-8.5055,-8.2824,0.0,0.0,-7.5784,-7.5091,-7.4591,-7.4284,-7.4476,-7.4956,0.0,0.0,0.0,0.0,0.0,0.0,0.0,0.0,0.0,0.0,0.0,0.0,0.0,-8.6995,-8.6995,-8.6995,-8.6701,-8.593,-8.4646,-8.4278,-8.3361,-8.1746,-8.2039,-8.1636,-8.0534,-8.0021,-7.9617,-7.9286,-7.7928,-7.7567,-7.8075,-7.753,-7.7273,0.0,-7.7273,-7.7273,-7.7273,-7.7273,-7.7273,-7.7273,-7.7273,-7.7273,-7.7273,0.0,0.0,0.0,0.0,0.0,0.0,0.0,0.0,0.0,0.0,0.0,0.0,0.0,0.0,0.0,0.0,0.0,0.0,0.0,0.0,0.0,0.0,0.0,0.0,0.0,0.0,0.0,0.0,0.0,0.0,0.0,0.0,0.0,0.0,0.0,0.0,0.0,0.0,0.0,0.0,0.0,0.0,0.0,0.0,0.0,0.0,0.0,0.0,0.0,0.0,0.0,0.0,0.0,0.0,0.0,0.0,-8.253,-8.427,-8.6336,-8.9227,-9.1633,-9.1287,-8.844,-8.5209,0.0,0.0,0.0,-7.6553,-7.6092,-7.5745,-7.5515,-7.5476,-7.5399,0.0,0.0,0.0,0.0,0.0,0.0,0.0,0.0,0.0,0.0,0.0,0.0,0.0,-8.6995,-8.6995,-8.6995,-8.6995,-8.6261,-8.4646,-8.4609,-8.3838,-8.2223,-8.2186,-8.1929,-8.1342,-8.0534,-8.0131,-8.0094,-7.8699,-7.8259,-7.8552,-7.7965,-7.7561,0.0,-7.7273,-7.7273,-7.7273,-7.7273,-7.7273,-7.7273,-7.7273,-7.7273,-7.7273,0.0,0.0,0.0,0.0,0.0,0.0,0.0,0.0,0.0,0.0,0.0,0.0,0.0,0.0,0.0,0.0,0.0,0.0,0.0,0.0,0.0,0.0,0.0,0.0,0.0,0.0,0.0,0.0,0.0,0.0,0.0,0.0,0.0,0.0,0.0,0.0,0.0,0.0,0.0,0.0,0.0,0.0,0.0,0.0,0.0,0.0,0.0,0.0,0.0,0.0,0.0,0.0,0.0,0.0,0.0,0.0,-8.0939,-8.3785,-8.4692,-8.7385,-9.0133,-9.0979,-8.8017,-8.467,0.0,0.0,0.0,-7.7438,-7.79,-7.8207,-7.74,-7.7284,-7.6976,-7.613,0.0,0.0,0.0,0.0,0.0,0.0,0.0,0.0,0.0,0.0,0.0,0.0,-8.6995,0.0,-8.6995,-8.6995,-8.6261,-8.4646,-8.4609,-8.3838,-8.2223,-8.2186,-8.2186,-8.2186,-8.1379,-8.1012,-8.0975,-8.0131,-7.9323,-7.8589,-7.8589,-7.8112,0.0,-7.7273,-7.7273,-7.7273,-7.7273,-7.7273,-7.7273,-7.7273,-7.7273,-7.7273,0.0,0.0,0.0,0.0,0.0,0.0,0.0,0.0,0.0,0.0,0.0,0.0,0.0,0.0,0.0,0.0,0.0,0.0,0.0,0.0,0.0,0.0,0.0,0.0,0.0,0.0,0.0,0.0,0.0,0.0,0.0,0.0,0.0,0.0,0.0,0.0,0.0,0.0,0.0,0.0,0.0,0.0,0.0,0.0,0.0,0.0,0.0,0.0,0.0,0.0,0.0,0.0,0.0,0.0,0.0,0.0,0.0,0.0,-8.2747,-8.4786,-8.6555,-8.6824,-8.4593,-8.2054,-8.1208,0.0,0.0,-7.7361,-7.7938,-7.8246,-7.7438,-7.7284,-7.7207,-7.6938,-7.6399,0.0,0.0,0.0,0.0,0.0,0.0,0.0,0.0,0.0,0.0,-8.6995,-8.6995,-8.6995,-8.6995,-8.6995,-8.6261,-8.4646,-8.4609,-8.3838,-8.2223,-8.2186,-8.2186,-8.2186,-8.1379,-8.1305,-8.1782,-8.0424,-7.9947,-8.0204,-7.9653,-7.925,-7.8993,-7.8993,-7.8699,-7.8185,-7.8185,-7.7818,-7.7273,-7.7273,-7.7273,-7.7273,0.0,0.0,0.0,0.0,0.0,0.0,0.0,0.0,0.0,0.0,0.0,0.0,0.0,0.0,0.0,0.0,0.0,0.0,0.0,0.0,0.0,0.0,0.0,0.0,0.0,0.0,0.0,0.0,0.0,0.0,0.0,0.0,0.0,0.0,0.0,0.0,0.0,0.0,0.0,0.0,0.0,0.0,-8.1093,0.0,0.0,0.0,0.0,0.0,0.0,0.0,0.0,0.0,0.0,0.0,0.0,0.0,0.0,0.0,0.0,-8.2631,-8.4093,-8.4747,-8.2747,0.0,0.0,0.0,0.0,-7.7207,-7.7707,-7.79,-7.74,-7.7284,-7.7169,-7.6861,0.0,0.0,0.0,0.0,0.0,0.0,0.0,0.0,0.0,0.0,-8.6995,-8.6995,-8.6995,-8.6995,-8.6995,-8.6995,-8.6407,-8.5086,-8.5049,-8.4425,-8.3104,-8.281,-8.2663,-8.2627,-8.1856,-8.1709,-8.215,-8.1158,-8.0791,-8.0975,-8.0461,-8.0057,0.0,-7.947,-7.9029,-7.8552,-7.8259,-7.7781,-7.7273,-7.7273,-7.7273,-7.7273,0.0,0.0,0.0,0.0,0.0,0.0,0.0,0.0,0.0,0.0,0.0,0.0,0.0,0.0,0.0,0.0,0.0,0.0,0.0,0.0,0.0,0.0,0.0,0.0,0.0,0.0,0.0,-7.8323,-7.9246,-7.9669,-7.9631,0.0,0.0,0.0,0.0,0.0,0.0,-8.1093,-8.1093,0.0,0.0,-8.1093,0.0,0.0,0.0,0.0,0.0,0.0,0.0,0.0,0.0,0.0,0.0,0.0,0.0,0.0,0.0,0.0,0.0,0.0,0.0,0.0,0.0,0.0,0.0,0.0,0.0,0.0,0.0,-7.7207,-7.7207,-7.7207,-7.6938,-7.6207,0.0,0.0,0.0,0.0,0.0,0.0,0.0,0.0,0.0,0.0,-8.6995,-8.6995,-8.6958,-8.6958,-8.6995,-8.6958,-8.6591,-8.5894,-8.5894,-8.5453,-8.4609,-8.3801,-8.3398,-8.3398,-8.259,-8.2186,-8.2186,-8.2186,-8.1782,0.0,-8.1085,-8.0645,-7.991,-7.914,-7.8772,-7.8589,-7.7818,-7.7384,-7.7273,-7.7273,-7.7347,-7.7384,0.0,0.0,0.0,0.0,0.0,0.0,0.0,0.0,0.0,0.0,0.0,0.0,0.0,0.0,0.0,0.0,0.0,0.0,0.0,0.0,0.0,0.0,0.0,0.0,0.0,0.0,0.0,-7.6592,-7.8092,-7.8477,-7.79,-7.9208,0.0,0.0,0.0,0.0,-8.1093,-8.1093,-8.1093,0.0,-8.1093,-8.1093,0.0,0.0,0.0,0.0,-7.9054,-7.8284,0.0,0.0,0.0,0.0,0.0,0.0,0.0,0.0,-7.4745,0.0,0.0,0.0,0.0,0.0,0.0,0.0,0.0,0.0,0.0,0.0,0.0,0.0,0.0,0.0,0.0,0.0,0.0,0.0,0.0,0.0,0.0,0.0,0.0,0.0,0.0,0.0,-8.6995,-8.6995,-8.6444,-8.6334,-8.6995,-8.6407,-8.6261,-8.6701,-8.6738,-8.604,-8.4609,-8.3801,-8.3398,-8.3398,-8.259,-8.2186,-8.2186,-8.2186,-8.2113,-8.1929,-8.1929,-8.1819,-8.1599,-8.1415,-8.0608,-7.9507,-7.9286,-7.8442,-7.7273,-7.7273,-7.7745,-7.8295,0.0,0.0,0.0,0.0,0.0,0.0,0.0,0.0,0.0,0.0,0.0,0.0,0.0,0.0,0.0,0.0,0.0,0.0,0.0,0.0,0.0,0.0,0.0,0.0,0.0,0.0,0.0,0.0,0.0,-7.8861,0.0,0.0,0.0,0.0,0.0,-8.1093,-8.1093,-8.1093,-8.1093,-8.1093,-8.1093,0.0,0.0,0.0,0.0,0.0,-7.8246,-7.74,0.0,-7.6245,-7.6361,-7.6553,0.0,0.0,0.0,0.0,-7.4168,0.0,0.0,0.0,0.0,0.0,0.0,0.0,0.0,0.0,0.0,0.0,0.0,0.0,0.0,0.0,0.0,0.0,0.0,0.0,0.0,0.0,0.0,0.0,0.0,0.0,0.0,0.0,-8.6995,-8.6995,-8.6591,-8.6554,-8.6995,-8.6591,-8.6554,-8.6995,-8.6995,-8.6407,-8.5159,-8.4719,-8.4132,-8.3398,-8.2957,-8.2737,-8.2737,-8.2737,-8.2737,-8.2737,-8.2737,-8.2553,-8.215,-8.1782,-8.0901,-7.98,-7.98,-7.9029,-7.7965,-7.8332,-7.8736,-7.9176,0.0,0.0,0.0,0.0,0.0,0.0,0.0,0.0,0.0,0.0,0.0,0.0,0.0,0.0,0.0,0.0,0.0,0.0,0.0,0.0,0.0,0.0,0.0,0.0,0.0,0.0,0.0,0.0,0.0,0.0,0.0,0.0,0.0,0.0,0.0,-8.1093,-8.1093,-8.1093,-8.1093,-8.1093,-8.1093,0.0,0.0,0.0,0.0,0.0,0.0,0.0,0.0,-7.5168,-7.5399,-7.5861,-7.513,0.0,0.0,0.0,0.0,0.0,0.0,0.0,0.0,-7.6899,-7.6553,0.0,0.0,0.0,0.0,0.0,0.0,0.0,0.0,0.0,0.0,0.0,0.0,0.0,0.0,0.0,0.0,0.0,0.0,0.0,0.0,-8.728,-8.6995,-8.6995,-8.6885,-8.6885,-8.6995,-8.6885,-8.6885,-8.6995,-8.6995,-8.6628,-8.5783,-8.5673,-8.4939,-8.3581,-8.3361,-8.3214,-8.3214,-8.3214,-8.3214,-8.3251,-8.3361,0.0,-8.215,-8.1599,-8.0828,-7.9984,-7.9984,-7.947,-7.8883,-7.9543,-7.9947,-8.0277,0.0,0.0,0.0,0.0,0.0,0.0,0.0,0.0,0.0,0.0,0.0,0.0,0.0,0.0,0.0,0.0,0.0,0.0,0.0,0.0,0.0,0.0,0.0,0.0,0.0,0.0,0.0,0.0,0.0,0.0,-7.8707,-7.9438,-8.0285,0.0,0.0,-8.1093,-8.1093,-8.1093,-8.1093,-8.1093,-8.1093,0.0,0.0,0.0,0.0,0.0,0.0,0.0,0.0,-7.5861,-7.5899,-7.5976,-7.5822,0.0,0.0,0.0,0.0,0.0,-7.463,-7.5245,-7.6053,-7.7053,-7.6092,-7.5322,0.0,0.0,0.0,0.0,0.0,0.0,0.0,0.0,0.0,0.0,0.0,0.0,0.0,0.0,0.0,0.0,0.0,0.0,-8.6125,-8.6611,-8.6995,-8.6995,-8.6371,-8.6261,-8.6958,-8.6334,-8.6297,-8.6995,-8.6995,-8.6628,-8.5783,-8.5123,-8.4646,-8.4389,-8.303,-8.237,-8.237,-8.237,-8.237,-8.2406,0.0,-8.2957,-8.2223,-8.281,-8.2186,-8.0828,-8.0828,-8.0314,-7.9617,-7.9727,-8.0645,-8.1929,0.0,0.0,0.0,0.0,0.0,0.0,0.0,0.0,0.0,0.0,0.0,0.0,0.0,0.0,0.0,0.0,0.0,0.0,0.0,0.0,0.0,0.0,0.0,0.0,0.0,0.0,0.0,0.0,0.0,-8.0285,-7.99,-8.0323,-8.0708,-8.1093,-8.1093,-8.1323,-8.1708,-8.1285,-8.1362,-8.1708,0.0,0.0,0.0,0.0,0.0,0.0,0.0,0.0,0.0,0.0,-7.6015,-7.6015,-7.6015,0.0,0.0,0.0,0.0,0.0,-7.5284,-7.4707,-7.4361,-7.613,-7.563,0.0,0.0,0.0,0.0,0.0,0.0,0.0,0.0,0.0,0.0,0.0,0.0,0.0,0.0,0.0,0.0,0.0,0.0,-8.6289,-8.6877,-8.6611,-8.6518,-8.6995,-8.6261,-8.6151,-8.6958,-8.6664,-8.6628,-8.6995,-8.6995,-8.6811,-8.6444,-8.5637,-8.5013,-8.4609,-8.4278,-8.4132,-8.4132,-8.4132,-8.4132,-8.4132,0.0,-8.3581,-8.2847,-8.2774,-8.2076,-8.1085,-8.1966,-8.1819,-8.1195,-8.2076,-8.2847,-8.3544,0.0,0.0,0.0,0.0,0.0,0.0,0.0,0.0,0.0,0.0,0.0,0.0,0.0,0.0,0.0,0.0,0.0,0.0,0.0,0.0,0.0,0.0,0.0,0.0,0.0,0.0,-8.0323,-8.1362,-8.1208,-8.1093,-8.1093,-8.1093,-8.1093,0.0,-8.1093,-8.1439,-8.1977,-8.1362,-8.1477,-8.1977,0.0,0.0,0.0,0.0,0.0,0.0,0.0,0.0,0.0,0.0,0.0,0.0,0.0,0.0,0.0,0.0,0.0,-7.5168,-7.5822,-7.4591,-7.3399,0.0,0.0,0.0,0.0,0.0,0.0,0.0,0.0,0.0,0.0,0.0,0.0,0.0,0.0,0.0,0.0,0.0,0.0,0.0,-8.5517,-8.5663,-8.7623,-8.6759,-8.6334,-8.6958,-8.6261,-8.6151,-8.6958,-8.6811,-8.6811,-8.6995,-8.6995,-8.6995,-8.6995,-8.6407,-8.5673,-8.4903,-8.5306,-8.5527,-8.5527,-8.5527,-8.5527,-8.549,-8.5086,-8.4315,-8.3398,-8.3141,-8.2443,-8.1709,-8.3141,-8.3324,-8.292,-8.4352,-8.4756,-8.4646,0.0,0.0,0.0,0.0,0.0,0.0,0.0,0.0,0.0,0.0,0.0,0.0,0.0,0.0,0.0,0.0,0.0,0.0,0.0,0.0,0.0,0.0,0.0,0.0,0.0,-8.0208,-8.0592,-8.2208,-8.1477,-8.1093,-8.1093,-8.1093,-8.1093,-8.1093,-8.1093,-8.1131,-8.117,-8.1131,-8.1131,-8.117,-8.1131,0.0,0.0,0.0,0.0,0.0,0.0,0.0,0.0,0.0,0.0,0.0,0.0,0.0,0.0,0.0,0.0,-7.5938,-7.5976,-7.5861,0.0,0.0,0.0,0.0,0.0,0.0,0.0,0.0,0.0,0.0,0.0,0.0,0.0,0.0,0.0,0.0,0.0,0.0,0.0,-8.5628,-8.6303,-8.6795,-8.6982,-8.6943,-8.6958,-8.6995,-8.6261,-8.6151,-8.6958,-8.6297,-8.6224,-8.6995,-8.6995,-8.6995,-8.6995,-8.6958,-8.6518,-8.571,-8.5013,-8.4682,-8.4682,-8.4682,-8.4682,-8.4719,-8.5416,-8.4829,-8.3508,-8.4939,-8.4646,-8.3324,-8.4168,-8.4499,-8.4535,-8.538,-8.5233,-8.4719,0.0,0.0,0.0,0.0,0.0,0.0,0.0,0.0,0.0,0.0,0.0,0.0,0.0,0.0,0.0,0.0,0.0,0.0,0.0,0.0,0.0,0.0,0.0,-8.1093,-8.1093,-8.1285,-8.1939,-8.3093,-8.2247,-8.1593,-8.1093,-8.1093,0.0,0.0,-8.1093,-8.1362,-8.1823,-8.1323,-8.14,-8.1785,-8.1285,-8.1093,0.0,0.0,0.0,0.0,0.0,0.0,0.0,0.0,0.0,0.0,0.0,0.0,0.0,0.0,0.0,0.0,-7.6015,-7.5245,0.0,0.0,0.0,0.0,0.0,0.0,0.0,0.0,0.0,0.0,0.0,0.0,0.0,0.0,0.0,0.0,0.0,0.0,0.0,-8.4896,-8.4806,-8.4949,-8.5429,-8.5029,-8.4976,-8.549,-8.4756,-8.4866,-8.6187,-8.549,-8.5637,-8.6958,-8.6518,-8.6481,-8.6995,-8.6995,-8.6848,-8.6554,-8.6261,-8.6114,-8.6114,-8.6114,-8.6114,-8.6077,-8.5894,-8.5453,-8.4866,-8.4462,-8.4242,-8.4242,-8.5013,-8.5637,-8.6151,-8.6444,-8.604,-8.5453,0.0,0.0,0.0,0.0,0.0,0.0,0.0,0.0,0.0,0.0,0.0,0.0,0.0,0.0,0.0,0.0,0.0,0.0,0.0,0.0,0.0,0.0,0.0,-8.1208,-8.1477,-8.2016,-8.2593,-8.317,-8.2593,-8.19,-8.1093,0.0,0.0,0.0,-8.1093,-8.14,-8.19,-8.1323,-8.14,-8.1862,-8.1323,-8.1093,0.0,0.0,0.0,0.0,0.0,0.0,0.0,0.0,0.0,0.0,0.0,0.0,0.0,0.0,0.0,0.0,-7.5284,-7.4168,0.0,0.0,0.0,0.0,0.0,0.0,0.0,0.0,0.0,0.0,0.0,0.0,0.0,0.0,0.0,0.0,0.0,0.0,-8.248,-8.3353,-8.3214,-8.3361,-8.4132,-8.3948,-8.4022,-8.4572,-8.3875,-8.3985,-8.5343,-8.4903,-8.5233,-8.6591,-8.6334,-8.6444,-8.6995,-8.6995,-8.6995,-8.6995,-8.6995,-8.6995,-8.6995,-8.6995,-8.6995,-8.6995,-8.6407,-8.5894,-8.538,-8.4792,-8.4866,-8.5416,-8.5967,-8.6518,-8.6995,-8.6995,-8.6664,-8.6297,0.0,0.0,0.0,0.0,0.0,0.0,0.0,0.0,0.0,0.0,0.0,0.0,0.0,0.0,0.0,0.0,0.0,0.0,0.0,0.0,0.0,0.0,0.0,-8.1477,-8.2285,-8.2285,-8.2285,-8.2285,-8.2324,-8.19,-8.1093,-8.1093,0.0,0.0,-8.1093,-8.1093,-8.1093,-8.1093,-8.1093,-8.1093,-8.1093,-8.1093,-8.1093,0.0,0.0,0.0,0.0,0.0,0.0,0.0,0.0,0.0,0.0,0.0,0.0,0.0,0.0,-7.4553,-7.3745,0.0,0.0,0.0,0.0,0.0,0.0,0.0,0.0,0.0,0.0,0.0,0.0,0.0,0.0,0.0,0.0,0.0,0.0,0.0,-8.0126,-8.0901,-8.1672,-8.248,-8.3324,-8.4095,-8.4572,-8.4572,-8.3838,-8.3765,-8.4572,-8.4572,-8.4976,-8.5783,-8.6554,-8.6995,-8.6995,-8.6995,-8.6995,-8.6995,-8.6995,-8.6995,-8.6995,-8.6995,-8.6995,-8.6995,-8.6995,-8.6114,-8.4756,-8.6334,-8.6995,-8.6995,-8.6995,-8.6995,-8.7031,-8.7031,-8.7031,-8.7142,0.0,0.0,0.0,0.0,0.0,0.0,0.0,0.0,0.0,0.0,0.0,0.0,0.0,0.0,0.0,0.0,0.0,0.0,0.0,0.0,0.0,0.0,0.0,0.0,0.0,0.0,-8.1747,-8.2285,-8.3516,-8.3093,0.0,0.0,0.0,-8.1093,0.0,0.0,-8.1093,-8.1093,-8.1093,-8.1093,-8.1093,-8.1093,-8.1093,0.0,0.0,0.0,0.0,0.0,0.0,0.0,0.0,0.0,0.0,0.0,0.0,0.0,-7.6515,-7.5553,-7.5322,0.0,0.0,0.0,0.0,0.0,0.0,0.0,0.0,0.0,0.0,0.0,0.0,0.0,0.0,0.0,0.0,-8.0612,0.0,0.0,-8.0341,-8.0157,-8.0351,-8.0828,-8.1636,-8.1929,-8.2296,-8.2884,-8.27,-8.3141,-8.4535,-8.3544,-8.4058,-8.6591,-8.5233,-8.5306,-8.6995,-8.6444,-8.6444,-8.6995,-8.6995,-8.6995,-8.6995,-8.6995,-8.6995,-8.6995,-8.6407,-8.6224,-8.6334,-8.6811,-8.6664,-8.6224,-8.6775,-8.7362,-8.7839,-8.7839,-8.8206,-8.872,0.0,0.0,0.0,0.0,0.0,0.0,0.0,0.0,0.0,0.0,0.0,0.0,0.0,0.0,0.0,0.0,0.0,0.0,0.0,0.0,0.0,0.0,0.0,0.0,0.0,-8.1747,-8.2016,0.0,0.0,0.0,0.0,0.0,0.0,-8.1093,0.0,-8.14,0.0,-8.1439,-8.14,-8.1093,-8.1093,-8.1093,-8.1093,0.0,0.0,0.0,0.0,0.0,0.0,0.0,0.0,0.0,0.0,0.0,0.0,0.0,-7.6438,-7.5245,0.0,0.0,0.0,0.0,0.0,0.0,0.0,0.0,0.0,0.0,0.0,0.0,0.0,0.0,0.0,0.0,0.0,-8.0022,-7.8681,-7.8972,-7.9328,-7.9312,-7.9323,-7.9764,-8.0901,-8.1012,-8.1342,-8.215,-8.2186,-8.2627,-8.3581,-8.303,-8.3581,-8.5527,-8.4499,-8.4719,-8.6518,-8.604,-8.6187,-8.6995,-8.6995,-8.6995,-8.6995,-8.6995,-8.6995,-8.6958,-8.582,-8.56,-8.604,-8.604,-8.5967,-8.5857,-8.6701,-8.7509,-8.8206,-8.8206,-8.872,-8.9419,0.0,0.0,0.0,0.0,0.0,0.0,0.0,0.0,0.0,0.0,0.0,0.0,0.0,0.0,0.0,0.0,0.0,0.0,0.0,0.0,0.0,0.0,0.0,0.0,0.0,0.0,0.0,0.0,0.0,0.0,0.0,0.0,-8.1093,-8.1131,0.0,-8.1785,0.0,-8.1862,-8.1785,-8.1093,-8.1093,-8.1093,-8.1093,-8.1093,0.0,0.0,0.0,0.0,0.0,0.0,0.0,0.0,0.0,0.0,0.0,0.0,-7.6284,0.0,0.0,0.0,0.0,0.0,0.0,0.0,0.0,0.0,0.0,0.0,0.0,0.0,0.0,0.0,0.0,0.0,-7.9166,-7.9058,-7.8379,-7.7797,-7.7659,-7.8369,-7.8479,-7.9103,-8.0645,-8.0865,-8.1195,-8.1929,-8.2113,-8.2186,-8.2186,-8.2884,-8.3361,-8.3508,-8.4095,-8.4829,-8.5783,-8.571,-8.6114,-8.6995,-8.6995,-8.6995,-8.6995,-8.6995,-8.6921,-8.6701,-8.5306,-8.4682,-8.4609,-8.4682,-8.5196,-8.5967,-8.6811,-8.7619,-8.8316,-8.839,-8.894,-8.9748,0.0,0.0,0.0,0.0,0.0,0.0,0.0,0.0,0.0,0.0,0.0,0.0,0.0,0.0,0.0,0.0,0.0,0.0,0.0,0.0,0.0,0.0,0.0,0.0,0.0,0.0,0.0,0.0,0.0,0.0,0.0,0.0,0.0,-8.1093,0.0,-8.1246,-8.1093,-8.1285,-8.1246,-8.1093,-8.1093,-8.1093,-8.1093,-8.1093,-8.1093,0.0,0.0,0.0,0.0,0.0,0.0,0.0,-8.1093,-8.0516,-7.9746,-7.9361,-7.8054,0.0,0.0,0.0,0.0,0.0,0.0,0.0,0.0,0.0,0.0,0.0,0.0,0.0,0.0,0.0,0.0,0.0,-7.9874,-7.9513,-7.8458,-7.8173,-7.7949,-7.7623,-7.7567,-7.8002,-7.9029,-7.969,-8.0131,-8.0277,-8.1489,-8.2186,-8.2186,-8.237,-8.303,-8.4315,-8.3287,-8.3691,-8.5783,-8.5159,-8.56,-8.6995,-8.6995,-8.6995,-8.6995,-8.6995,-8.6334,-8.5123,-8.5416,-8.5159,-8.4646,-8.527,-8.6004,-8.6811,-8.7619,-8.8426,-8.9234,-8.9858,-9.0592,-9.1326,0.0,0.0,0.0,0.0,0.0,0.0,0.0,0.0,0.0,0.0,0.0,0.0,0.0,0.0,0.0,0.0,0.0,0.0,0.0,0.0,0.0,0.0,0.0,0.0,0.0,0.0,0.0,0.0,0.0,0.0,0.0,0.0,0.0,-8.1131,0.0,-8.1477,-8.1131,-8.1516,-8.1439,-8.1093,-8.1093,-8.1093,-8.1093,-8.1093,-8.1093,-8.1093,-8.1093,0.0,0.0,0.0,0.0,0.0,0.0,0.0,-8.0746,-7.9554,-7.8554,0.0,0.0,0.0,0.0,0.0,0.0,0.0,0.0,0.0,0.0,0.0,0.0,0.0,0.0,0.0,0.0,0.0,0.0,-7.9785,-7.8878,-7.8484,-7.8072,-7.7396,-7.7273,-7.764,-7.8516,-7.8993,-7.9396,-7.9764,-8.0571,-8.1195,-8.1599,-8.1636,-8.2186,-8.3398,-8.2627,-8.3177,-8.5196,-8.4792,-8.5416,-8.6995,-8.6995,-8.6995,-8.6995,-8.6591,-8.5747,-8.4609,-8.5049,-8.4756,-8.4132,-8.5306,-8.6261,-8.7105,-8.7876,-8.894,-9.0041,-9.0445,-9.1106,-9.1803,0.0,0.0,0.0,0.0,0.0,0.0,0.0,0.0,0.0,0.0,0.0,0.0,0.0,0.0,0.0,0.0,0.0,0.0,0.0,0.0,0.0,0.0,0.0,0.0,0.0,0.0,0.0,0.0,0.0,0.0,0.0,0.0,0.0,-8.1131,0.0,0.0,-8.1131,-8.1823,-8.1708,-8.1093,-8.1093,-8.1093,-8.1093,-8.1093,-8.1093,-8.1093,-8.1093,-8.1093,-8.1208,-8.1862,0.0,0.0,0.0,0.0,-8.167,-7.9554,-7.8823,-7.8246,0.0,0.0,0.0,0.0,0.0,0.0,0.0,0.0,0.0,0.0,0.0,0.0,0.0,0.0,0.0,0.0,0.0,0.0,0.0,-7.8603,-7.8072,-7.7396,-7.7273,-7.7567,-7.8295,-7.8516,-7.8809,-7.9323,-7.9617,-8.0021,-8.0571,-8.0718,-8.1085,-8.1746,-8.1929,-8.2774,-8.4389,-8.4535,-8.5416,-8.6995,-8.6995,-8.6995,-8.6995,-8.6151,-8.5416,-8.4792,-8.4792,-8.4425,-8.3911,-8.5233,-8.6371,-8.7288,-8.8096,-8.9307,-9.0629,-9.0776,-9.1216,-9.1803,0.0,0.0,0.0,0.0,0.0,0.0,0.0,0.0,0.0,0.0,0.0,0.0,0.0,0.0,0.0,0.0,0.0,0.0,0.0,0.0,0.0,0.0,0.0,0.0,0.0,0.0,0.0,0.0,0.0,0.0,0.0,0.0,0.0,0.0,0.0,0.0,0.0,-8.1208,-8.1208,-8.1093,-8.1093,-8.1093,-8.1093,-8.1093,-8.1093,-8.1093,-8.1093,-8.1093,-8.1131,-8.1208,-8.1246,0.0,0.0,0.0,-8.1208,-8.0862,-8.0208,0.0,0.0,0.0,0.0,0.0,0.0,0.0,0.0,0.0,0.0,0.0,0.0,0.0,0.0,0.0,0.0,0.0,0.0,0.0,0.0,0.0,0.0,-7.7396,-7.7273,-7.7347,-7.7457,-7.8148,-7.8332,-7.7708,-7.8993,-7.9543,-7.8956,-7.958,-7.9984,-8.0094,-8.0791,-8.1929,-8.3544,-8.4242,-8.5416,-8.6995,-8.6995,-8.6995,-8.6995,-8.6151,-8.5747,-8.5637,-8.5637,-8.5563,-8.549,-8.571,-8.6664,-8.8133,-8.894,-8.9821,-9.0702,-9.1363,-9.1693,-9.1803,0.0,0.0,0.0,0.0,0.0,0.0,0.0,0.0,0.0,0.0,0.0,0.0,0.0,0.0,0.0,0.0,0.0,0.0,0.0,0.0,0.0,0.0,0.0,0.0,0.0,0.0,0.0,0.0,0.0,0.0,0.0,-8.1093,-8.0888,0.0,0.0,0.0,0.0,0.0,0.0,-8.1093,-8.1093,-8.1093,0.0,0.0,-8.1093,-8.1093,-8.1093,-8.1093,-8.117,-8.1631,-8.1785,-8.1785,-8.1785,0.0,0.0,0.0,0.0,0.0,0.0,0.0,0.0,0.0,0.0,0.0,0.0,0.0,0.0,0.0,0.0,0.0,0.0,0.0,0.0,0.0,0.0,0.0,0.0,0.0,0.0,0.0,-7.7215,-7.7273,-7.7273,-7.7671,-7.7708,-7.731,-7.8002,-7.8479,-7.8589,-7.8919,-7.9543,-8.0424,-8.0828,-8.2003,-8.4058,-8.4425,-8.5416,-8.6995,-8.6995,-8.6775,-8.6334,-8.6444,-8.6224,-8.5783,-8.5783,-8.5783,-8.582,-8.6297,-8.7142,-8.828,-8.9087,-8.9895,-9.0702,-9.151,-9.1803,-9.1803,0.0,0.0,0.0,0.0,0.0,0.0,0.0,0.0,0.0,0.0,0.0,0.0,0.0,0.0,0.0,0.0,0.0,0.0,0.0,0.0,0.0,0.0,0.0,0.0,0.0,0.0,0.0,0.0,0.0,0.0,-8.1093,-8.0943,-8.0591,0.0,-8.0296,0.0,0.0,0.0,0.0,0.0,0.0,0.0,0.0,0.0,0.0,0.0,0.0,-8.1285,-8.1208,-8.2016,-8.217,-8.2016,-8.2016,-8.2016,0.0,0.0,0.0,0.0,0.0,0.0,0.0,0.0,0.0,0.0,0.0,0.0,0.0,0.0,0.0,0.0,0.0,0.0,0.0,0.0,0.0,0.0,0.0,0.0,0.0,0.0,-7.7053,-7.72,-7.698,-7.7163,-7.7273,-7.7273,-7.7273,-7.7567,-7.8222,-7.8259,-7.8809,-8.0021,-8.0461,-8.1672,-8.3654,-8.4499,-8.56,-8.6995,-8.6995,-8.6591,-8.582,-8.6628,-8.6554,-8.5783,-8.6004,-8.6114,-8.6151,-8.6775,-8.7582,-8.8573,-8.9197,-9.0041,-9.0996,-9.1583,-9.1803,-9.1803,0.0,0.0,0.0,0.0,0.0,0.0,0.0,0.0,0.0,0.0,0.0,0.0,0.0,0.0,0.0,0.0,0.0,0.0,0.0,0.0,0.0,0.0,0.0,0.0,0.0,0.0,0.0,0.0,0.0,0.0,-8.1077,-8.0463,-8.0144,-8.0144,-8.075,-8.1137,-8.1308,0.0,0.0,0.0,0.0,0.0,0.0,0.0,0.0,0.0,0.0,-8.1747,-8.1208,-8.2016,-8.1785,-8.117,-8.117,-8.117,-8.1131,0.0,0.0,0.0,0.0,0.0,0.0,0.0,0.0,0.0,0.0,0.0,0.0,0.0,0.0,0.0,0.0,0.0,0.0,0.0,0.0,0.0,0.0,0.0,0.0,0.0,0.0,-7.698,-7.624,-7.6864,-7.7273,-7.7273,-7.7273,-7.731,-7.7347,-7.7347,-7.7384,-7.7494,-7.9029,-8.0277,-8.1195,-8.4205,-8.6151,-8.6995,-8.6995,-8.6591,-8.582,-8.6628,-8.6554,-8.582,-8.6628,-8.6958,-8.6958,-8.6995,-8.7949,-8.9308,-8.9345,-9.0372,-9.173,-9.1767,-9.1803,-9.1803,0.0,0.0,0.0,0.0,0.0,0.0,0.0,0.0,0.0,0.0,0.0,0.0,0.0,0.0,0.0,0.0,0.0,0.0,0.0,0.0,0.0,0.0,0.0,0.0,0.0,0.0,0.0,0.0,0.0,-8.1093,-8.1093,-8.0855,-8.0499,-8.0125,-8.0352,-8.0486,-8.0583,-8.0954,0.0,0.0,0.0,0.0,0.0,0.0,0.0,0.0,0.0,0.0,0.0,0.0,-8.1323,-8.1093,-8.1093,-8.1093,-8.1093,-8.1093,0.0,0.0,0.0,0.0,0.0,0.0,0.0,0.0,0.0,0.0,0.0,0.0,0.0,0.0,0.0,0.0,0.0,0.0,0.0,0.0,0.0,0.0,0.0,0.0,0.0,0.0,-7.6093,-7.635,-7.6754,-7.7237,-7.7273,-7.7273,-7.7273,-7.7273,-7.753,-7.8112,-7.9213,-8.0938,-8.3287,-8.4976,-8.6187,-8.6995,-8.6481,-8.582,-8.5049,-8.5857,-8.5783,-8.5086,-8.6444,-8.6995,-8.6995,-8.6995,-8.7655,-8.8683,-8.9234,-9.0078,-9.1106,-9.162,-9.1803,-9.1803,0.0,0.0,0.0,0.0,0.0,0.0,0.0,0.0,0.0,0.0,0.0,0.0,0.0,0.0,0.0,0.0,0.0,0.0,0.0,0.0,0.0,0.0,0.0,0.0,0.0,0.0,0.0,0.0,0.0,0.0,0.0,0.0,-8.0855,-8.0445,-8.0445,-8.0468,0.0,0.0,0.0,-8.1477,0.0,0.0,-8.075,0.0,0.0,0.0,0.0,0.0,0.0,0.0,0.0,0.0,0.0,0.0,0.0,0.0,0.0,0.0,0.0,0.0,0.0,0.0,0.0,0.0,0.0,0.0,0.0,0.0,0.0,0.0,0.0,0.0,0.0,0.0,0.0,0.0,0.0,0.0,0.0,0.0,0.0,0.0,0.0,-7.6203,-7.6717,-7.7237,-7.7273,0.0,-7.7273,-7.7567,-7.8259,-7.936,-7.9653,-8.1195,-8.4168,-8.5013,-8.5783,-8.6591,-8.6334,-8.5783,-8.5013,-8.5857,-8.5747,-8.5086,-8.6444,-8.6995,-8.7031,-8.7288,-8.7876,-8.8683,-8.9491,-9.0298,-9.1069,-9.1583,-9.1803,-9.1803,0.0,0.0,0.0,0.0,0.0,0.0,0.0,0.0,0.0,0.0,0.0,0.0,0.0,0.0,0.0,0.0,0.0,0.0,0.0,0.0,0.0,0.0,0.0,0.0,0.0,0.0,0.0,0.0,0.0,0.0,0.0,0.0,-8.1093,0.0,-8.1093,-8.121,-8.1366,0.0,-8.1554,-8.2208,0.0,-8.0716,-8.0125,0.0,0.0,0.0,-8.0801,-8.0792,0.0,-8.1738,0.0,0.0,0.0,0.0,0.0,0.0,0.0,0.0,0.0,0.0,0.0,0.0,0.0,0.0,0.0,0.0,0.0,0.0,0.0,0.0,0.0,0.0,0.0,0.0,0.0,0.0,0.0,0.0,0.0,0.0,0.0,0.0,0.0,0.0,-7.7268,-7.7273,-7.7273,-7.7273,-7.7273,-7.8112,-7.9286,-8.0901,-8.0167,-8.0938,-8.3398,-8.4205,-8.5013,-8.5783,-8.6591,-8.6518,-8.5783,-8.6591,-8.6518,-8.582,-8.6664,-8.7031,-8.7105,-8.7876,-8.8683,-8.9455,-9.0298,-9.1106,-9.1803,-9.1803,-9.1803,-9.1803,0.0,0.0,0.0,0.0,0.0,0.0,0.0,0.0,0.0,0.0,0.0,0.0,0.0,0.0,0.0,0.0,0.0,0.0,0.0,0.0,0.0,0.0,0.0,0.0,0.0,0.0,0.0,0.0,0.0,0.0,0.0,0.0,0.0,0.0,-8.1093,-8.1145,-8.1184,-8.1122,0.0,0.0,-8.1208,-8.0716,0.0,0.0,0.0,0.0,0.0,-7.9954,-8.0182,0.0,-8.0869,-8.1093,0.0,0.0,0.0,0.0,0.0,0.0,-8.1093,0.0,0.0,0.0,0.0,0.0,0.0,0.0,0.0,0.0,0.0,0.0,0.0,0.0,0.0,0.0,0.0,0.0,0.0,0.0,0.0,0.0,0.0,0.0,0.0,0.0,-7.6929,0.0,-7.6974,-7.7273,-7.7273,-7.753,-7.8148,-7.9213,-7.9617,-8.0938,-8.3398,-8.4205,-8.5013,-8.5783,-8.5453,-8.5159,-8.4939,-8.5159,-8.5453,-8.582,-8.6664,-8.7325,-8.7876,-8.8096,-8.8683,-8.9455,-9.0298,-9.1106,-9.1803,-9.1803,-9.1803,-9.1877,0.0,0.0,0.0,0.0,0.0,0.0,0.0,0.0,0.0,0.0,0.0,0.0,0.0,0.0,0.0,0.0,0.0,0.0,0.0,0.0,0.0,0.0,0.0,0.0,0.0,0.0,0.0,0.0,0.0,0.0,0.0,0.0,0.0,0.0,0.0,0.0,0.0,0.0,0.0,0.0,-8.0822,0.0,0.0,-7.9447,-7.8962,0.0,0.0,0.0,-7.9747,-8.0008,-8.0573,0.0,0.0,0.0,0.0,0.0,0.0,0.0,0.0,0.0,0.0,0.0,0.0,0.0,-7.8477,-7.84,0.0,0.0,0.0,0.0,0.0,0.0,0.0,0.0,0.0,0.0,0.0,0.0,0.0,0.0,0.0,0.0,0.0,-7.7504,-7.7685,-7.7057,-7.7451,-7.7747,-7.7818,-7.7494,-7.7855,-7.9066,-7.9543,-8.0645,-8.2406,-8.3875,-8.4682,-8.4792,-8.5343,-8.5416,-8.5123,-8.5453,-8.5857,-8.6334,-8.6811,-8.7472,-8.8243,-8.8573,-8.9197,-9.0005,-9.0812,-9.14,-9.1803,-9.1803,-9.1803,-9.1913,0.0,0.0,0.0,0.0,0.0,0.0,0.0,0.0,0.0,0.0,0.0,0.0,0.0,0.0,0.0,0.0,0.0,0.0,0.0,0.0,0.0,0.0,0.0,0.0,0.0,0.0,0.0,0.0,0.0,0.0,0.0,0.0,0.0,0.0,0.0,0.0,0.0,0.0,0.0,-8.1061,-8.0463,-7.9806,0.0,0.0,-7.796,-7.7396,-7.8072,-7.8678,-7.9313,-7.9969,-8.0608,0.0,0.0,0.0,0.0,0.0,-8.1093,0.0,0.0,0.0,0.0,0.0,0.0,0.0,-7.7977,-7.7438,-7.6976,0.0,0.0,0.0,0.0,0.0,0.0,0.0,0.0,0.0,0.0,0.0,0.0,0.0,0.0,0.0,-7.817,-7.8822,-7.8972,-7.8213,-7.819,-7.8265,-7.8437,-7.7818,-7.8148,-7.9617,-7.9895,-8.0373,-8.1122,-8.3533,-8.4268,-8.3434,-8.5673,-8.6371,-8.5673,-8.6407,-8.6848,-8.6995,-8.6995,-8.7509,-8.839,-8.9124,-8.9895,-9.0702,-9.1473,-9.1803,-9.1803,-9.1803,-9.184,-9.206,0.0,0.0,0.0,0.0,0.0,0.0,0.0,0.0,0.0,0.0,0.0,0.0,0.0,0.0,0.0,0.0,0.0,0.0,0.0,0.0,0.0,0.0,0.0,0.0,0.0,0.0,0.0,0.0,0.0,0.0,0.0,0.0,0.0,0.0,0.0,0.0,0.0,0.0,0.0,-8.1093,-8.0959,0.0,-7.9198,-7.9058,-7.8325,-7.7396,-7.8072,-7.8678,-7.938,-8.0537,-8.0991,-8.1093,0.0,0.0,0.0,0.0,0.0,0.0,0.0,0.0,0.0,0.0,0.0,0.0,-7.8707,-7.8246,-7.7977,0.0,0.0,0.0,0.0,0.0,0.0,0.0,0.0,0.0,0.0,0.0,0.0,0.0,0.0,0.0,-7.8847,-7.9454,-7.9204,-7.7472,-7.7419,-7.753,-7.7561,-7.8075,-7.8516,-7.8809,-8.0622,-8.1696,-8.1966,-8.4256,-8.4737,-8.3434,-8.4535,-8.4976,-8.4829,-8.5013,-8.5783,-8.6995,-8.6995,-8.7839,-8.9197,-8.9344,-8.9895,-9.0702,-9.1473,-9.1803,-9.1803,-9.1803,-9.2244,-9.2978,0.0,0.0,0.0,0.0,0.0,0.0,0.0,0.0,0.0,0.0,0.0,0.0,0.0,0.0,0.0,0.0,0.0,0.0,0.0,0.0,0.0,0.0,0.0,0.0,0.0,0.0,0.0,0.0,0.0,0.0,0.0,0.0,0.0,0.0,0.0,0.0,0.0,0.0,-8.1093,-8.1077,-8.0733,0.0,-7.96,-7.9313,-7.8791,-7.8261,-7.8628,-7.9128,-7.9765,-8.0409,-8.0608,0.0,0.0,-8.0608,-8.0643,0.0,-8.1093,-8.1093,0.0,0.0,0.0,-8.1093,0.0,0.0,0.0,-7.8169,-7.7553,0.0,0.0,0.0,0.0,0.0,0.0,0.0,0.0,0.0,0.0,0.0,0.0,0.0,0.0,0.0,-8.0068,-8.034,-7.9933,-7.8277,-7.7624,-7.7273,-7.7273,-7.8148,-7.8738,-7.9009,-8.0637,-8.1673,-8.2079,-8.4114,-8.4336,-8.2847,-8.4829,-8.538,-8.4646,-8.5453,-8.6481,-8.7619,-8.7619,-8.85,-9.0005,-9.0005,-9.0482,-9.1253,-9.1657,-9.1803,-9.184,-9.2281,-9.2721,-9.3272,0.0,0.0,0.0,0.0,0.0,0.0,0.0,0.0,0.0,0.0,0.0,0.0,0.0,0.0,0.0,0.0,0.0,0.0,0.0,0.0,0.0,0.0,0.0,-8.1016,0.0,0.0,0.0,0.0,0.0,0.0,0.0,0.0,0.0,0.0,0.0,0.0,0.0,0.0,0.0,-8.1061,0.0,-8.0201,-8.0028,-7.9556,-7.9313,-7.9221,-7.9335,-7.9685,-8.0125,-8.0125,-8.0008,-7.9929,-7.9929,-8.0008,0.0,0.0,0.0,0.0,0.0,0.0,0.0,0.0,0.0,-8.0669,0.0,0.0,0.0,0.0,0.0,0.0,0.0,0.0,0.0,0.0,0.0,0.0,0.0,0.0,0.0,0.0,0.0,0.0,-8.0862,-8.0795,-8.0296,-7.9267,-7.8035,-7.7273,-7.7273,-7.8266,-7.9002,-7.953,-8.0704,-8.1666,-8.2251,-8.3952,-8.4077,-8.27,-8.5453,-8.6077,-8.4866,-8.6334,-8.7435,-8.8206,-8.8353,-8.9271,-9.0592,-9.0592,-9.1069,-9.1803,-9.1803,-9.1913,-9.2134,-9.2831,-9.3308,-9.3749,0.0,0.0,0.0,0.0,0.0,0.0,0.0,0.0,0.0,0.0,0.0,0.0,0.0,0.0,0.0,0.0,0.0,0.0,-8.0939,0.0,0.0,0.0,0.0,0.0,-7.9977,0.0,0.0,0.0,0.0,0.0,0.0,0.0,0.0,0.0,-8.1054,0.0,0.0,0.0,-8.1093,0.0,-8.1007,-8.0626,0.0,-8.0008,-7.9663,-7.9267,-7.9827,-8.0028,-8.0125,0.0,-7.9727,-7.9313,0.0,-7.9663,-8.0125,0.0,0.0,0.0,0.0,0.0,0.0,0.0,-8.1093,0.0,0.0,0.0,-7.9246,-7.8246,0.0,0.0,0.0,0.0,0.0,0.0,0.0,0.0,0.0,0.0,0.0,0.0,0.0,0.0,0.0,-7.9647,-7.9358,-7.9221,-7.8035,-7.7273,-7.7273,-7.8623,-7.9517,-7.9768,-8.1659,-8.2855,-8.3268,-8.4719,-8.5096,-8.4352,-8.5416,-8.582,-8.5673,-8.6591,-8.7435,-8.8243,-8.8977,-8.9784,-9.0592,-9.0592,-9.1069,-9.1803,-9.1803,-9.2281,-9.2978,-9.3051,-9.4006,-9.5254,0.0,0.0,0.0,0.0,0.0,0.0,0.0,0.0,0.0,0.0,0.0,0.0,0.0,0.0,0.0,0.0,0.0,-7.9208,0.0,0.0,0.0,0.0,0.0,0.0,0.0,0.0,0.0,0.0,-8.1093,0.0,0.0,0.0,0.0,0.0,-8.0862,0.0,-8.04,0.0,-8.1093,0.0,0.0,0.0,0.0,-8.066,-8.0499,-8.0353,-8.0591,-8.066,-8.0573,0.0,-7.9403,0.0,0.0,0.0,0.0,0.0,0.0,0.0,0.0,0.0,0.0,0.0,0.0,0.0,-8.0631,0.0,-7.9708,0.0,0.0,0.0,0.0,0.0,0.0,0.0,0.0,0.0,0.0,0.0,0.0,0.0,0.0,0.0,0.0,0.0,0.0,-7.9221,-7.8405,-7.771,-7.7304,-7.8786,-8.0126,-8.1052,-8.2423,-8.3685,-8.4688,-8.5826,-8.582,-8.4609,-8.6371,-8.6958,-8.6518,-8.7325,-8.839,-8.9601,-8.9968,-9.0555,-9.1289,-9.1289,-9.1803,-9.2537,-9.2537,-9.2794,-9.3198,-9.4153,-9.5217,-9.6282,0.0,0.0,0.0,0.0,0.0,0.0,0.0,0.0,0.0,0.0,0.0,0.0,-8.0708,-8.0516,0.0,0.0,-7.9592,-7.9554,0.0,0.0,-7.9977,0.0,0.0,0.0,0.0,0.0,0.0,0.0,0.0,0.0,0.0,0.0,0.0,0.0,0.0,-8.0746,-8.0208,0.0,0.0,-8.1093,-8.1093,-8.1093,-8.1093,-8.1093,-8.0975,-8.0855,-8.1007,-8.0788,-8.0201,-7.9447,-7.8962,0.0,-7.8666,0.0,0.0,0.0,0.0,0.0,-8.0767,0.0,0.0,0.0,0.0,0.0,0.0,0.0,0.0,0.0,0.0,0.0,0.0,0.0,0.0,0.0,0.0,0.0,0.0,0.0,0.0,0.0,0.0,0.0,0.0,0.0,0.0,-7.9469,-7.8729,-7.81,-7.7599,-7.8927,-8.0415,-8.1923,-8.2887,-8.4188,-8.5916,-8.666,-8.6407,-8.527,-8.7472,-8.8133,-8.7362,-8.839,-8.9491,-9.0629,-9.0849,-9.1253,-9.1803,-9.206,-9.2537,-9.3161,-9.3602,-9.3896,-9.4226,-9.5401,-9.6355,-9.7126,-7.7169,-7.7938,0.0,0.0,0.0,0.0,0.0,0.0,0.0,0.0,0.0,0.0,0.0,0.0,0.0,0.0,0.0,-7.89,-7.9746,0.0,-7.9438,0.0,0.0,-8.0708,0.0,0.0,0.0,0.0,0.0,0.0,0.0,0.0,0.0,0.0,0.0,-8.1093,-8.1054,-8.1093,-8.1093,-8.1093,-8.1093,-8.1093,-8.1093,0.0,-8.0716,-8.0201,-8.0871,0.0,0.0,-7.901,-7.8368,-7.7365,-7.7365,0.0,0.0,0.0,0.0,0.0,0.0,0.0,0.0,-8.0943,0.0,0.0,0.0,0.0,-8.0277,0.0,0.0,0.0,0.0,0.0,0.0,0.0,0.0,0.0,0.0,0.0,0.0,0.0,0.0,0.0,0.0,0.0,-8.0067,-8.0048,-7.9,-7.8309,-7.8282,-7.9037,-8.0283,-8.1941,-8.2714,-8.4323,-8.6833,-8.6955,-8.6995,-8.6958,-8.861,-8.894,-8.8206,-8.9821,-9.0555,-9.0629,-9.1436,-9.1767,-9.1877,-9.2721,-9.3088,-9.3272,-9.4813,-9.5914,-9.6575,-9.6649,-9.7163,-9.797,-7.6284,-7.6669,-7.6938,0.0,0.0,0.0,0.0,-7.7746,0.0,0.0,-8.1708,0.0,0.0,-8.3708,-8.3208,0.0,0.0,-8.09,-8.0669,-8.0131,0.0,0.0,0.0,-8.0977,0.0,0.0,0.0,0.0,0.0,0.0,0.0,0.0,0.0,0.0,0.0,-8.1093,0.0,0.0,0.0,0.0,0.0,-8.1093,-8.1093,0.0,-8.066,-8.0182,-8.0855,-8.0409,-7.9513,-7.9744,-7.9513,-7.9137,-7.9137,-7.9034,-7.8962,-7.9358,-7.9358,-7.9244,-7.9447,-7.9513,-7.9556,-7.9785,0.0,0.0,0.0,0.0,0.0,0.0,0.0,0.0,0.0,0.0,0.0,0.0,0.0,0.0,0.0,0.0,0.0,0.0,0.0,0.0,0.0,0.0,0.0,-8.0106,-7.8806,-7.8104,-7.8299,-7.9208,-8.0652,-8.2724,-8.4075,-8.5909,-8.8323,-8.897,-8.9044,-8.8525,-8.9661,-9.0078,-8.9821,-9.0372,-9.0886,-9.14,-9.1693,-9.1803,-9.1877,-9.2758,-9.3418,-9.4006,-9.507,-9.6318,-9.7419,-9.6906,-9.7566,-9.8668,-7.6399,-7.6476,-7.6553,-7.6784,0.0,0.0,0.0,0.0,0.0,0.0,-8.3516,0.0,-8.594,0.0,-8.5555,0.0,-8.3247,-8.2285,-8.117,-8.0554,0.0,-8.0631,-8.0939,0.0,0.0,0.0,0.0,0.0,0.0,-8.1093,0.0,0.0,0.0,0.0,0.0,0.0,0.0,0.0,-8.1093,0.0,0.0,-8.1093,0.0,0.0,-8.066,-8.0182,-8.0855,-8.0555,-7.9827,-8.0008,-7.9949,-7.9806,-7.9806,-7.9513,-7.9244,-7.9403,-7.9175,-7.8865,-7.8865,-7.8865,-7.8914,-7.9152,-7.9198,0.0,-7.9198,0.0,-7.8938,0.0,0.0,0.0,0.0,0.0,0.0,0.0,0.0,0.0,0.0,0.0,0.0,0.0,0.0,0.0,0.0,0.0,-8.0059,-7.9563,-7.8808,-7.8295,-7.8153,-7.9202,-8.0947,-8.3485,-8.4918,-8.6836,-8.9438,-9.0143,-9.0088,-8.9305,-9.0463,-9.0886,-9.0629,-9.0922,-9.1326,-9.1803,-9.1803,-9.1803,-9.1877,-9.3051,-9.3822,-9.4446,-9.5804,-9.6979,-9.7823,-9.7309,-9.797,-9.8998,-7.74,-7.7284,-7.7053,-7.6207,-7.6746,0.0,0.0,0.0,-8.1785,0.0,-8.4516,-8.5401,-8.6247,-8.6363,-8.6017,-8.517,-8.4286,-8.3093,-8.14,-8.1208,0.0,0.0,-8.0669,-8.1093,-8.1093,0.0,0.0,0.0,0.0,0.0,0.0,0.0,0.0,0.0,-8.1093,0.0,-8.1093,-8.1093,-8.1093,-8.1093,-8.1093,-8.1093,-8.1093,-8.1093,-8.0716,-8.022,-8.0871,-8.0296,-7.9335,-7.9949,-7.9785,-7.929,-7.929,-7.9267,-7.9128,-7.8536,-7.8336,-7.8309,-7.8255,-7.8255,-7.8379,-7.8962,-7.9105,-7.9105,0.0,0.0,-7.8405,0.0,0.0,0.0,0.0,0.0,0.0,0.0,0.0,0.0,0.0,0.0,0.0,0.0,0.0,0.0,0.0,-8.0554,-8.0323,-7.8746,-7.8899,-7.8745,0.0,-7.9129,-8.1177,-8.4214,-8.516,-8.7136,-9.0176,-9.0428,-9.0187,-8.9479,-9.105,-9.14,-9.0702,-9.1436,-9.1803,-9.1803,-9.1803,-9.1803,-9.1987,-9.3639,-9.4299,-9.4593,-9.6906,-9.7823,-9.7823,-9.7897,-9.8374,-9.8888,-7.6515,-7.6861,-7.7207,-7.7015,-7.713,-7.7784,0.0,0.0,0.0,0.0,-8.6786,-8.8286,-8.9748,-8.9902,-8.9325,-8.7863,-8.694,0.0,0.0,0.0,0.0,-8.167,-8.1285,-8.1093,-8.1093,-8.1093,0.0,-8.1093,0.0,0.0,-8.1093,0.0,0.0,0.0,0.0,0.0,-8.1093,-8.1093,-8.1093,-8.1093,-8.1093,-8.1093,-8.1093,0.0,-8.0991,-8.0871,-8.1045,-8.0573,-7.9969,-8.0626,-8.0733,-8.0608,-8.0608,-8.0277,-7.9727,-7.9152,-7.8653,-7.8173,-7.768,-7.757,-7.7563,-7.7731,-7.7789,-7.7789,-7.7789,-7.768,0.0,0.0,0.0,0.0,0.0,0.0,0.0,0.0,0.0,0.0,0.0,0.0,0.0,0.0,0.0,0.0,-8.0785,-7.9785,-7.9515,-8.0362,-7.8519,-7.7817,-7.8821,0.0,-8.1177,-8.4214,-8.5662,-8.8208,-9.1855,-9.1471,-9.1471,-9.1884,-9.1838,-9.1693,-9.151,-9.1693,-9.1803,-9.1803,-9.1803,-9.217,-9.2868,-9.3859,-9.4666,-9.5327,-9.6539,-9.7016,-9.7089,-9.7676,-9.764,-9.7309,-7.7246,-7.7784,-7.84,-7.84,0.0,0.0,-8.0746,-8.2016,0.0,-8.5363,-8.7401,0.0,-8.9479,-9.021,-9.0094,-8.8786,-8.7555,0.0,-8.4439,0.0,0.0,-8.1785,-8.1323,-8.1093,-8.1093,-8.1093,0.0,-8.1093,0.0,0.0,-8.1093,0.0,0.0,0.0,0.0,-8.1093,0.0,-8.1093,-8.1093,-8.1093,-8.1093,-8.1093,0.0,-8.1093,-8.1093,-8.1093,-8.1093,-8.0855,-8.0608,-8.0975,-8.1093,-8.1093,-8.1093,-8.0855,-8.0427,-7.9785,-7.9358,-7.8938,-7.8288,-7.8136,-7.809,-7.7789,-7.7739,-7.7651,-7.7365,-7.7273,-7.7273,-7.7273,-7.7599,-7.796,-7.8255,-7.8853,0.0,0.0,0.0,0.0,0.0,0.0,0.0,0.0,0.0,0.0,-8.1093,-8.0208,-7.963,-7.9548,-7.849,-7.7928,0.0,0.0,-8.1485,-8.4201,-8.6848,-8.9451,-9.1988,-9.2429,-9.2551,-9.2321,-9.1958,-9.1803,-9.1803,-9.1803,-9.1803,-9.1803,-9.2207,-9.2648,-9.3198,-9.4336,-9.529,-9.6098,-9.6906,-9.7199,-9.7236,-9.7346,-9.7089,-9.6759,0.0,0.0,0.0,0.0,0.0,0.0,0.0,-8.3632,0.0,-8.5286,0.0,-8.8748,-8.7979,-8.921,-8.971,-8.8786,0.0,-8.5747,-8.4016,-8.3016,-8.217,-8.1477,-8.1208,-8.1093,-8.1093,-8.1093,-8.1093,0.0,0.0,0.0,0.0,0.0,0.0,0.0,0.0,0.0,0.0,-8.1093,-8.1093,-8.1093,-8.1093,-8.1093,-8.1093,-8.1093,-8.1093,-8.1093,-8.1093,-8.1093,-8.1093,-8.1093,-8.1093,-8.1093,-8.1093,-8.1093,-8.0975,-8.0315,-8.0125,-7.9969,-7.9358,-7.9198,-7.9058,-7.8458,-7.8309,-7.8118,-7.745,-7.7273,-7.7273,-7.7273,-7.7384,-7.7664,-7.8221,0.0,0.0,0.0,0.0,0.0,0.0,0.0,0.0,0.0,0.0,0.0,-8.1093,-8.1016,-8.0109,-7.8084,-7.8625,0.0,0.0,0.0,-8.1922,-8.439,-8.8083,-9.0634,-9.1887,-9.3238,-9.333,-9.2178,-9.2012,-9.2024,-9.2134,-9.2134,-9.2134,-9.217,-9.2941,-9.3308,-9.3529,-9.4923,-9.5988,-9.6759,-9.7456,-9.7787,-9.7823,-9.7126,-9.6906,-9.7089,0.0,0.0,0.0,0.0,0.0,-8.3824,-8.5209,-8.6786,-8.7863,-8.8017,-8.9633,-9.071,-9.0556,-9.0787,-9.0364,-8.8825,-8.8402,0.0,0.0,0.0,0.0,-8.317,-8.1823,-8.1093,-8.1093,-8.1093,-8.1093,0.0,-8.1093,-8.1093,0.0,0.0,0.0,0.0,0.0,0.0,-8.1093,-8.1093,0.0,-8.1093,-8.1093,-8.1093,-8.1093,-8.1093,-8.1093,-8.1093,-8.1093,-8.1093,-8.1093,-8.1093,-8.1093,-8.1093,-8.1093,-8.1093,-8.0975,-8.0315,-8.0125,-7.9969,-7.9358,-7.9198,-7.9058,-7.8458,-7.8309,-7.8118,-7.745,-7.7273,-7.7273,-7.7273,-7.7892,-7.84,-7.8517,-7.8969,0.0,0.0,0.0,0.0,0.0,0.0,0.0,0.0,0.0,0.0,0.0,0.0,0.0,0.0,0.0,0.0,0.0,0.0,-8.2184,0.0,-8.7801,-9.0863,0.0,0.0,-9.3602,-9.4743,-9.345,-9.3235,-9.3859,-9.3859,-9.3859,-9.3859,-9.4006,-9.4483,-9.5107,-9.5401,-9.5988,-9.6722,-9.6869,-9.7309,-9.786,-9.775,-9.8117,-9.8594,0.0,0.0,0.0,0.0,0.0,0.0,0.0,-8.8902,-8.9517,-8.8209,-8.9133,-8.971,-8.9286,-9.0017,-9.0017,-8.8786,-8.8286,-8.7094,-8.4939,-8.4055,-8.3208,-8.2324,-8.1516,-8.1093,-8.1093,-8.1093,-8.1093,-8.1093,-8.1093,-8.1093,0.0,0.0,0.0,0.0,0.0,-8.1093,0.0,0.0,0.0,-8.1093,-8.1093,-8.1093,-8.1093,-8.1093,-8.1093,-8.1093,-8.1093,-8.1093,-8.1093,-8.1093,-8.1093,-8.1093,-8.1093,-8.1093,-8.1045,-8.0716,-8.0626,-8.0573,-8.0259,-8.0201,-7.9967,-7.8986,-7.8779,-7.8499,-7.754,-7.7273,-7.7273,-7.7273,-7.8002,-7.8589,-7.8589,-7.8823,-7.8837,-7.8312,0.0,0.0,0.0,0.0,0.0,0.0,0.0,0.0,0.0,0.0,0.0,0.0,0.0,0.0,0.0,0.0,-8.1956,0.0,0.0,0.0,-9.3303,0.0,-9.3774,-9.4214,-9.3455,-9.3529,-9.4299,-9.4299,-9.4299,-9.4336,-9.518,-9.5547,-9.5584,-9.6392,-9.6722,-9.6722,-9.7163,-9.7566,-9.7897,-9.7897,-9.8668,-9.9622,0.0,-8.1246,0.0,0.0,-8.5132,-8.6594,-8.8402,-9.0133,-9.0479,-8.8479,-8.8825,-8.8979,-8.8286,-8.921,-8.9594,-8.8748,-8.7902,-8.6478,-8.4247,-8.3978,-8.3208,-8.1708,-8.1439,-8.1285,-8.1093,-8.1093,-8.1016,0.0,-8.1016,-8.09,-8.0554,0.0,0.0,0.0,0.0,0.0,0.0,-8.1093,-8.1093,-8.1093,-8.1093,-8.1093,-8.1093,-8.1093,-8.1093,-8.1093,-8.1093,-8.1093,-8.1093,-8.1093,-8.1093,-8.1093,-8.1093,-8.1093,-8.1093,-8.1093,-8.1093,-8.1093,-8.1093,-8.1093,-8.0838,-7.9701,-7.929,-7.8889,-7.776,-7.7396,-7.7273,-7.7273,-7.8002,-7.8662,-7.8809,-7.8699,-7.8369,-7.7708,0.0,0.0,0.0,0.0,0.0,0.0,0.0,0.0,0.0,0.0,0.0,0.0,0.0,-7.8766,-7.776,-7.9491,-8.1683,0.0,0.0,-9.0424,-9.1689,0.0,-9.3823,-9.3602,-9.3455,-9.3859,-9.4813,-9.4997,-9.507,-9.5144,-9.6575,-9.6759,-9.6098,-9.7383,-9.753,-9.7016,-9.764,-9.8117,-9.8411,-9.8411,-9.9328,-10.0393,0.0,0.0,0.0,0.0,0.0,-8.9286,-8.8748,-9.0133,-9.1095,-9.0864,-9.0941,-9.0941,-9.0864,-9.0287,-8.9594,-8.8748,-8.7902,-8.6978,-8.594,-8.517,-8.4362,-8.3401,-8.2593,-8.1862,-8.1131,-8.1093,-8.0708,0.0,-8.0708,-8.0285,-7.8784,0.0,0.0,0.0,0.0,-8.1093,-8.1093,-8.1093,-8.1093,-8.1093,-8.1093,-8.1093,-8.1093,-8.1093,-8.1093,-8.1093,-8.1093,-8.1093,-8.1093,-8.1093,-8.1093,-8.1093,-8.1093,-8.1093,-8.1093,-8.1093,-8.1093,-8.1093,-8.1093,-8.1093,-8.0943,-8.0182,-7.96,-7.9034,-7.8352,-7.7739,-7.7273,-7.7273,-7.8002,-7.8809,-7.9543,-7.9066,-7.8552,-7.8479,0.0,0.0,0.0,0.0,0.0,0.0,0.0,0.0,0.0,-8.0182,0.0,0.0,-7.8865,-7.9152,-7.9034,-7.9944,-8.1637,-8.4154,-8.7285,-8.9818,-9.1683,-9.2615,-9.3826,-9.529,-9.4556,-9.4997,-9.6502,-9.7236,-9.7566,-9.7603,-9.8484,-9.8411,-9.7676,-9.7823,-9.786,-9.7787,-9.786,-9.8778,-10.0099,-10.0099,-10.0613,-10.12,0.0,0.0,-8.5478,-8.7325,0.0,-8.8979,-9.071,-9.1556,-9.2133,-9.2633,-9.1825,-9.121,-9.121,-9.0441,-8.9594,-8.8748,-8.7902,-8.6824,-8.5478,-8.5093,-8.4286,-8.2862,-8.2477,-8.19,-8.1131,-8.1093,-8.0939,0.0,0.0,-8.0746,-8.0092,-8.0785,-8.1093,-8.1093,-8.1093,-8.1093,-8.1093,-8.1093,-8.1093,-8.1093,-8.1093,-8.1093,-8.1093,-8.1093,-8.1093,-8.1093,-8.1093,-8.1093,-8.1093,-8.1093,-8.1093,-8.1093,-8.1093,-8.1093,-8.1093,-8.1093,-8.1093,-8.1093,-8.1093,-8.1093,-8.0959,-8.0277,-7.9642,-7.9034,-7.8432,-7.7797,-7.7273,-7.7273,-7.8002,-7.8846,-7.9653,-7.9543,-7.914,-7.8662,-7.8699,0.0,0.0,0.0,0.0,0.0,0.0,0.0,0.0,0.0,0.0,0.0,0.0,-7.8653,-7.8653,-7.9349,-8.1085,-8.4066,0.0,-8.856,-9.0913,-9.2353,-9.3636,-9.4777,-9.5437,-9.6318,-9.7456,-9.8264,-9.8888,-9.9292,-9.8668,-9.8484,-9.8594,-9.808,-9.7897,-9.7933,-9.8411,-9.9328,-10.0283,-10.0283,-10.0796,-10.131,-8.6748,-8.6594,-8.7017,-8.9094,-8.9325,-8.9979,-9.2172,-9.271,-9.3056,-9.3633,-9.2672,-9.1864,-9.1595,-9.0787,-8.9863,-8.8786,-8.7902,-8.6786,-8.5363,-8.5247,-8.4593,-8.3131,-8.2824,0.0,-8.1477,-8.1208,-8.0977,-8.0708,-8.0977,-8.0823,-8.0323,-8.0592,-8.0862,-8.1093,-8.1093,-8.1093,-8.1093,-8.1093,-8.1093,-8.1093,-8.1093,-8.1093,-8.1093,-8.1093,-8.1093,-8.1093,-8.1093,-8.1093,-8.1093,-8.1093,-8.1093,-8.1093,-8.1093,-8.1093,-8.1093,-8.1093,-8.1093,-8.1093,-8.1093,-8.1093,-8.0975,-8.0499,-7.9908,-7.9313,-7.8704,-7.8063,-7.7614,-7.7665,-7.8369,-7.9176,-7.9984,-7.9947,-7.969,-7.936,-7.958,0.0,0.0,-7.8369,0.0,0.0,-7.9004,-7.9198,-7.9198,0.0,0.0,0.0,0.0,0.0,-7.8804,-7.9284,-8.1065,0.0,0.0,0.0,-9.0764,-9.2307,-9.3749,-9.4997,-9.6171,-9.7236,-9.8264,-9.9108,-9.9769,-10.0209,-9.9328,-9.8998,-9.9071,-9.8741,-9.8594,-9.8668,-9.9475,-10.0209,-10.0686,-10.0907,-10.109,-10.098,-8.8325,-8.9286,-9.0133,-9.1018,-9.2518,-9.3364,-9.2633,-9.3172,-9.3672,-9.371,-9.3672,-9.3364,-9.2556,-9.171,-9.0517,-8.8825,-8.7902,-8.7017,-8.6132,-8.6094,-8.5709,0.0,0.0,-8.317,-8.2285,-8.1516,-8.0669,-7.9823,0.0,0.0,-7.8554,-7.94,-8.0285,-8.1093,-8.1093,-8.1093,-8.1093,-8.1093,-8.1093,-8.1093,-8.1093,-8.1093,-8.1093,-8.1093,-8.1093,-8.1093,-8.1093,-8.1093,-8.1093,-8.1093,-8.1093,-8.1093,-8.1093,-8.1093,-8.1093,-8.1093,-8.1093,-8.1093,-8.1093,-8.1093,-8.1093,-8.1093,-8.0591,-7.9929,-7.9335,-7.8729,-7.8351,-7.8523,-7.9213,-8.0021,-8.0828,-8.0351,-8.0057,-8.0828,-8.0314,0.0,0.0,0.0,0.0,0.0,-7.9341,-7.9198,-7.9198,-7.9198,0.0,0.0,0.0,0.0,0.0,-8.0331,-8.19,-8.4965,-8.6779,0.0,-9.1646,-9.2637,-9.4299,-9.6685,-9.6685,-9.753,-9.9108,-9.9916,-10.0283,-10.0319,-10.109,-10.0576,-9.9181,-9.9952,-10.0283,-10.0393,-10.12,-10.1494,-10.1604,-10.2412,-10.1714,-10.0209,-9.0287,-9.0594,-9.0864,-9.1171,-9.1633,-9.2287,-9.3172,-9.3518,-9.4134,-9.5326,-9.548,-9.4903,-9.348,-9.2595,-9.1171,0.0,-8.844,-8.7671,0.0,-8.5593,-8.4901,-8.4055,-8.317,-8.2324,-8.1516,-8.1246,-8.0977,-8.0708,0.0,-8.0823,-8.0285,-8.0554,-8.0823,-8.1093,-8.1093,-8.1093,-8.1093,-8.1093,-8.1093,-8.1093,-8.1093,-8.1093,-8.1093,-8.1093,-8.1093,-8.1093,-8.1093,-8.1093,-8.1093,-8.1093,-8.1093,-8.1093,-8.1093,-8.1093,-8.1208,-8.1747,-8.1516,-8.1208,-8.1785,-8.1516,-8.1093,-8.1093,-8.0608,-7.9949,-7.9335,-7.8853,-7.8675,-7.9276,-7.9617,-8.0021,-8.0865,-8.0791,-8.0718,-8.0975,-8.1232,0.0,-7.9213,0.0,0.0,0.0,-7.87,-7.8865,-7.8007,-7.9191,0.0,0.0,0.0,0.0,0.0,-8.1769,-8.3519,-8.6581,-8.7914,0.0,-9.2362,-9.3951,-9.5401,-9.6722,-9.8924,-10.0503,-10.1604,-10.1788,-10.1604,-10.109,-10.0796,-10.0393,-9.9952,-10.0209,-10.0283,-10.0393,-10.12,-10.1494,-10.1494,-10.1788,-10.1604,-10.098,-9.121,-9.121,-9.1287,-9.1633,-9.1941,-9.2595,-9.398,-9.448,-9.5057,-9.6172,-9.6288,-9.5634,-9.3903,-9.3249,-9.1902,-8.9363,-8.8863,-8.8094,-8.6671,-8.5824,-8.4978,-8.4132,-8.3247,-8.2401,-8.1554,-8.1246,-8.1093,-8.1093,-8.1093,-8.1093,-8.1093,-8.1093,-8.1093,-8.1093,-8.1093,-8.1093,-8.1093,-8.1093,-8.1093,-8.1093,-8.1093,-8.1093,-8.1093,-8.1093,-8.1093,-8.1093,-8.1093,-8.1093,-8.1093,-8.1093,-8.1093,-8.1093,-8.1093,-8.1323,-8.1631,-8.2131,-8.1939,-8.167,-8.217,-8.217,-8.19,-8.1246,-8.0997,-8.0679,-7.9834,-7.9514,-7.9547,-8.0121,-8.0498,-8.0828,-8.1342,-8.1452,-8.1452,-8.1452,-8.1636,-8.1232,-7.9727,0.0,0.0,0.0,0.0,-7.8999,-7.8211,-7.9834,-8.0443,0.0,0.0,0.0,0.0,0.0,-8.5325,-8.8731,-8.9854,-9.1881,-9.4999,-9.5608,-9.6795,-9.8521,-10.0796,-10.2191,-10.2705,-10.2412,-10.1788,-10.109,-10.12,-10.1017,-10.0796,-10.1384,-10.1494,-10.131,-10.2081,-10.2008,-10.1494,-10.1788,-10.1604,-10.098,-9.121,-9.1248,-9.1518,-9.2287,-9.3133,-9.398,-9.4788,-9.5634,-9.6249,-9.6288,-9.6288,-9.5672,-9.398,-9.3749,-9.271,-9.0287,-8.9248,-8.8363,-8.7555,-8.6555,-8.567,-8.4939,-8.4016,-8.3093,-8.2247,-8.1477,-8.1093,-8.1093,-8.1093,-8.1093,-8.1093,-8.1093,-8.1093,-8.1093,-8.1093,-8.1093,-8.1093,-8.1093,-8.1093,-8.1093,-8.1093,-8.1093,-8.1093,-8.1093,-8.1093,-8.1093,-8.1093,-8.1093,-8.1093,-8.1093,-8.1093,-8.1093,-8.117,-8.1708,-8.2324,-8.2362,-8.2401,-8.2401,-8.2439,-8.3016,-8.3208,-8.1593,-8.1731,-8.1943,-8.0817,-8.0716,-8.0951,-8.1192,-8.1815,-8.237,-8.237,-8.237,-8.2333,-8.2296,-8.1599,-8.1048,-8.0938,-7.958,0.0,0.0,0.0,-7.9585,-7.9605,-8.1047,-8.1986,0.0,0.0,0.0,0.0,0.0,-8.7504,-9.1269,-9.2399,-9.4848,-9.8836,-9.7533,-9.8447,-10.1604,-10.2301,-10.2705,-10.2705,-10.1898,-10.12,-10.0576,-10.2008,-10.2301,-10.1788,-10.3182,-10.3403,-10.2815,-10.3476,-10.2779,-10.1604,-10.2301,-10.1714,-10.0393,-9.121,-9.1748,-9.2056,-9.1595,-9.271,-9.3749,-9.398,-9.4749,-9.5557,-9.6211,-9.6288,-9.5903,-9.4788,-9.4095,-9.321,-9.1979,-8.994,-8.8594,-8.8402,-8.6363,-8.5093,-8.4901,-8.3439,-8.2208,-8.14,-8.1208,-8.1093,-8.1093,-8.1093,-8.1093,-8.1093,-8.1093,-8.1093,-8.1093,-8.1093,-8.1093,-8.1093,-8.1093,-8.1093,-8.1093,-8.1093,-8.1093,-8.1093,-8.1093,-8.1093,-8.1093,-8.1093,-8.1093,-8.1093,-8.1093,-8.1093,-8.1208,-8.1823,-8.2131,-8.2439,-8.3093,-8.3285,-8.3439,-8.4093,-8.3939,-8.3362,-8.2285,-8.1807,-8.1691,-8.2005,-8.2347,-8.2797,-8.3448,-8.3851,-8.4022,-8.4022,-8.4022,-8.3838,-8.3214,-8.2443,-8.1489,-8.0241,-7.9213,-7.8589,0.0,-7.9652,-8.0477,-8.0622,-8.1956,-8.2898,0.0,0.0,-8.5805,-8.7223,-9.0114,-9.2102,-9.3095,-9.4741,-9.6649,-9.8874,-9.8682,-9.9842,-10.2412,-10.2595,-10.2705,-10.2705,-10.2522,-10.2301,-10.2191,-10.2522,-10.2889,-10.3293,-10.3109,-10.2889,-10.2705,-10.2191,-10.1788,-10.1494,-10.1677,-10.1494,-10.12,-9.2287,-9.271,-9.3018,-9.2941,-9.3672,-9.4441,-9.4826,-9.5288,-9.5749,-9.6249,-9.6288,-9.5826,-9.4518,-9.398,-9.321,-9.2018,-9.0287,-8.9248,-8.9248,-8.7594,-8.6286,-8.5478,-8.4555,-8.3285,-8.167,-8.1631,-8.1477,-8.1093,-8.1093,-8.1093,-8.1093,-8.1093,-8.1093,-8.1093,-8.1093,-8.1285,-8.1631,-8.1246,-8.1323,-8.1631,-8.1246,-8.1093,-8.1093,-8.1093,-8.1093,-8.1131,-8.1516,-8.14,-8.1208,-8.1977,-8.1977,-8.1785,-8.2631,-8.317,-8.3593,-8.4055,-8.417,-8.4286,-8.4786,-8.4824,-8.4555,-8.3708,-8.3218,-8.3122,-8.3635,-8.397,-8.4356,-8.4849,-8.4754,-8.4609,-8.4609,-8.4609,-8.4205,-8.303,-8.2186,-8.1085,-7.947,-7.8883,-7.8736,-7.9103,-8.0801,-8.2111,-8.2586,-8.4341,-8.5143,-8.4532,-8.6523,0.0,-8.8997,-9.2481,-9.4615,-9.4878,-9.6653,-9.8395,-10.0092,-10.05,-10.142,-10.2705,-10.2705,-10.2889,-10.3219,-10.2889,-10.2889,-10.3293,-10.3623,-10.3806,-10.388,-10.3806,-10.3403,-10.2705,-10.2191,-10.1788,-10.1494,-10.1494,-10.1494,-10.1494,-9.3518,-9.371,-9.3903,-9.4518,-9.4826,-9.5211,-9.5826,-9.6134,-9.6288,-9.6288,-9.6288,-9.5672,-9.4057,-9.3903,-9.321,-9.1556,-9.0825,-9.0364,-9.0133,-8.921,-8.7979,-8.6363,-8.617,-8.4901,-8.2362,-8.217,-8.1785,-8.1093,-8.1093,-8.1093,-8.1093,-8.1093,-8.1093,-8.1093,-8.1246,-8.167,-8.2247,-8.1708,-8.1785,-8.2247,-8.1554,-8.1208,-8.1093,-8.1093,-8.117,-8.1362,-8.2054,-8.1939,-8.1708,-8.3131,-8.3093,-8.2631,-8.3516,-8.4286,-8.4939,-8.5209,-8.5286,-8.5286,-8.5286,-8.5786,-8.6132,-8.544,-8.5286,-8.5301,-8.5417,-8.5712,-8.5965,-8.6059,-8.5584,-8.514,-8.514,-8.4966,-8.4242,-8.2627,-8.1599,-8.0461,-7.8809,-7.8589,-7.8993,-8.0021,-8.2186,-8.3985,-8.5049,-8.6995,-8.7729,-8.6591,-8.9146,-9.0838,-9.096,-9.4009,-9.602,-9.668,-9.8263,-9.9873,-10.1494,-10.2114,-10.2412,-10.2522,-10.2595,-10.2999,-10.3513,-10.3109,-10.3293,-10.3917,-10.4798,-10.4724,-10.41,-10.4724,-10.4027,-10.2705,-10.2595,-10.2081,-10.1494,-10.1604,-10.1604,-10.1494,-9.3518,-9.371,-9.3518,-9.2979,-9.4057,-9.4788,-9.421,-9.5365,-9.6288,-9.6288,-9.6288,-9.5903,-9.4903,-9.4788,-9.4095,-9.2441,-9.2787,-9.2518,-9.1095,-8.9556,-8.8248,-8.7248,-8.6478,-8.4901,-8.2362,-8.1631,-8.1246,-8.1093,-8.1093,-8.1093,-8.1093,-8.1093,-8.1093,-8.1131,-8.1823,-8.217,-8.2324,-8.2939,-8.2862,-8.2285,-8.217,-8.1708,-8.1093,-8.1093,-8.1516,-8.2131,-8.2247,-8.267,-8.3247,-8.3516,-8.3516,-8.3555,-8.4439,-8.4786,-8.517,-8.6594,-8.7017,-8.7017,-8.7017,-8.7094,-8.7171,-8.7055,-8.7017,-8.7038,-8.7047,-8.7693,-8.8378,-8.8364,-8.7937,-8.7551,-8.7551,-8.6467,-8.5086,-8.3471,-8.1966,-8.0461,-7.8809,-7.8589,-7.9396,-8.1562,-8.3361,-8.527,-8.7435,-8.7986,-8.8647,-8.9784,-9.0845,-9.2088,-9.3513,-9.5939,-9.7674,-9.8567,-9.9557,-10.0492,-10.1476,-10.0913,-10.098,-10.1677,-10.2412,-10.2412,-10.1898,-10.3182,-10.3806,-10.3917,-10.4798,-10.5018,-10.4908,-10.432,-10.3513,-10.2595,-10.1971,-10.1604,-10.1567,-10.2301,-10.2081,-10.1604,-9.4249,-9.4788,-9.498,-9.4595,-9.5172,-9.5557,-9.5172,-9.5788,-9.6288,-9.6288,-9.6288,-9.598,-9.5095,-9.498,-9.448,-9.3249,-9.348,-9.3172,-9.1979,-9.1171,-8.994,-8.8171,-8.7709,-8.6094,-8.3054,-8.1747,-8.1093,-8.1093,-8.1093,-8.1323,-8.1747,-8.1747,-8.2016,-8.2439,-8.2824,-8.3247,-8.3708,-8.3632,-8.3362,-8.2939,-8.2477,-8.1823,-8.1131,-8.1593,-8.1977,-8.2401,-8.3362,-8.367,-8.3747,-8.4632,-8.467,-8.4439,-8.5286,-8.5555,-8.5786,-8.7055,-8.7709,-8.8094,-8.8094,-8.8094,-8.8094,-8.8094,-8.844,-8.8863,-8.9325,-8.986,-9.0383,-9.0841,-9.0125,-8.9489,-8.9892,-8.8398,-8.6835,-8.6037,-8.3503,-8.1379,-8.0645,-8.0534,-8.1269,-8.3251,-8.5673,-8.7802,-8.9344,-9.0298,-9.0959,-9.1216,-9.2742,-9.4023,-9.4808,-9.6246,-9.7884,-9.9621,-10.0499,-10.1084,-10.1534,-10.109,-10.1384,-10.2191,-10.2522,-10.2999,-10.3513,-10.421,-10.4504,-10.4614,-10.4908,-10.4614,-10.3806,-10.3403,-10.2815,-10.2008,-10.1604,-10.1788,-10.2118,-10.2081,-10.2081,-10.2118,-9.4864,-9.5518,-9.6019,-9.6019,-9.6019,-9.6019,-9.6019,-9.6172,-9.6288,-9.6288,-9.6288,-9.598,-9.5095,-9.5172,-9.4864,-9.3787,-9.3903,-9.3633,-9.2826,-9.2595,-9.1364,-8.8786,-8.8132,-8.6594,-8.3939,-8.2439,-8.167,-8.167,-8.167,-8.2093,-8.2901,-8.2708,-8.3054,-8.3901,-8.4093,-8.4439,-8.4901,-8.4593,-8.4247,-8.3824,-8.317,-8.2401,-8.1747,-8.2362,-8.2747,-8.3093,-8.4439,-8.4593,-8.4362,-8.567,-8.5709,-8.5324,-8.6132,-8.6401,-8.6594,-8.7671,-8.8748,-8.9479,-8.9094,-8.9402,-8.9748,-8.9363,-9.0056,-9.0902,-9.1402,-9.1721,-9.2126,-9.2776,-9.1913,-9.1189,-9.1747,-8.9997,-8.8343,-8.786,-8.497,-8.27,-8.2517,-8.2627,-8.3434,-8.5233,-8.7949,-9.0078,-9.1106,-9.2501,-9.3088,-9.2427,-9.4237,-9.5417,-9.5406,-9.6352,-9.8027,-10.0495,-10.1008,-10.1274,-10.1494,-10.1494,-10.1898,-10.2705,-10.3109,-10.3806,-10.4798,-10.5201,-10.5201,-10.4798,-10.5018,-10.421,-10.2705,-10.2705,-10.2191,-10.1494,-10.1494,-10.1898,-10.2412,-10.1898,-10.2081,-10.2301,-9.498,-9.5057,-9.5095,-9.5095,-9.5095,-9.5095,-9.5095,-9.5788,-9.6288,-9.6288,-9.6288,-9.598,-9.5095,-9.5711,-9.5518,-9.3864,-9.4441,-9.4518,-9.3672,-9.2903,-9.1364,-8.8786,-8.644,-8.5055,-8.4824,-8.3901,-8.3401,-8.3401,-8.3401,-8.3862,-8.4709,-8.3862,-8.3978,-8.4863,-8.5593,-8.5555,-8.5016,-8.6478,-8.6209,-8.4786,-8.4747,-8.4209,-8.3401,-8.3478,-8.4016,-8.4747,-8.4863,-8.5363,-8.594,-8.6055,-8.6055,-8.617,-8.7017,-8.7286,-8.7632,-8.9248,-9.0902,-9.1864,-9.0248,-9.1518,-9.2941,-9.1402,-9.221,-9.3249,-9.2556,-9.3,-9.354,-9.3617,-9.3034,-9.2543,-9.2588,-9.0761,-8.871,-8.7235,-8.5562,-8.4168,-8.3434,-8.3948,-8.5306,-8.7655,-8.9454,-9.1143,-9.2758,-9.3712,-9.4189,-9.4116,-9.4906,-9.5415,-9.5478,-9.6905,-9.8866,-10.1323,-10.069,-10.0686,-10.1494,-10.1494,-10.1898,-10.2705,-10.421,-10.4614,-10.399,-10.5605,-10.5495,-10.399,-10.4798,-10.421,-10.2705,-10.2705,-10.2191,-10.1494,-10.1494,-10.1494,-10.1677,-10.2412,-10.2191,-10.1567,-9.4864,-9.5441,-9.5826,-9.5826,-9.5826,-9.5826,-9.5826,-9.6095,-9.6288,-9.6288,-9.6288,-9.6172,-9.5826,-9.6095,-9.5826,-9.4595,-9.4788,-9.4634,-9.3749,-9.3403,-9.2095,-8.9556,-8.7517,-8.6209,-8.567,-8.5324,-8.4901,-8.4401,-8.4901,-8.5593,-8.644,-8.6094,-8.6401,-8.7248,-8.7594,-8.7248,-8.6478,-8.7132,-8.644,-8.4901,-8.4901,-8.4362,-8.3708,-8.4747,-8.5055,-8.5132,-8.6671,-8.7094,-8.6978,-8.7517,-8.7709,-8.7786,-8.8094,-8.8209,-8.8517,-9.021,-9.2287,-9.3787,-9.2595,-9.2941,-9.3557,-9.2903,-9.321,-9.3749,-9.398,-9.4287,-9.4672,-9.5211,-9.4763,-9.4408,-9.4824,-9.2655,-9.09,-9.132,-8.843,-8.6334,-8.6997,-8.6958,-8.7545,-8.9454,-9.0665,-9.1987,-9.3675,-9.4116,-9.452,-9.4997,-9.6166,-9.6936,-9.6981,-9.8942,-10.0491,-10.1497,-10.1677,-10.1898,-10.2191,-10.2191,-10.2595,-10.3476,-10.4614,-10.5201,-10.5495,-10.5495,-10.4981,-10.388,-10.3696,-10.2999,-10.1971,-10.1971,-10.1788,-10.1494,-10.1494,-10.1788,-10.2191,-10.1494,-10.131,-10.1384,-9.4941,-9.5711,-9.6288,-9.6288,-9.6288,-9.6288,-9.6288,-9.6288,-9.6288,-9.6288,-9.6288,-9.6288,-9.6288,-9.6288,-9.6057,-9.5441,-9.5172,-9.4864,-9.4557,-9.4249,-9.2979,-9.0441,-8.894,-8.7786,-8.694,-8.6901,-8.6632,-8.6094,-8.6632,-8.7363,-8.8171,-8.794,-8.8248,-8.9094,-8.9094,-8.8594,-8.7825,-8.8094,-8.7363,-8.6094,-8.6094,-8.5747,-8.5324,-8.6478,-8.6555,-8.6324,-8.8055,-8.8325,-8.794,-8.8786,-8.9094,-8.9171,-8.971,-9.0056,-9.0556,-9.1979,-9.3633,-9.4903,-9.4595,-9.4518,-9.4364,-9.3826,-9.4095,-9.4595,-9.4903,-9.5211,-9.5557,-9.6172,-9.5882,-9.57,-9.6213,-9.4372,-9.3003,-9.3584,-9.1171,-8.9366,-8.9745,-8.9956,-9.0394,-9.1289,-9.2317,-9.3418,-9.4556,-9.4923,-9.529,-9.5841,-9.71,-9.817,-9.8964,-10.0576,-10.1788,-10.2595,-10.2705,-10.2815,-10.3109,-10.2815,-10.3109,-10.388,-10.4504,-10.5201,-10.6009,-10.5091,-10.432,-10.3513,-10.2925,-10.2191,-10.1494,-10.1494,-10.1384,-10.109,-10.1384,-10.1494,-10.1494,-10.0613,-10.0503,-10.0613,-9.5172,-9.5711,-9.6288,-9.6288,-9.6288,-9.6288,-9.6288,-9.6288,-9.6288,-9.6288,-9.6288,-9.6288,-9.6288,-9.6288,-9.6288,-9.6288,-9.548,-9.5365,-9.6249,-9.548,-9.3864,-9.1325,-9.0402,-8.9556,-8.8748,-8.8709,-8.8709,-8.8709,-8.8709,-8.9133,-8.9902,-8.9094,-8.9133,-8.9902,-8.9902,-8.9479,-8.8748,-8.9556,-8.944,-8.8709,-8.8709,-8.8709,-8.8709,-8.8709,-8.8709,-8.8709,-8.8709,-8.8709,-8.8863,-8.9671,-8.994,-9.0248,-9.1979,-9.3056,-9.3864,-9.4749,-9.498,-9.5211,-9.6057,-9.6288,-9.5865,-9.4134,-9.5018,-9.6057,-9.5211,-9.5672,-9.6326,-9.6326,-9.6326,-9.6326,-9.6326,-9.57,-9.4672,-9.3105,-9.3526,-9.3318,-9.095,-9.2684,-9.392,-9.3235,-9.452,-9.5474,-9.5511,-9.6245,-9.6685,-9.6722,-9.7456,-9.8961,-10.1384,-10.1494,-10.2595,-10.5018,-10.3513,-10.3109,-10.388,-10.3109,-10.3109,-10.388,-10.388,-10.432,-10.5091,-10.4284,-10.3476,-10.2705,-10.2705,-10.2191,-10.1494,-10.1494,-10.098,-10.0393,-10.12,-10.0503,-9.9218,-9.9989,-9.9805,-9.9108,-9.5711,-9.6134,-9.6288,-9.6288,-9.6288,-9.6288,-9.6288,-9.6415,-9.6491,-9.6491,-9.6491,-9.6491,-9.6491,-9.6369,-9.6057,-9.5441,-9.5134,-9.5095,-9.5365,-9.5711,-9.5288,-9.3941,-9.2479,-9.1325,-9.0479,-9.0441,-9.0133,-8.9556,-9.0133,-9.0594,-9.0825,-9.0556,-9.0594,-9.0825,-9.0825,-9.0325,-8.9556,-8.9825,-8.944,-8.8748,-8.9325,-8.9556,-8.9594,-9.021,-9.0441,-9.0441,-9.0441,-9.0864,-9.1402,-9.1633,-9.2095,-9.2672,-9.3172,-9.3941,-9.4634,-9.4903,-9.5441,-9.598,-9.6249,-9.6288,-9.6172,-9.5634,-9.5942,-9.6249,-9.598,-9.6557,-9.7134,-9.7134,-9.7134,-9.7326,-9.7942,-9.6555,-9.5291,-9.5375,-9.4699,-9.411,-9.3995,-9.409,-9.4528,-9.5449,-9.5036,-9.5107,-9.6245,-9.6061,-9.6318,-9.7456,-9.9328,-10.0503,-10.0613,-10.2815,-10.41,-10.4284,-10.3806,-10.3696,-10.388,-10.3109,-10.2815,-10.3109,-10.3586,-10.399,-10.421,-10.3403,-10.2925,-10.2705,-10.2081,-10.1677,-10.1494,-10.0907,-10.0503,-10.0283,-9.9952,-9.9879,-9.9916,-9.9585,-9.9328,-9.9108,-9.6095,-9.6288,-9.6288,-9.6288,-9.6288,-9.6288,-9.6288,-9.649,-9.6588,-9.6588,-9.6588,-9.6588,-9.6588,-9.6415,-9.6095,-9.5557,-9.5518,-9.5518,-9.5518,-9.6019,-9.6057,-9.5518,-9.421,-9.3095,-9.221,-9.2172,-9.1787,-9.0941,-9.1479,-9.1556,-9.121,-9.121,-9.1364,-9.171,-9.1364,-9.1287,-9.1364,-9.1056,-9.0825,-9.071,-9.121,-9.1402,-9.1479,-9.1979,-9.2172,-9.2172,-9.2172,-9.2518,-9.3018,-9.3364,-9.4018,-9.4711,-9.4711,-9.5095,-9.5518,-9.5518,-9.5903,-9.6288,-9.6288,-9.6288,-9.6365,-9.6711,-9.6557,-9.6365,-9.6711,-9.7134,-9.7596,-9.7942,-9.8019,-9.8173,-9.8711,-9.7402,-9.6359,-9.6878,-9.646,-9.5901,-9.5464,-9.5774,-9.6116,-9.6159,-9.5626,-9.5768,-9.7052,-9.6722,-9.7236,-9.9181,-10.0393,-10.12,-10.1677,-10.3293,-10.41,-10.388,-10.3293,-10.2999,-10.2999,-10.1788,-10.1788,-10.2705,-10.2889,-10.3109,-10.3403,-10.2595,-10.2191,-10.2191,-10.1677,-10.1274,-10.098,-10.0503,-9.9916,-9.9328,-9.9181,-9.9218,-9.9328,-9.9181,-9.9108,-9.9145,-9.6288,-9.6288,-9.6288,-9.6288,-9.6288,-9.6288,-9.6288,-9.6483,-9.6643,-9.6643,-9.6669,-9.6669,-9.6643,-9.6442,-9.6325,-9.6288,-9.6288,-9.6288,-9.6288,-9.6288,-9.6288,-9.6288,-9.5518,-9.4749,-9.3941,-9.3787,-9.3326,-9.2595,-9.2595,-9.221,-9.1441,-9.1441,-9.1864,-9.2556,-9.1787,-9.2287,-9.3633,-9.2903,-9.3018,-9.371,-9.3787,-9.3826,-9.3826,-9.3826,-9.3864,-9.3903,-9.3749,-9.3787,-9.4057,-9.4826,-9.5634,-9.6288,-9.6288,-9.6288,-9.6288,-9.6288,-9.6288,-9.6288,-9.6288,-9.6288,-9.648,-9.7288,-9.6942,-9.6634,-9.7442,-9.7673,-9.7942,-9.875,-9.8904,-9.8942,-9.9019,-9.8282,-9.7758,-9.7882,-9.8468,-9.8173,-9.5987,-9.7546,-9.8098,-9.6068,-9.6393,-9.7126,-9.7933,-9.8117,-9.9108,-10.12,-10.0907,-10.1494,-10.3586,-10.3109,-10.3109,-10.3806,-10.2301,-10.1494,-10.1494,-9.9916,-10.0209,-10.2412,-10.1604,-10.1677,-10.2485,-10.1677,-10.1384,-10.1494,-10.1494,-10.098,-10.0283,-10.0209,-9.9292,-9.797,-9.8631,-9.8521,-9.808,-9.8851,-9.9108,-9.9181,-9.6172,-9.6288,-9.6288,-9.6288,-9.6288,-9.6288,-9.6288,-9.6627,-9.6924,-9.6924,-9.7099,-9.7138,-9.6954,-9.6682,-9.649,-9.6325,-9.6288,-9.6288,-9.6288,-9.6288,-9.6288,-9.6288,-9.6134,-9.5942,-9.5749,-9.4403,-9.3595,-9.3441,-9.3441,-9.3326,-9.3172,-9.3172,-9.3249,-9.3441,-9.3249,-9.3364,-9.3672,-9.3518,-9.3518,-9.3749,-9.4441,-9.4711,-9.4711,-9.4711,-9.5134,-9.5557,-9.4172,-9.4595,-9.5788,-9.5942,-9.6134,-9.6288,-9.6288,-9.6288,-9.6288,-9.6288,-9.6288,-9.6288,-9.6288,-9.6288,-9.648,-9.7288,-9.7365,-9.7442,-9.8327,-9.9058,-9.9596,-9.9788,-9.9827,-9.9981,-10.0596,-9.9606,-9.8826,-9.9536,-9.9231,-9.8745,-9.8287,-9.8061,-9.8057,-9.8293,-9.7912,-9.797,-9.8778,-9.9989,-10.0686,-10.0576,-10.2118,-10.2779,-10.2081,-10.2999,-10.3403,-10.2999,-10.2008,-10.1494,-10.1494,-9.9916,-9.9365,-9.9879,-9.9695,-9.9989,-10.0796,-10.0613,-10.0907,-10.1494,-10.1494,-10.098,-10.0283,-9.9622,-9.8778,-9.786,-9.7383,-9.7897,-9.8851,-9.9035,-9.9108,-9.9035,-9.6211,-9.6288,-9.6288,-9.6288,-9.6288,-9.6288,-9.6288,-9.6695,-9.7012,-9.7012,-9.724,-9.7316,-9.7039,-9.6757,-9.6506,-9.6325,-9.6288,-9.6288,-9.6288,-9.6288,-9.6288,-9.6288,-9.6288,-9.6288,-9.6288,-9.5403,-9.4749,-9.4326,-9.4326,-9.4095,-9.371,-9.371,-9.3903,-9.4287,-9.3903,-9.4172,-9.4903,-9.448,-9.4557,-9.498,-9.5441,-9.5634,-9.5634,-9.5634,-9.5903,-9.6172,-9.5288,-9.5518,-9.6288,-9.6288,-9.6288,-9.6288,-9.6288,-9.6557,-9.6788,-9.6403,-9.6865,-9.7403,-9.698,-9.7173,-9.7673,-9.8519,-9.875,-9.8865,-9.9327,-9.975,-10.0212,-10.0596,-10.0712,-10.0789,-10.1212,-10.0295,-9.9784,-10.0617,-9.9992,-9.9404,-9.9046,-9.894,-9.8792,-9.8535,-9.8462,-9.8778,-9.9585,-10.0796,-10.1494,-10.142,-10.2301,-10.2595,-10.2081,-10.2485,-10.2595,-10.2118,-10.131,-10.0907,-10.0907,-9.9695,-9.9108,-9.9108,-9.9512,-10.0099,-10.0907,-10.0907,-10.109,-10.1494,-10.109,-10.0503,-9.9659,-9.8851,-9.8043,-9.7273,-9.6869,-9.7456,-9.8521,-9.8521,-9.8778,-9.8998,-9.6338,-9.6304,-9.6288,-9.6288,-9.6288,-9.6288,-9.6288,-9.6641,-9.6964,-9.7003,-9.724,-9.7316,-9.7039,-9.6746,-9.6467,-9.6325,-9.6288,-9.6288,-9.6288,-9.6288,-9.6288,-9.6288,-9.6288,-9.6288,-9.6288,-9.6288,-9.5942,-9.5211,-9.5211,-9.4826,-9.4134,-9.4134,-9.4518,-9.5172,-9.448,-9.4941,-9.6249,-9.5518,-9.5634,-9.6288,-9.6288,-9.6288,-9.6288,-9.6288,-9.6288,-9.6288,-9.6288,-9.6288,-9.6288,-9.6288,-9.6288,-9.6326,-9.648,-9.698,-9.7403,-9.6865,-9.7711,-9.8634,-9.7904,-9.825,-9.9019,-9.9865,-10.0096,-10.0096,-10.0289,-10.0289,-10.0481,-10.1404,-10.152,-10.152,-10.152,-10.111,-10.0895,-10.121,-10.1012,-10.0506,-9.9349,-9.9883,-9.9873,-9.8459,-9.9035,-9.9769,-10.0393,-10.12,-10.1898,-10.2485,-10.2008,-10.1898,-10.2485,-10.1898,-10.1494,-10.1494,-10.0686,-10.0283,-10.0283,-9.9512,-9.9181,-9.9328,-9.9989,-10.0613,-10.1274,-10.1274,-10.1274,-10.1274,-10.0613,-9.9769,-9.8851,-9.8154,-9.7419,-9.6685,-9.6685,-9.7199,-9.7897,-9.7897,-9.83,-9.8778,-9.6556,-9.6415,-9.6288,-9.6288,-9.6288,-9.6288,-9.6288,-9.6499,-9.6732,-9.6984,-9.724,-9.7316,-9.7039,-9.6595,-9.6322,-9.6288,-9.6288,-9.6288,-9.6288,-9.6288,-9.6288,-9.6288,-9.6288,-9.6288,-9.6288,-9.6288,-9.6249,-9.6134,-9.6134,-9.6057,-9.5942,-9.5942,-9.6019,-9.6134,-9.6019,-9.6095,-9.6288,-9.6172,-9.6211,-9.6288,-9.6288,-9.6288,-9.6288,-9.6288,-9.6288,-9.6288,-9.6288,-9.6288,-9.6288,-9.6288,-9.6288,-9.6442,-9.7134,-9.7403,-9.7634,-9.825,-9.8634,-9.875,-9.8673,-9.8711,-9.9019,-9.9865,-10.0096,-10.0289,-10.1019,-10.1096,-10.1404,-10.2212,-10.2404,-10.2404,-10.2404,-10.2998,-10.2901,-10.15,-10.2499,-10.2608,-10.0388,-10.0789,-10.0993,-10.0078,-10.0686,-10.12,-10.1274,-10.2081,-10.2301,-10.1677,-10.2191,-10.2301,-10.1677,-10.1567,-10.1494,-10.1494,-10.0686,-10.0283,-10.0283,-9.9512,-9.9475,-10.0099,-10.0209,-10.0393,-10.0503,-10.0503,-10.0503,-10.0503,-10.0319,-9.9438,-9.8043,-9.7933,-9.7419,-9.6685,-9.6685,-9.7199,-9.7897,-9.7897,-9.797,-9.7933,-9.6629,-9.6536,-9.6448,-9.6325,-9.6288,-9.6288,-9.6288,-9.649,-9.6721,-9.6974,-9.724,-9.7316,-9.7039,-9.659,-9.6288,-9.6288,-9.6288,-9.6288,-9.6288,-9.6288,-9.6288,-9.6288,-9.6749,-9.698,-9.698,-9.7442,-9.7711,-9.7711,-9.6749,-9.6519,-9.698,-9.6519,-9.6288,-9.6288,-9.6288,-9.6288,-9.6288,-9.6288,-9.6288,-9.6288,-9.6288,-9.6288,-9.6288,-9.6288,-9.6288,-9.6365,-9.6826,-9.698,-9.7057,-9.7519,-9.7711,-9.775,-9.8096,-9.8557,-9.8942,-9.8827,-9.9442,-10.0096,-9.9635,-9.9865,-10.0289,-10.0712,-10.0789,-10.0904,-10.1212,-10.1289,-10.152,-10.2404,-10.2597,-10.2712,-10.3212,-10.3597,-10.3597,-10.2904,-10.3405,-10.3404,-10.1786,-10.1911,-10.1893,-10.111,-10.1274,-10.1494,-10.1494,-10.1788,-10.1898,-10.1494,-10.1788,-10.1898,-10.1494,-10.1494,-10.1494,-10.1494,-10.12,-10.098,-10.098,-10.0613,-10.0613,-10.098,-10.0503,-10.0503,-10.098,-10.0503,-10.0283,-10.0209,-9.9328,-9.8557,-9.786,-9.7419,-9.7016,-9.6685,-9.6685,-9.6906,-9.7236,-9.7236,-9.7236,-9.7163]},{"header":{"parameterUnit":"m.s-1","parameterCategory":1,"la1":30.6,"la2":28.766,"lo1":-90.7593,"lo2":-88.6598,"dx":0.0162,"dy":0.0183,"nx":116,"ny":114,"refTime":"2023-02-13T06:00:00:Z","depth":0,"parameterNumber":3,"parameterNumberName":"V-component_of_WINDS"},"data":[0.0,0.0,0.0,0.0,0.0,0.0,0.0,0.0,0.0,0.0,0.0,0.0,0.0,0.0,0.0,0.0,0.0,0.0,0.0,0.0,0.0,0.0,0.0,0.0,0.0,0.0,0.0,0.0,0.0,0.0,0.0,0.0,0.0,0.0,0.0,0.0,0.0,0.0,0.0,0.0,0.0,0.0,0.0,0.0,0.0,0.0,0.0,0.0,0.0,0.0,0.0,0.0,0.0,0.0,0.0,0.0,0.0,0.0,0.0,0.0,0.0,0.0,0.0,0.0,0.0,0.0,0.0,0.0,0.0,0.0,0.0,0.0,0.0,0.0,0.0,0.0,0.0,0.0,0.0,0.0,0.0,0.0,0.0,0.0,0.0,0.0,0.0,0.0,0.0,0.0,0.0,0.0,0.0,0.0,0.0,0.0,0.0,0.0,0.0,0.0,0.0,0.0,0.0,0.0,0.0,0.0,0.0,0.0,0.0,0.0,0.0,0.0,0.0,0.0,0.0,0.0,0.0,0.0,0.0,0.0,0.0,0.0,0.0,0.0,0.0,0.0,0.0,0.0,0.0,0.0,0.0,0.0,0.0,0.0,0.0,0.0,0.0,0.0,0.0,0.0,0.0,0.0,0.0,0.0,0.0,0.0,0.0,0.0,0.0,0.0,0.0,0.0,0.0,0.0,0.0,0.0,0.0,0.0,0.0,0.0,0.0,0.0,0.0,0.0,0.0,0.0,0.0,0.0,0.0,0.0,0.0,0.0,0.0,0.0,0.0,0.0,0.0,0.0,0.0,0.0,0.0,0.0,0.0,0.0,0.0,0.0,0.0,0.0,0.0,0.0,0.0,0.0,0.0,0.0,0.0,0.0,0.0,0.0,0.0,0.0,0.0,0.0,0.0,0.0,0.0,0.0,0.0,0.0,0.0,0.0,0.0,0.0,0.0,0.0,0.0,0.0,0.0,0.0,0.0,0.0,0.0,0.0,0.0,0.0,0.0,0.0,0.0,0.0,0.0,0.0,0.0,0.0,0.0,0.0,0.0,0.0,0.0,0.0,0.0,0.0,0.0,0.0,0.0,0.0,0.0,0.0,0.0,0.0,0.0,0.0,0.0,0.0,0.0,0.0,0.0,0.0,0.0,0.0,0.0,0.0,0.0,0.0,0.0,0.0,0.0,0.0,0.0,0.0,0.0,0.0,0.0,0.0,0.0,0.0,0.0,0.0,0.0,0.0,0.0,0.0,0.0,0.0,0.0,0.0,0.0,0.0,0.0,0.0,0.0,0.0,0.0,0.0,0.0,0.0,0.0,0.0,0.0,0.0,0.0,0.0,0.0,0.0,0.0,0.0,0.0,0.0,0.0,0.0,0.0,0.0,0.0,0.0,0.0,0.0,0.0,0.0,0.0,0.0,0.0,0.0,0.0,0.0,0.0,0.0,0.0,0.0,0.0,0.0,0.0,0.0,0.0,0.0,0.0,0.0,0.0,0.0,0.0,0.0,0.0,0.0,0.0,0.0,0.0,0.0,0.0,0.0,0.0,0.0,0.0,0.0,0.0,0.0,0.0,0.0,0.0,0.0,0.0,0.0,0.0,0.0,0.0,0.0,0.0,0.0,0.0,0.0,0.0,0.0,0.0,0.0,0.0,0.0,0.0,0.0,0.0,0.0,0.0,0.0,0.0,0.0,0.0,0.0,0.0,0.0,0.0,0.0,0.0,0.0,0.0,0.0,0.0,0.0,0.0,0.0,0.0,0.0,0.0,0.0,0.0,0.0,0.0,0.0,0.0,0.0,0.0,0.0,0.0,0.0,0.0,0.0,0.0,0.0,0.0,0.0,0.0,0.0,0.0,0.0,0.0,0.0,0.0,0.0,0.0,0.0,0.0,0.0,0.0,0.0,0.0,0.0,0.0,0.0,0.0,0.0,0.0,0.0,0.0,0.0,0.0,0.0,0.0,0.0,0.0,0.0,0.0,0.0,0.0,0.0,0.0,0.0,0.0,0.0,0.0,0.0,0.0,0.0,0.0,0.0,0.0,0.0,0.0,0.0,0.0,0.0,0.0,0.0,0.0,0.0,0.0,0.0,0.0,0.0,0.0,0.0,0.0,0.0,0.0,0.0,0.0,0.0,0.0,0.0,0.0,0.0,0.0,0.0,0.0,0.0,0.0,0.0,0.0,0.0,0.0,0.0,0.0,0.0,0.0,0.0,0.0,0.0,0.0,0.0,0.0,0.0,0.0,0.0,0.0,0.0,0.0,0.0,0.0,0.0,0.0,0.0,0.0,0.0,0.0,0.0,0.0,0.0,0.0,0.0,0.0,0.0,0.0,0.0,0.0,0.0,0.0,0.0,0.0,0.0,0.0,0.0,0.0,0.0,0.0,0.0,0.0,0.0,0.0,0.0,0.0,0.0,0.0,0.0,0.0,0.0,0.0,0.0,0.0,0.0,0.0,0.0,0.0,0.0,0.0,0.0,0.0,0.0,0.0,0.0,0.0,0.0,0.0,0.0,0.0,0.0,0.0,0.0,0.0,0.0,0.0,0.0,0.0,0.0,0.0,0.0,0.0,0.0,0.0,0.0,0.0,0.0,0.0,0.0,0.0,0.0,0.0,0.0,0.0,0.0,0.0,0.0,0.0,0.0,0.0,0.0,0.0,0.0,0.0,0.0,0.0,0.0,0.0,0.0,0.0,0.0,0.0,0.0,0.0,0.0,0.0,0.0,0.0,0.0,0.0,0.0,0.0,0.0,0.0,0.0,0.0,0.0,0.0,0.0,0.0,0.0,0.0,0.0,0.0,0.0,0.0,0.0,0.0,0.0,0.0,0.0,0.0,0.0,0.0,0.0,0.0,0.0,0.0,0.0,0.0,0.0,0.0,0.0,0.0,0.0,0.0,0.0,0.0,0.0,0.0,0.0,0.0,0.0,0.0,0.0,0.0,0.0,0.0,0.0,0.0,0.0,0.0,0.0,0.0,0.0,0.0,0.0,0.0,0.0,0.0,0.0,0.0,0.0,0.0,0.0,0.0,0.0,0.0,0.0,0.0,0.0,0.0,0.0,0.0,0.0,0.0,0.0,0.0,0.0,0.0,0.0,0.0,0.0,0.0,0.0,0.0,0.0,0.0,0.0,0.0,0.0,0.0,0.0,0.0,0.0,0.0,0.0,0.0,0.0,0.0,0.0,0.0,0.0,0.0,0.0,0.0,0.0,0.0,0.0,0.0,0.0,0.0,0.0,0.0,0.0,0.0,0.0,0.0,0.0,0.0,0.0,0.0,0.0,0.0,0.0,0.0,0.0,0.0,0.0,0.0,0.0,0.0,0.0,0.0,0.0,0.0,0.0,0.0,0.0,0.0,0.0,0.0,0.0,0.0,0.0,0.0,0.0,0.0,0.0,0.0,0.0,0.0,0.0,0.0,0.0,0.0,0.0,0.0,0.0,0.0,0.0,0.0,0.0,0.0,0.0,0.0,0.0,0.0,0.0,0.0,0.0,0.0,0.0,0.0,0.0,0.0,0.0,0.0,0.0,0.0,0.0,0.0,0.0,0.0,0.0,0.0,0.0,0.0,0.0,0.0,0.0,0.0,0.0,0.0,0.0,0.0,0.0,0.0,0.0,0.0,0.0,0.0,0.0,0.0,0.0,0.0,0.0,0.0,0.0,0.0,0.0,0.0,0.0,0.0,0.0,0.0,0.0,0.0,0.0,0.0,0.0,0.0,0.0,0.0,0.0,0.0,0.0,0.0,0.0,0.0,0.0,0.0,0.0,0.0,0.0,0.0,0.0,0.0,0.0,0.0,0.0,0.0,0.0,0.0,0.0,0.0,0.0,0.0,0.0,0.0,0.0,0.0,0.0,0.0,0.0,0.0,0.0,0.0,0.0,0.0,0.0,0.0,0.0,0.0,0.0,0.0,0.0,0.0,0.0,0.0,0.0,0.0,0.0,0.0,0.0,0.0,0.0,0.0,0.0,0.0,0.0,0.0,0.0,0.0,0.0,0.0,0.0,0.0,0.0,0.0,0.0,0.0,0.0,0.0,0.0,0.0,0.0,0.0,0.0,0.0,0.0,0.0,0.0,0.0,0.0,0.0,0.0,0.0,0.0,0.0,0.0,0.0,0.0,0.0,0.0,0.0,0.0,0.0,0.0,0.0,0.0,0.0,0.0,0.0,0.0,0.0,0.0,0.0,0.0,0.0,0.0,0.0,0.0,0.0,0.0,0.0,0.0,0.0,0.0,0.0,0.0,0.0,0.0,0.0,0.0,0.0,0.0,0.0,0.0,0.0,0.0,0.0,0.0,0.0,0.0,0.0,0.0,0.0,0.0,0.0,0.0,0.0,0.0,0.0,0.0,0.0,0.0,0.0,0.0,0.0,0.0,0.0,0.0,0.0,0.0,0.0,0.0,0.0,0.0,0.0,0.0,0.0,0.0,0.0,0.0,0.0,0.0,0.0,0.0,0.0,0.0,0.0,0.0,0.0,0.0,0.0,0.0,0.0,0.0,0.0,0.0,0.0,0.0,0.0,0.0,0.0,0.0,0.0,0.0,0.0,0.0,0.0,0.0,0.0,0.0,0.0,0.0,0.0,0.0,0.0,0.0,0.0,0.0,0.0,0.0,0.0,0.0,0.0,0.0,0.0,0.0,0.0,0.0,0.0,0.0,0.0,0.0,0.0,0.0,0.0,0.0,0.0,0.0,0.0,0.0,0.0,0.0,0.0,0.0,0.0,0.0,0.0,0.0,0.0,0.0,0.0,0.0,0.0,0.0,0.0,0.0,0.0,0.0,0.0,0.0,0.0,0.0,0.0,0.0,0.0,0.0,0.0,0.0,0.0,0.0,0.0,0.0,0.0,0.0,0.0,0.0,0.0,0.0,0.0,0.0,0.0,0.0,0.0,0.0,0.0,0.0,0.0,0.0,0.0,0.0,0.0,0.0,0.0,0.0,0.0,0.0,0.0,0.0,0.0,0.0,0.0,0.0,0.0,0.0,0.0,0.0,0.0,0.0,0.0,0.0,0.0,0.0,0.0,0.0,0.0,0.0,0.0,0.0,0.0,0.0,0.0,0.0,0.0,0.0,0.0,0.0,0.0,0.0,0.0,0.0,0.0,0.0,0.0,0.0,0.0,0.0,0.0,0.0,0.0,0.0,0.0,0.0,0.0,0.0,0.0,0.0,0.0,0.0,0.0,0.0,0.0,0.0,0.0,0.0,0.0,0.0,0.0,0.0,0.0,0.0,0.0,0.0,0.0,0.0,0.0,0.0,0.0,0.0,0.0,0.0,0.0,0.0,0.0,0.0,0.0,0.0,0.0,0.0,0.0,0.0,0.0,0.0,0.0,0.0,0.0,0.0,0.0,0.0,0.0,0.0,0.0,0.0,0.0,0.0,0.0,0.0,0.0,0.0,0.0,0.0,0.0,0.0,0.0,0.0,0.0,0.0,0.0,0.0,0.0,0.0,0.0,0.0,0.0,0.0,0.0,0.0,0.0,0.0,0.0,0.0,0.0,0.0,0.0,0.0,0.0,0.0,0.0,0.0,0.0,0.0,0.0,0.0,0.0,0.0,0.0,0.0,0.0,0.0,0.0,0.0,0.0,0.0,0.0,0.0,0.0,0.0,0.0,0.0,0.0,0.0,0.0,0.0,0.0,0.0,0.0,0.0,0.0,0.0,0.0,0.0,0.0,0.0,0.0,0.0,0.0,0.0,0.0,0.0,0.0,0.0,0.0,0.0,0.0,0.0,0.0,0.0,0.0,0.0,0.0,0.0,0.0,0.0,0.0,0.0,0.0,0.0,0.0,0.0,0.0,0.0,0.0,0.0,0.0,0.0,0.0,0.0,0.0,0.0,0.0,0.0,0.0,0.0,0.0,0.0,0.0,0.0,0.0,0.0,0.0,0.0,0.0,0.0,0.0,0.0,0.0,0.0,0.0,0.0,0.0,0.0,0.0,0.0,0.0,0.0,0.0,0.0,0.0,0.0,0.0,0.0,0.0,0.0,0.0,0.0,0.0,0.0,0.0,0.0,0.0,0.0,0.0,0.0,0.0,0.0,0.0,0.0,0.0,0.0,0.0,0.0,0.0,0.0,0.0,0.0,0.0,0.0,0.0,0.0,2.8431,0.0,0.0,0.0,0.0,0.0,0.0,0.0,0.0,0.0,0.0,0.0,0.0,0.0,0.0,0.0,0.0,0.0,0.0,0.0,0.0,0.0,0.0,0.0,0.0,0.0,0.0,0.0,0.0,0.0,0.0,0.0,0.0,0.0,0.0,0.0,0.0,0.0,0.0,0.0,0.0,0.0,0.0,0.0,0.0,0.0,0.0,0.0,0.0,0.0,0.0,0.0,0.0,0.0,0.0,0.0,0.0,0.0,0.0,0.0,0.0,0.0,0.0,0.0,0.0,0.0,0.0,0.0,0.0,0.0,0.0,0.0,0.0,0.0,0.0,0.0,0.0,0.0,0.0,0.0,0.0,0.0,0.0,0.0,0.0,0.0,0.0,0.0,0.0,0.0,0.0,0.0,0.0,0.0,0.0,0.0,0.0,0.0,0.0,0.0,0.0,0.0,0.0,0.0,0.0,0.0,0.0,0.0,0.0,0.0,0.0,0.0,0.0,0.0,0.0,0.0,0.0,2.9377,0.0,0.0,0.0,0.0,0.0,0.0,0.0,0.0,0.0,0.0,0.0,0.0,0.0,0.0,0.0,0.0,0.0,0.0,0.0,0.0,0.0,0.0,0.0,0.0,0.0,0.0,0.0,0.0,0.0,0.0,0.0,0.0,0.0,0.0,0.0,0.0,0.0,0.0,0.0,0.0,0.0,0.0,0.0,0.0,0.0,0.0,0.0,0.0,0.0,0.0,0.0,0.0,0.0,0.0,0.0,0.0,0.0,0.0,0.0,0.0,0.0,0.0,0.0,0.0,0.0,0.0,0.0,0.0,0.0,0.0,0.0,0.0,0.0,0.0,0.0,0.0,0.0,0.0,0.0,0.0,0.0,0.0,0.0,0.0,0.0,0.0,0.0,0.0,0.0,0.0,0.0,0.0,0.0,0.0,0.0,0.0,0.0,0.0,0.0,0.0,0.0,0.0,0.0,0.0,0.0,0.0,0.0,0.0,3.1502,3.1748,3.1917,3.1917,3.2452,3.3375,3.2119,3.096,2.9934,2.9388,0.0,0.0,0.0,0.0,0.0,0.0,0.0,0.0,0.0,0.0,0.0,0.0,0.0,0.0,0.0,0.0,0.0,0.0,0.0,0.0,0.0,0.0,0.0,0.0,0.0,0.0,0.0,0.0,0.0,0.0,0.0,0.0,0.0,0.0,0.0,0.0,0.0,0.0,0.0,0.0,0.0,0.0,0.0,0.0,0.0,0.0,0.0,0.0,0.0,0.0,0.0,0.0,0.0,0.0,0.0,0.0,0.0,0.0,0.0,0.0,0.0,0.0,0.0,0.0,0.0,0.0,0.0,0.0,0.0,0.0,0.0,0.0,0.0,0.0,0.0,0.0,0.0,0.0,0.0,0.0,0.0,0.0,0.0,0.0,0.0,0.0,2.5197,2.5197,0.0,0.0,0.0,0.0,0.0,0.0,0.0,0.0,0.0,0.0,0.0,0.0,0.0,2.6829,2.8761,3.0403,3.1963,3.3393,3.507,3.5513,3.4863,3.4863,3.4941,3.5085,3.5218,0.0,3.1977,3.2263,0.0,0.0,0.0,0.0,0.0,0.0,0.0,0.0,0.0,0.0,0.0,0.0,0.0,0.0,0.0,0.0,0.0,0.0,0.0,0.0,0.0,0.0,0.0,0.0,0.0,0.0,0.0,0.0,0.0,0.0,0.0,0.0,0.0,0.0,0.0,0.0,0.0,0.0,0.0,0.0,0.0,0.0,0.0,0.0,0.0,0.0,0.0,0.0,0.0,0.0,0.0,0.0,0.0,0.0,0.0,0.0,0.0,0.0,0.0,0.0,0.0,0.0,0.0,0.0,0.0,0.0,0.0,0.0,0.0,0.0,0.0,0.0,0.0,0.0,0.0,0.0,0.0,0.0,0.0,0.0,0.0,0.0,0.0,0.0,0.0,2.5692,2.5692,2.5358,2.6132,2.656,0.0,0.0,0.0,0.0,0.0,0.0,0.0,0.0,0.0,2.6012,2.5972,2.7367,3.0308,3.0722,3.2604,3.576,3.641,3.6601,3.6465,3.6465,3.6465,3.6465,3.666,3.5981,3.4665,3.3554,3.249,3.1458,0.0,0.0,0.0,0.0,3.1425,3.134,0.0,0.0,0.0,0.0,0.0,0.0,0.0,0.0,0.0,0.0,0.0,0.0,0.0,0.0,0.0,0.0,0.0,0.0,0.0,0.0,0.0,0.0,0.0,0.0,0.0,0.0,0.0,0.0,0.0,0.0,0.0,0.0,0.0,0.0,0.0,0.0,0.0,0.0,0.0,0.0,0.0,0.0,0.0,0.0,0.0,0.0,0.0,0.0,0.0,0.0,0.0,0.0,0.0,0.0,0.0,0.0,0.0,0.0,0.0,0.0,0.0,0.0,0.0,0.0,0.0,0.0,0.0,0.0,0.0,0.0,0.0,0.0,0.0,0.0,0.0,0.0,0.0,2.5838,2.5919,2.5251,2.6346,2.6894,0.0,0.0,0.0,0.0,0.0,0.0,2.6386,2.66,2.6613,2.64,2.6253,2.7734,3.0991,3.0974,3.2905,3.6866,3.6559,3.6521,3.6641,3.6123,3.6195,3.6713,3.6713,3.6842,3.6864,3.4783,3.3629,3.3061,3.1564,3.1149,3.1408,3.2489,3.2777,3.2703,0.0,0.0,0.0,0.0,0.0,0.0,0.0,0.0,0.0,0.0,0.0,0.0,0.0,0.0,0.0,0.0,0.0,0.0,0.0,0.0,0.0,0.0,0.0,0.0,0.0,0.0,0.0,0.0,0.0,0.0,0.0,0.0,0.0,0.0,0.0,0.0,0.0,0.0,0.0,0.0,0.0,0.0,0.0,0.0,0.0,0.0,0.0,0.0,0.0,0.0,0.0,0.0,0.0,0.0,0.0,0.0,0.0,0.0,0.0,0.0,0.0,0.0,0.0,0.0,0.0,0.0,0.0,0.0,0.0,0.0,0.0,0.0,0.0,0.0,0.0,0.0,0.0,0.0,0.0,2.4369,2.5798,0.0,0.0,0.0,0.0,2.68,2.6774,2.6667,2.64,2.64,2.64,2.6386,2.664,2.7786,2.9946,3.1836,3.3729,3.5591,3.5573,3.5392,3.4975,3.2969,3.3117,3.5048,3.5048,3.6085,3.7773,3.6385,3.586,3.5734,3.5258,3.5123,3.5084,3.4685,3.4089,3.333,0.0,0.0,0.0,0.0,0.0,0.0,0.0,0.0,0.0,0.0,0.0,0.0,0.0,0.0,0.0,0.0,0.0,0.0,0.0,0.0,0.0,0.0,0.0,0.0,0.0,0.0,0.0,0.0,0.0,0.0,0.0,0.0,0.0,0.0,0.0,0.0,0.0,0.0,0.0,0.0,0.0,0.0,0.0,0.0,0.0,0.0,0.0,0.0,0.0,0.0,0.0,0.0,0.0,0.0,0.0,0.0,0.0,0.0,0.0,0.0,0.0,0.0,0.0,0.0,0.0,0.0,0.0,0.0,0.0,0.0,0.0,0.0,0.0,0.0,0.0,0.0,0.0,0.0,0.0,2.5651,2.6827,0.0,2.6707,2.7028,2.7148,2.6841,2.6827,2.6854,2.6947,2.7134,2.7321,2.7509,2.7428,2.8508,3.0884,3.1091,3.2331,3.4545,3.4307,3.4001,3.3551,3.2883,3.3507,3.5298,3.5298,3.644,3.8262,3.7266,3.6523,3.5957,3.5234,3.4941,3.4922,3.4766,3.4512,3.4219,0.0,0.0,0.0,0.0,0.0,0.0,0.0,0.0,0.0,0.0,0.0,0.0,0.0,0.0,0.0,0.0,0.0,0.0,0.0,0.0,0.0,0.0,0.0,0.0,0.0,0.0,0.0,0.0,0.0,0.0,0.0,0.0,0.0,0.0,0.0,0.0,0.0,0.0,0.0,0.0,0.0,0.0,2.7314,0.0,0.0,0.0,0.0,0.0,0.0,0.0,0.0,0.0,0.0,0.0,0.0,0.0,0.0,0.0,0.0,0.0,0.0,0.0,0.0,0.0,0.0,0.0,0.0,0.0,0.0,0.0,0.0,0.0,0.0,0.0,0.0,0.0,0.0,0.0,2.6653,2.6547,2.7575,2.803,2.7335,2.7535,2.7549,2.7148,2.7215,2.7348,2.7549,2.7749,2.7936,2.8221,2.7949,2.862,3.0101,3.0321,3.1274,3.273,3.2507,3.2268,3.1967,3.123,3.182,3.3568,3.3507,3.4601,3.646,3.5721,3.541,3.5344,3.52,3.5059,3.4941,3.4941,3.4824,3.4668,0.0,0.0,0.0,0.0,0.0,0.0,0.0,0.0,0.0,0.0,0.0,0.0,0.0,0.0,0.0,0.0,0.0,0.0,0.0,0.0,0.0,0.0,0.0,0.0,0.0,0.0,0.0,0.0,0.0,0.0,0.0,0.0,0.0,0.0,0.0,0.0,0.0,0.0,0.0,0.0,0.0,0.0,2.8641,0.0,0.0,0.0,0.0,0.0,0.0,0.0,0.0,0.0,0.0,0.0,0.0,0.0,0.0,0.0,0.0,0.0,0.0,0.0,0.0,0.0,0.0,0.0,0.0,0.0,0.0,0.0,0.0,0.0,0.0,0.0,0.0,0.0,2.609,2.6734,2.7161,2.6894,2.7896,2.827,2.7388,2.8096,2.8364,2.7776,2.7989,2.8221,2.8221,2.8221,2.8221,2.8221,2.8221,2.8003,2.7722,2.9731,3.0536,3.0209,3.0209,3.0209,3.01,2.782,2.7922,2.9912,2.9505,3.0592,3.2472,3.1959,3.2691,3.4252,3.5432,3.5714,3.541,3.541,3.5117,3.4668,0.0,0.0,0.0,0.0,0.0,0.0,0.0,0.0,0.0,0.0,0.0,0.0,0.0,0.0,0.0,0.0,0.0,0.0,0.0,0.0,0.0,0.0,0.0,0.0,0.0,0.0,0.0,0.0,0.0,0.0,0.0,0.0,0.0,0.0,0.0,0.0,0.0,0.0,0.0,0.0,0.0,0.0,2.962,0.0,0.0,0.0,0.0,0.0,0.0,0.0,0.0,0.0,0.0,0.0,0.0,0.0,0.0,0.0,0.0,0.0,0.0,0.0,0.0,0.0,0.0,0.0,0.0,0.0,0.0,0.0,0.0,0.0,0.0,0.0,0.0,2.6734,2.7161,2.7241,2.7388,2.7736,2.827,2.8511,2.8257,2.8457,2.8537,2.8377,2.823,2.8221,2.8221,2.8221,2.8221,2.8221,2.8221,2.8181,2.8016,2.8589,2.8869,2.88,2.88,2.8565,2.8137,2.75,2.8005,2.949,2.9401,3.0592,3.2472,3.1959,3.1952,3.23,3.3713,3.4935,3.5859,3.5859,3.5566,3.5098,0.0,0.0,0.0,0.0,0.0,0.0,0.0,0.0,0.0,0.0,0.0,0.0,0.0,0.0,0.0,0.0,0.0,0.0,0.0,0.0,0.0,0.0,0.0,0.0,0.0,0.0,0.0,0.0,0.0,0.0,0.0,0.0,0.0,0.0,0.0,0.0,0.0,0.0,0.0,0.0,0.0,0.0,3.1399,3.1106,3.0466,2.9749,2.9665,2.8547,2.6966,2.6786,0.0,0.0,0.0,0.0,0.0,0.0,0.0,0.0,0.0,0.0,0.0,0.0,0.0,0.0,0.0,0.0,0.0,0.0,0.0,0.0,0.0,0.0,0.0,0.0,2.6974,2.7442,2.8163,2.7896,2.7856,2.8444,2.8671,2.8791,2.8791,2.8684,2.8551,2.8417,2.8328,2.8221,2.8221,2.8221,2.8221,2.8221,2.8221,2.8221,2.8221,2.8221,2.8221,2.8221,2.8221,2.8047,2.7712,2.7509,2.7825,2.8525,2.8396,2.8959,2.9883,2.9549,2.9652,3.0261,0.0,0.0,0.0,0.0,3.5249,3.4164,0.0,0.0,0.0,0.0,0.0,0.0,0.0,0.0,0.0,0.0,0.0,0.0,0.0,0.0,0.0,0.0,0.0,0.0,0.0,0.0,0.0,0.0,0.0,0.0,0.0,0.0,0.0,0.0,0.0,0.0,0.0,0.0,0.0,0.0,0.0,0.0,0.0,0.0,0.0,0.0,0.0,0.0,3.3379,3.2949,3.2478,3.2017,3.1379,2.926,2.6779,2.6751,0.0,0.0,0.0,0.0,0.0,0.0,0.0,0.0,0.0,0.0,0.0,0.0,0.0,0.0,0.0,0.0,0.0,0.0,0.0,0.0,0.0,0.0,0.0,0.0,2.7722,2.8056,2.8911,2.8604,2.8497,2.9032,2.9085,2.9072,2.9045,2.8804,2.8524,2.8301,2.8248,2.8221,2.8221,0.0,0.0,0.0,0.0,2.8221,2.8221,2.8221,2.8221,2.8221,2.8221,2.8207,2.8167,2.7816,2.7535,2.7255,2.6987,2.6707,2.6413,2.6159,2.6892,2.8222,3.0025,3.1606,3.3083,3.4671,3.3997,3.2366,0.0,0.0,0.0,0.0,0.0,0.0,0.0,0.0,0.0,0.0,0.0,0.0,0.0,0.0,0.0,0.0,0.0,0.0,0.0,0.0,0.0,0.0,0.0,0.0,0.0,0.0,0.0,0.0,0.0,0.0,0.0,0.0,0.0,0.0,0.0,0.0,0.0,0.0,0.0,0.0,0.0,0.0,3.3379,3.2949,3.2894,3.2906,3.1509,3.0276,2.8948,2.7255,2.6344,2.5959,2.5892,0.0,0.0,0.0,0.0,0.0,0.0,0.0,0.0,0.0,0.0,0.0,0.0,0.0,0.0,0.0,0.0,0.0,0.0,0.0,0.0,2.7575,2.7896,2.8283,2.8951,2.9152,2.9272,2.9379,2.9392,2.9299,2.9058,2.8991,2.8831,2.8537,2.8283,2.8221,2.8221,2.8221,2.8221,2.8221,2.8221,2.8221,2.8221,2.8221,2.8221,2.8221,2.8221,0.0,2.7789,2.7722,2.7535,2.7268,2.7201,2.7014,2.6734,2.668,2.6435,2.635,2.9246,3.0589,3.0842,3.0905,3.0613,3.0218,0.0,0.0,0.0,0.0,0.0,0.0,0.0,0.0,0.0,0.0,0.0,0.0,0.0,0.0,0.0,0.0,0.0,0.0,0.0,0.0,0.0,0.0,0.0,0.0,0.0,0.0,0.0,0.0,0.0,0.0,0.0,0.0,0.0,0.0,0.0,0.0,0.0,0.0,0.0,0.0,0.0,0.0,3.1486,3.1026,3.1133,3.1359,3.0545,2.956,2.8439,2.7353,2.6447,2.5705,2.5571,2.5795,2.5985,0.0,0.0,0.0,0.0,0.0,0.0,0.0,0.0,0.0,0.0,0.0,0.0,0.0,0.0,2.648,0.0,0.0,2.7281,2.803,2.8524,2.8911,2.9219,2.9513,2.9646,2.9499,2.9486,2.9419,2.9272,2.8991,2.8764,2.8617,2.8323,2.8221,2.8221,2.8221,2.8221,2.8221,2.8221,2.8221,2.8221,2.8221,2.8221,2.8221,2.8221,2.8154,2.7923,2.7923,2.7762,2.7482,2.7482,2.7228,2.68,2.6507,2.6039,2.5617,2.7127,2.8206,2.8956,2.9759,2.9428,2.8672,0.0,0.0,0.0,0.0,0.0,0.0,0.0,0.0,0.0,0.0,0.0,0.0,0.0,0.0,0.0,0.0,0.0,0.0,0.0,0.0,0.0,0.0,0.0,0.0,0.0,0.0,0.0,0.0,0.0,0.0,0.0,0.0,0.0,0.0,0.0,0.0,0.0,0.0,0.0,0.0,0.0,0.0,2.8861,2.8436,2.8889,2.9715,2.9292,2.8417,2.7377,2.7144,2.628,2.5264,2.5384,2.5665,2.5996,2.5732,2.6066,0.0,0.0,0.0,0.0,0.0,0.0,0.0,0.0,0.0,2.5838,2.636,2.6333,2.6493,2.7442,2.7522,2.7709,2.8551,2.9138,2.9499,2.9566,2.982,2.9913,2.9686,2.9606,2.9539,2.9486,2.9058,2.8751,2.8698,2.8404,2.8315,2.8315,2.8261,2.8221,2.8221,2.8221,2.8221,2.8221,2.8221,2.8221,2.8221,2.8221,2.8221,2.8221,2.8221,2.8016,2.7776,2.7722,2.7362,2.6787,2.6253,2.5865,2.5571,2.5277,2.5927,2.7231,2.8644,2.8269,2.7098,0.0,0.0,0.0,0.0,0.0,0.0,0.0,0.0,0.0,0.0,0.0,0.0,0.0,0.0,0.0,0.0,0.0,0.0,0.0,0.0,0.0,0.0,0.0,0.0,0.0,0.0,0.0,0.0,0.0,0.0,0.0,0.0,0.0,0.0,0.0,0.0,0.0,0.0,0.0,0.0,0.0,0.0,2.5951,2.591,2.7866,3.0451,2.8742,2.7967,2.7659,2.653,2.6057,2.5945,2.6466,2.6319,2.6077,2.6226,0.0,2.5264,2.5197,2.5037,2.505,2.5772,2.5571,2.5504,0.0,0.0,2.6386,2.6707,2.6961,2.7161,2.7295,2.7792,2.8257,2.8885,2.9272,2.9579,2.9833,3.0127,3.0301,3.0261,3.0034,2.9766,2.9513,2.9419,2.9272,2.9005,2.8724,2.8551,2.8551,2.8297,2.8221,2.8221,2.8221,2.8221,2.8221,2.8221,2.8221,2.8221,2.8221,2.8221,2.8221,2.8221,2.8207,2.8167,2.7816,2.7362,2.68,2.6466,2.6172,2.5879,2.5585,2.5429,2.5357,2.5308,2.5139,2.4918,0.0,0.0,0.0,0.0,0.0,0.0,0.0,0.0,0.0,0.0,0.0,0.0,0.0,0.0,0.0,0.0,0.0,0.0,0.0,0.0,0.0,0.0,0.0,0.0,0.0,0.0,0.0,0.0,0.0,0.0,0.0,0.0,0.0,0.0,0.0,0.0,0.0,0.0,0.0,0.0,0.0,0.0,2.3992,2.3922,2.4045,2.438,2.5923,2.65,0.0,0.0,2.5678,2.601,2.5838,2.5879,2.5919,2.5692,2.5491,0.0,2.4917,0.0,0.0,0.0,2.5398,2.5758,2.636,2.644,2.652,2.6987,2.7455,2.7829,2.8016,2.8524,2.9005,0.0,2.9686,3.0034,3.0154,3.0421,3.0488,3.014,3.014,3.0127,3.0007,2.9686,2.9432,2.9312,2.8871,2.8604,2.8604,2.831,2.8221,2.8221,2.8221,2.8221,2.8221,2.8221,2.8221,2.8221,2.8221,2.8221,2.8221,2.8221,2.8221,2.8207,2.7829,2.7468,2.7054,2.676,2.6466,2.6186,2.5879,2.5598,2.5291,2.501,2.4783,2.4636,0.0,0.0,0.0,0.0,0.0,0.0,0.0,0.0,0.0,0.0,0.0,0.0,0.0,0.0,0.0,0.0,0.0,0.0,0.0,0.0,0.0,0.0,0.0,0.0,0.0,0.0,0.0,0.0,0.0,0.0,0.0,0.0,0.0,0.0,0.0,0.0,0.0,0.0,0.0,0.0,0.0,0.0,2.2142,2.1997,2.0899,1.993,2.3402,2.4546,0.0,0.0,2.5424,2.5665,2.5411,2.5611,2.5929,2.5344,2.5117,2.4957,2.4609,0.0,0.0,2.497,2.5072,2.519,2.5499,2.5236,2.5295,2.6524,2.7142,2.7662,2.8512,2.9138,2.9486,2.9486,2.9913,3.0234,3.0234,3.0421,3.0394,2.9967,3.0034,3.0154,3.0234,2.9847,2.9633,2.9726,2.9179,2.8845,2.8845,2.8484,2.827,2.827,2.8274,2.8221,2.8221,2.8221,2.8221,2.8221,2.8221,2.8221,2.8221,2.8221,2.8181,2.8003,2.7789,2.7495,2.7121,2.6907,2.6653,2.6373,2.6159,2.5892,2.5611,2.5398,2.5024,2.4649,0.0,0.0,0.0,0.0,0.0,0.0,0.0,0.0,0.0,0.0,0.0,0.0,0.0,0.0,0.0,0.0,0.0,0.0,0.0,0.0,0.0,0.0,0.0,0.0,0.0,0.0,0.0,0.0,0.0,0.0,0.0,0.0,0.0,0.0,0.0,0.0,0.0,0.0,0.0,0.0,0.0,0.0,2.019,2.0059,1.9755,1.9771,2.1681,0.0,0.0,0.0,2.5331,2.5211,2.5758,2.6023,0.0,2.5585,2.4703,0.0,0.0,0.0,2.4502,2.5638,2.4443,2.3294,2.4301,2.2814,2.2016,2.4875,2.5431,2.6158,2.8583,2.9272,2.9486,2.9486,2.974,2.9927,2.9927,2.994,2.994,2.9913,2.9673,2.9619,0.0,2.9913,3.002,3.0314,2.9793,2.9459,2.9459,2.8911,2.8591,2.8591,2.8297,2.8221,2.8221,2.8221,2.8221,2.8221,2.8221,2.8221,2.8221,2.8221,2.7989,2.7709,2.7696,2.7375,2.6827,2.6827,2.6653,2.6386,2.6373,2.6199,2.5945,2.601,2.5384,2.4676,0.0,0.0,0.0,0.0,0.0,0.0,0.0,0.0,0.0,0.0,0.0,0.0,0.0,0.0,0.0,0.0,0.0,0.0,0.0,0.0,0.0,0.0,0.0,0.0,0.0,0.0,0.0,0.0,0.0,0.0,0.0,0.0,0.0,0.0,0.0,0.0,0.0,0.0,0.0,0.0,0.0,0.0,1.8547,1.8307,1.7153,1.6009,0.0,0.0,0.0,0.0,0.0,0.0,2.5077,0.0,0.0,2.4502,0.0,0.0,0.0,0.0,2.3263,2.4062,2.2921,2.1642,2.2265,2.1792,2.206,2.4856,2.5237,2.5817,2.8307,2.8831,2.8965,2.9165,2.9593,2.9913,2.9913,3.0247,3.0207,2.9432,2.9593,0.0,0.0,0.0,0.0,3.0047,2.97,2.9486,2.9486,2.9112,2.8804,2.8617,2.8511,2.835,2.8234,2.8221,2.8221,2.8221,2.8221,2.8221,2.8221,2.8221,2.8167,2.7989,2.7789,2.7482,2.7094,2.6907,2.6653,2.6386,2.6386,2.6213,2.605,2.6172,2.5812,2.5197,0.0,0.0,0.0,0.0,0.0,0.0,0.0,0.0,0.0,0.0,0.0,0.0,0.0,0.0,0.0,0.0,0.0,0.0,0.0,0.0,0.0,0.0,0.0,0.0,0.0,0.0,0.0,0.0,0.0,0.0,0.0,0.0,0.0,0.0,0.0,0.0,0.0,0.0,0.0,0.0,0.0,0.0,1.6593,1.6183,1.5105,0.0,0.0,0.0,0.0,0.0,0.0,0.0,0.0,0.0,0.0,0.0,0.0,0.0,0.0,2.3868,2.298,2.3505,2.1726,1.9845,2.0185,1.9649,1.9793,2.2416,2.274,2.3479,2.6746,2.7285,2.7628,2.8598,2.9032,2.9352,2.9579,2.974,2.9646,2.9098,2.9285,0.0,0.0,0.0,0.0,2.9887,2.974,2.9633,2.9633,2.9366,2.9112,2.8925,2.8711,2.8511,2.831,2.8288,2.8221,2.8221,2.8221,2.8221,2.8221,2.8221,2.8221,2.8207,2.7722,2.7495,2.7375,2.6881,2.6613,2.6533,2.6426,2.6279,2.6132,2.6319,2.6146,2.5772,0.0,0.0,0.0,0.0,0.0,0.0,0.0,0.0,0.0,0.0,0.0,0.0,0.0,0.0,0.0,0.0,0.0,0.0,0.0,0.0,0.0,0.0,0.0,0.0,0.0,0.0,0.0,0.0,0.0,0.0,0.0,0.0,0.0,0.0,0.0,0.0,0.0,0.0,0.0,0.0,0.0,0.0,1.4455,1.4014,0.0,0.0,0.0,0.0,0.0,0.0,0.0,0.0,0.0,0.0,0.0,0.0,0.0,2.4917,2.5772,2.4719,2.3364,2.3934,2.0885,1.7826,1.8001,1.625,1.5399,1.8085,1.836,1.9581,0.0,0.0,2.5592,2.787,2.8248,2.8404,2.9005,2.8604,2.8457,0.0,0.0,0.0,0.0,0.0,0.0,2.99,0.0,2.99,2.9913,2.9659,2.9499,2.9486,2.8938,2.8644,2.8631,2.8323,2.8248,2.8221,2.8221,2.8221,2.8221,2.8221,2.8221,2.8194,2.7618,2.7442,2.7615,2.676,2.656,2.6774,2.6493,2.6386,2.6386,2.6386,2.6386,2.6306,0.0,0.0,0.0,0.0,0.0,0.0,0.0,0.0,0.0,0.0,0.0,0.0,0.0,0.0,0.0,0.0,0.0,0.0,0.0,0.0,0.0,0.0,0.0,0.0,0.0,0.0,0.0,0.0,0.0,0.0,0.0,0.0,0.0,0.0,0.0,0.0,0.0,0.0,0.0,0.0,0.0,0.0,1.4326,0.0,0.0,0.0,0.0,0.0,0.0,0.0,0.0,0.0,0.0,0.0,2.481,0.0,0.0,2.6039,2.648,2.4175,2.1682,2.1882,1.8646,1.5406,1.5449,1.5014,1.5291,1.7811,1.7882,1.8949,0.0,0.0,0.0,2.7804,2.8524,0.0,2.9606,2.9753,0.0,0.0,0.0,2.986,2.9713,2.97,0.0,0.0,2.9847,2.9686,2.99,2.9847,2.9713,2.9486,2.9339,2.9152,2.8938,2.8631,2.8377,2.8221,2.8221,2.8221,2.8221,2.8221,2.8221,2.8207,2.7749,2.7509,2.7348,2.6894,2.6627,2.6493,2.6413,2.6386,2.6386,2.6386,2.6386,2.6333,0.0,0.0,0.0,0.0,0.0,0.0,0.0,0.0,0.0,0.0,0.0,0.0,0.0,0.0,0.0,0.0,0.0,0.0,0.0,0.0,0.0,0.0,0.0,0.0,0.0,0.0,0.0,0.0,0.0,0.0,0.0,0.0,0.0,0.0,0.0,0.0,0.0,0.0,0.0,0.0,0.0,0.0,0.0,0.0,0.0,0.0,0.0,0.0,0.0,0.0,0.0,2.5037,2.4836,2.501,2.5358,2.5772,0.0,2.6667,2.7094,2.4266,2.1199,2.1286,1.7937,1.4577,1.4448,1.4367,1.472,1.5953,1.5887,0.0,0.0,0.0,0.0,0.0,0.0,0.0,2.9619,2.9873,3.0007,0.0,3.0261,0.0,3.0127,3.0114,3.0234,0.0,3.0127,2.994,3.01,3.0234,3.01,2.9686,2.9673,2.9406,2.8858,2.8684,2.8457,2.8221,2.8221,2.8221,2.8221,2.8221,2.8221,2.8207,2.7829,2.7682,2.7698,2.7188,2.7001,2.6934,2.668,2.6653,2.6747,2.648,2.6466,2.656,0.0,0.0,0.0,0.0,0.0,0.0,0.0,0.0,0.0,0.0,0.0,0.0,0.0,0.0,0.0,0.0,0.0,0.0,0.0,0.0,0.0,0.0,0.0,0.0,0.0,0.0,0.0,0.0,0.0,0.0,0.0,0.0,0.0,0.0,0.0,0.0,0.0,0.0,0.0,0.0,0.0,0.0,0.0,0.0,0.0,0.0,0.0,0.0,0.0,0.0,1.9621,2.4378,2.4943,2.515,2.5398,2.6307,2.6747,2.7068,2.7655,2.4664,2.1429,2.1429,1.8024,1.4665,1.4367,1.4183,1.398,1.3668,0.0,0.0,1.5982,0.0,2.0724,2.3482,0.0,2.8294,2.9566,2.9686,2.9873,3.0461,3.0528,3.0528,3.0528,3.0501,3.0595,3.0889,3.0635,3.0461,3.0421,3.0662,3.0541,2.9993,2.994,2.9513,2.8671,2.8711,2.8524,2.8221,2.8274,2.8261,2.8221,2.8221,2.8221,2.8207,2.7869,2.7883,2.8127,2.7535,2.7455,2.7589,2.7081,2.7041,2.7201,2.6694,2.6667,2.6881,0.0,0.0,0.0,0.0,0.0,0.0,0.0,0.0,0.0,0.0,0.0,0.0,0.0,0.0,0.0,0.0,0.0,0.0,0.0,0.0,0.0,0.0,0.0,0.0,0.0,0.0,0.0,0.0,0.0,0.0,0.0,0.0,0.0,0.0,0.0,0.0,0.0,0.0,0.0,0.0,0.0,0.0,0.0,0.0,0.0,0.0,0.0,0.0,0.0,0.0,1.8318,2.0558,2.2423,2.3373,2.4231,2.6708,2.7509,2.7682,2.8283,2.5149,2.165,2.1828,1.8206,1.4665,1.4367,1.4183,0.0,0.0,0.0,1.3967,1.5897,1.6938,0.0,2.4097,0.0,0.0,0.0,0.0,3.0782,0.0,0.0,0.0,0.0,0.0,0.0,0.0,0.0,3.0969,3.0728,3.0768,3.0635,3.0287,3.0047,2.9606,2.8965,2.9205,2.8938,2.8234,2.8404,2.839,2.8221,2.8221,2.8221,2.8221,2.8167,0.0,2.7762,2.7669,2.7509,2.7335,2.7228,2.7228,2.7255,2.7148,2.7148,2.7188,0.0,0.0,0.0,0.0,0.0,0.0,0.0,0.0,0.0,0.0,0.0,0.0,0.0,0.0,0.0,0.0,0.0,0.0,0.0,0.0,0.0,0.0,0.0,0.0,0.0,0.0,0.0,0.0,0.0,0.0,0.0,0.0,0.0,0.0,0.0,0.0,0.0,0.0,0.0,0.0,0.0,0.0,0.0,0.0,0.0,0.0,0.0,0.0,0.0,0.0,1.601,1.7135,2.0641,2.2833,2.4481,2.6092,2.6473,2.6462,2.6885,2.368,2.0281,2.0272,1.7544,1.474,1.4285,0.0,0.0,0.0,0.0,1.3422,1.4211,1.5788,0.0,0.0,0.0,0.0,0.0,0.0,0.0,0.0,0.0,0.0,0.0,0.0,0.0,0.0,0.0,3.133,3.1036,3.0875,3.0728,3.0595,3.0301,2.986,2.9272,2.9419,2.9112,2.839,2.8537,2.8444,2.8221,2.8221,2.8221,2.8221,2.8221,2.814,2.7923,2.7923,2.7843,2.7792,2.7549,2.7589,2.7765,2.7375,2.7362,2.7495,0.0,0.0,0.0,0.0,0.0,0.0,0.0,0.0,0.0,0.0,0.0,0.0,0.0,0.0,0.0,0.0,0.0,0.0,0.0,0.0,0.0,0.0,0.0,0.0,0.0,0.0,0.0,0.0,0.0,0.0,0.0,0.0,0.0,0.0,0.0,0.0,0.0,0.0,0.0,0.0,0.0,0.0,0.0,0.0,0.0,0.0,0.0,0.0,0.0,0.0,1.4122,1.4748,1.8462,2.1383,2.3511,2.4289,2.4436,2.4429,2.4766,2.1902,1.8859,1.8836,1.6871,1.4828,1.4285,1.3912,0.0,0.0,0.0,1.2963,1.2807,1.4612,1.6311,0.0,0.0,0.0,0.0,0.0,0.0,0.0,0.0,0.0,0.0,0.0,0.0,0.0,0.0,3.157,3.133,3.1049,3.0862,3.0795,3.0515,3.0074,2.9486,2.9539,2.9285,2.8698,2.8698,2.8537,2.8243,2.8261,2.8221,2.8221,2.8221,2.8221,2.8221,2.8221,2.8221,2.8207,2.7883,2.7936,2.8167,2.7712,2.7602,2.7789,0.0,0.0,0.0,0.0,0.0,0.0,0.0,0.0,0.0,0.0,0.0,0.0,0.0,0.0,0.0,0.0,0.0,0.0,0.0,0.0,0.0,0.0,0.0,0.0,0.0,0.0,0.0,0.0,0.0,0.0,0.0,0.0,0.0,0.0,0.0,0.0,0.0,0.0,0.0,0.0,0.0,0.0,0.0,0.0,0.0,0.0,0.0,0.0,0.0,0.0,0.0,1.4394,1.4888,1.6599,1.888,2.0858,0.0,0.0,2.2332,2.0705,1.8917,1.9154,1.7139,1.4882,1.455,0.0,0.0,0.0,1.3152,1.3112,1.2969,1.332,1.4467,0.0,0.0,0.0,0.0,0.0,0.0,0.0,0.0,0.0,0.0,0.0,0.0,0.0,3.1664,3.1664,3.1623,3.1343,3.1062,3.0795,3.0515,3.0074,2.9486,2.974,2.9579,2.9005,2.9005,2.8845,2.8551,2.827,2.8221,2.8221,2.8221,2.8221,0.0,2.8221,2.8221,2.8221,2.8194,2.8207,2.8221,2.8167,2.8167,2.8181,0.0,0.0,0.0,0.0,0.0,0.0,0.0,0.0,0.0,0.0,0.0,0.0,0.0,0.0,0.0,0.0,0.0,0.0,0.0,0.0,0.0,0.0,0.0,0.0,0.0,0.0,0.0,0.0,0.0,0.0,0.0,0.0,0.0,0.0,0.0,0.0,0.0,0.0,0.0,0.0,0.0,0.0,0.0,0.0,0.0,0.0,0.0,0.0,0.0,0.0,0.0,0.0,1.4258,1.4899,0.0,0.0,1.9553,1.9834,2.0277,1.8888,1.7304,1.7365,1.6252,1.4997,1.4604,0.0,0.0,1.3363,1.3241,1.3152,1.3098,1.3132,1.3554,0.0,0.0,0.0,0.0,0.0,0.0,0.0,0.0,0.0,0.0,0.0,0.0,0.0,3.1664,3.1664,3.1664,3.1557,3.1276,3.0808,3.0675,3.0341,2.9753,2.986,2.9713,2.9312,2.9125,2.8978,2.8858,2.8364,2.8328,2.8417,2.8315,2.8221,0.0,2.8221,2.8221,2.8221,2.8221,2.8221,2.8221,2.8221,2.8221,2.8221,0.0,0.0,0.0,0.0,0.0,0.0,0.0,0.0,0.0,0.0,0.0,0.0,0.0,0.0,0.0,0.0,0.0,0.0,0.0,0.0,0.0,0.0,0.0,0.0,0.0,0.0,0.0,0.0,0.0,0.0,0.0,0.0,0.0,0.0,0.0,0.0,0.0,0.0,0.0,0.0,0.0,0.0,0.0,0.0,0.0,0.0,0.0,0.0,0.0,0.0,0.0,0.0,0.0,0.0,0.0,0.0,1.7166,1.7432,1.786,1.7142,1.6157,1.6096,1.5594,1.5025,0.0,0.0,0.0,1.3498,1.3417,1.3356,1.3315,1.3308,1.3295,0.0,0.0,0.0,0.0,0.0,0.0,0.0,0.0,0.0,0.0,0.0,0.0,0.0,3.1664,3.1664,3.1664,3.1664,3.1396,3.0808,3.0795,3.0515,2.9927,2.9913,2.982,2.9606,2.9312,2.9165,2.9152,2.8644,2.8484,2.8591,2.8377,2.823,0.0,2.8221,2.8221,2.8221,2.8221,2.8221,2.8221,2.8221,2.8221,2.8221,0.0,0.0,0.0,0.0,0.0,0.0,0.0,0.0,0.0,0.0,0.0,0.0,0.0,0.0,0.0,0.0,0.0,0.0,0.0,0.0,0.0,0.0,0.0,0.0,0.0,0.0,0.0,0.0,0.0,0.0,0.0,0.0,0.0,0.0,0.0,0.0,0.0,0.0,0.0,0.0,0.0,0.0,0.0,0.0,0.0,0.0,0.0,0.0,0.0,0.0,0.0,0.0,0.0,0.0,0.0,0.0,1.4272,1.4774,1.5029,1.5507,1.5893,1.6042,1.552,1.493,0.0,0.0,0.0,1.3654,1.3736,1.379,1.3648,1.3627,1.3573,1.3424,0.0,0.0,0.0,0.0,0.0,0.0,0.0,0.0,0.0,0.0,0.0,0.0,3.1664,0.0,3.1664,3.1664,3.1396,3.0808,3.0795,3.0515,2.9927,2.9913,2.9913,2.9913,2.9619,2.9486,2.9472,2.9165,2.8871,2.8604,2.8604,2.843,0.0,2.8221,2.8221,2.8221,2.8221,2.8221,2.8221,2.8221,2.8221,2.8221,0.0,0.0,0.0,0.0,0.0,0.0,0.0,0.0,0.0,0.0,0.0,0.0,0.0,0.0,0.0,0.0,0.0,0.0,0.0,0.0,0.0,0.0,0.0,0.0,0.0,0.0,0.0,0.0,0.0,0.0,0.0,0.0,0.0,0.0,0.0,0.0,0.0,0.0,0.0,0.0,0.0,0.0,0.0,0.0,0.0,0.0,0.0,0.0,0.0,0.0,0.0,0.0,0.0,0.0,0.0,0.0,0.0,0.0,1.459,1.495,1.5262,1.5309,1.4916,1.4468,1.4319,0.0,0.0,1.3641,1.3743,1.3797,1.3654,1.3627,1.3614,1.3566,1.3471,0.0,0.0,0.0,0.0,0.0,0.0,0.0,0.0,0.0,0.0,3.1664,3.1664,3.1664,3.1664,3.1664,3.1396,3.0808,3.0795,3.0515,2.9927,2.9913,2.9913,2.9913,2.9619,2.9593,2.9766,2.9272,2.9098,2.9192,2.8991,2.8845,2.8751,2.8751,2.8644,2.8457,2.8457,2.8323,2.8221,2.8221,2.8221,2.8221,0.0,0.0,0.0,0.0,0.0,0.0,0.0,0.0,0.0,0.0,0.0,0.0,0.0,0.0,0.0,0.0,0.0,0.0,0.0,0.0,0.0,0.0,0.0,0.0,0.0,0.0,0.0,0.0,0.0,0.0,0.0,0.0,0.0,0.0,0.0,0.0,0.0,0.0,0.0,0.0,0.0,0.0,1.4299,0.0,0.0,0.0,0.0,0.0,0.0,0.0,0.0,0.0,0.0,0.0,0.0,0.0,0.0,0.0,0.0,1.457,1.4828,1.4943,1.459,0.0,0.0,0.0,0.0,1.3614,1.3702,1.3736,1.3648,1.3627,1.3607,1.3553,0.0,0.0,0.0,0.0,0.0,0.0,0.0,0.0,0.0,0.0,3.1664,3.1664,3.1664,3.1664,3.1664,3.1664,3.145,3.0969,3.0955,3.0728,3.0247,3.014,3.0087,3.0074,2.9793,2.974,2.99,2.9539,2.9406,2.9472,2.9285,2.9138,0.0,2.8925,2.8764,2.8591,2.8484,2.831,2.8221,2.8221,2.8221,2.8221,0.0,0.0,0.0,0.0,0.0,0.0,0.0,0.0,0.0,0.0,0.0,0.0,0.0,0.0,0.0,0.0,0.0,0.0,0.0,0.0,0.0,0.0,0.0,0.0,0.0,0.0,0.0,1.381,1.3973,1.4048,1.4041,0.0,0.0,0.0,0.0,0.0,0.0,1.4299,1.4299,0.0,0.0,1.4299,0.0,0.0,0.0,0.0,0.0,0.0,0.0,0.0,0.0,0.0,0.0,0.0,0.0,0.0,0.0,0.0,0.0,0.0,0.0,0.0,0.0,0.0,0.0,0.0,0.0,0.0,0.0,1.3614,1.3614,1.3614,1.3566,1.3437,0.0,0.0,0.0,0.0,0.0,0.0,0.0,0.0,0.0,0.0,3.1664,3.1664,3.165,3.165,3.1664,3.165,3.1517,3.1263,3.1263,3.1102,3.0795,3.0501,3.0354,3.0354,3.006,2.9913,2.9913,2.9913,2.9766,0.0,2.9513,2.9352,2.9085,2.8804,2.8671,2.8604,2.8323,2.8261,2.8221,2.8221,2.8248,2.8261,0.0,0.0,0.0,0.0,0.0,0.0,0.0,0.0,0.0,0.0,0.0,0.0,0.0,0.0,0.0,0.0,0.0,0.0,0.0,0.0,0.0,0.0,0.0,0.0,0.0,0.0,0.0,1.3505,1.377,1.3838,1.3736,1.3966,0.0,0.0,0.0,0.0,1.4299,1.4299,1.4299,0.0,1.4299,1.4299,0.0,0.0,0.0,0.0,1.3939,1.3804,0.0,0.0,0.0,0.0,0.0,0.0,0.0,0.0,1.318,0.0,0.0,0.0,0.0,0.0,0.0,0.0,0.0,0.0,0.0,0.0,0.0,0.0,0.0,0.0,0.0,0.0,0.0,0.0,0.0,0.0,0.0,0.0,0.0,0.0,0.0,0.0,3.1664,3.1664,3.1463,3.1423,3.1664,3.145,3.1396,3.1557,3.157,3.1316,3.0795,3.0501,3.0354,3.0354,3.006,2.9913,2.9913,2.9913,2.9887,2.982,2.982,2.978,2.97,2.9633,2.9339,2.8938,2.8858,2.8551,2.8221,2.8221,2.8297,2.8497,0.0,0.0,0.0,0.0,0.0,0.0,0.0,0.0,0.0,0.0,0.0,0.0,0.0,0.0,0.0,0.0,0.0,0.0,0.0,0.0,0.0,0.0,0.0,0.0,0.0,0.0,0.0,0.0,0.0,1.3905,0.0,0.0,0.0,0.0,0.0,1.4299,1.4299,1.4299,1.4299,1.4299,1.4299,0.0,0.0,0.0,0.0,0.0,1.3797,1.3648,0.0,1.3444,1.3464,1.3498,0.0,0.0,0.0,0.0,1.3078,0.0,0.0,0.0,0.0,0.0,0.0,0.0,0.0,0.0,0.0,0.0,0.0,0.0,0.0,0.0,0.0,0.0,0.0,0.0,0.0,0.0,0.0,0.0,0.0,0.0,0.0,0.0,3.1664,3.1664,3.1517,3.1503,3.1664,3.1517,3.1503,3.1664,3.1664,3.145,3.0996,3.0835,3.0621,3.0354,3.0194,3.0114,3.0114,3.0114,3.0114,3.0114,3.0114,3.0047,2.99,2.9766,2.9446,2.9045,2.9045,2.8764,2.8377,2.8511,2.8657,2.8818,0.0,0.0,0.0,0.0,0.0,0.0,0.0,0.0,0.0,0.0,0.0,0.0,0.0,0.0,0.0,0.0,0.0,0.0,0.0,0.0,0.0,0.0,0.0,0.0,0.0,0.0,0.0,0.0,0.0,0.0,0.0,0.0,0.0,0.0,0.0,1.4299,1.4299,1.4299,1.4299,1.4299,1.4299,0.0,0.0,0.0,0.0,0.0,0.0,0.0,0.0,1.3254,1.3295,1.3376,1.3247,0.0,0.0,0.0,0.0,0.0,0.0,0.0,0.0,1.3559,1.3498,0.0,0.0,0.0,0.0,0.0,0.0,0.0,0.0,0.0,0.0,0.0,0.0,0.0,0.0,0.0,0.0,0.0,0.0,0.0,0.0,3.0159,3.1664,3.1664,3.1623,3.1623,3.1664,3.1623,3.1623,3.1664,3.1664,3.153,3.1223,3.1183,3.0915,3.0421,3.0341,3.0287,3.0287,3.0287,3.0287,3.0301,3.0341,0.0,2.99,2.97,2.9419,2.9112,2.9112,2.8925,2.8711,2.8951,2.9098,2.9219,0.0,0.0,0.0,0.0,0.0,0.0,0.0,0.0,0.0,0.0,0.0,0.0,0.0,0.0,0.0,0.0,0.0,0.0,0.0,0.0,0.0,0.0,0.0,0.0,0.0,0.0,0.0,0.0,0.0,0.0,1.3878,1.4007,1.4156,0.0,0.0,1.4299,1.4299,1.4299,1.4299,1.4299,1.4299,0.0,0.0,0.0,0.0,0.0,0.0,0.0,0.0,1.3376,1.3383,1.3397,1.337,0.0,0.0,0.0,0.0,0.0,1.3159,1.3268,1.341,1.3587,1.3417,1.3281,0.0,0.0,0.0,0.0,0.0,0.0,0.0,0.0,0.0,0.0,0.0,0.0,0.0,0.0,0.0,0.0,0.0,0.0,2.7052,2.9822,3.1664,3.1664,3.1436,3.1396,3.165,3.1423,3.141,3.1664,3.1664,3.153,3.1223,3.0982,3.0808,3.0715,3.0221,2.998,2.998,2.998,2.998,2.9993,0.0,3.0194,2.9927,3.014,2.9913,2.9419,2.9419,2.9232,2.8978,2.9018,2.9352,2.982,0.0,0.0,0.0,0.0,0.0,0.0,0.0,0.0,0.0,0.0,0.0,0.0,0.0,0.0,0.0,0.0,0.0,0.0,0.0,0.0,0.0,0.0,0.0,0.0,0.0,0.0,0.0,0.0,0.0,1.4156,1.4089,1.4163,1.4231,1.4299,1.4299,1.434,1.4407,1.4333,1.4346,1.4407,0.0,0.0,0.0,0.0,0.0,0.0,0.0,0.0,0.0,0.0,1.3403,1.3403,1.3403,0.0,0.0,0.0,0.0,0.0,1.3275,1.3173,1.3112,1.3424,1.3336,0.0,0.0,0.0,0.0,0.0,0.0,0.0,0.0,0.0,0.0,0.0,0.0,0.0,0.0,0.0,0.0,0.0,0.0,2.731,2.7392,2.9822,3.149,3.1664,3.1396,3.1356,3.165,3.1543,3.153,3.1664,3.1664,3.1597,3.1463,3.1169,3.0942,3.0795,3.0675,3.0621,3.0621,3.0621,3.0621,3.0621,0.0,3.0421,3.0154,3.0127,2.9873,2.9513,2.9833,2.978,2.9553,2.9873,3.0154,3.0408,0.0,0.0,0.0,0.0,0.0,0.0,0.0,0.0,0.0,0.0,0.0,0.0,0.0,0.0,0.0,0.0,0.0,0.0,0.0,0.0,0.0,0.0,0.0,0.0,0.0,0.0,1.4163,1.4346,1.4319,1.4299,1.4299,1.4299,1.4299,0.0,1.4299,1.436,1.4455,1.4346,1.4367,1.4455,0.0,0.0,0.0,0.0,0.0,0.0,0.0,0.0,0.0,0.0,0.0,0.0,0.0,0.0,0.0,0.0,0.0,1.3254,1.337,1.3152,1.2942,0.0,0.0,0.0,0.0,0.0,0.0,0.0,0.0,0.0,0.0,0.0,0.0,0.0,0.0,0.0,0.0,0.0,0.0,0.0,2.584,2.7215,2.7627,2.9873,3.1423,3.165,3.1396,3.1356,3.165,3.1597,3.1597,3.1664,3.1664,3.1664,3.1664,3.145,3.1183,3.0902,3.1049,3.1129,3.1129,3.1129,3.1129,3.1116,3.0969,3.0688,3.0354,3.0261,3.0007,2.974,3.0261,3.0327,3.0181,3.0702,3.0849,3.0808,0.0,0.0,0.0,0.0,0.0,0.0,0.0,0.0,0.0,0.0,0.0,0.0,0.0,0.0,0.0,0.0,0.0,0.0,0.0,0.0,0.0,0.0,0.0,0.0,0.0,1.4143,1.4211,1.4496,1.4367,1.4299,1.4299,1.4299,1.4299,1.4299,1.4299,1.4306,1.4312,1.4306,1.4306,1.4312,1.4306,0.0,0.0,0.0,0.0,0.0,0.0,0.0,0.0,0.0,0.0,0.0,0.0,0.0,0.0,0.0,0.0,1.339,1.3397,1.3376,0.0,0.0,0.0,0.0,0.0,0.0,0.0,0.0,0.0,0.0,0.0,0.0,0.0,0.0,0.0,0.0,0.0,0.0,0.0,2.6281,2.7004,2.7262,2.7321,2.9937,3.165,3.1664,3.1396,3.1356,3.165,3.141,3.1383,3.1664,3.1664,3.1664,3.1664,3.165,3.149,3.1196,3.0942,3.0822,3.0822,3.0822,3.0822,3.0835,3.1089,3.0875,3.0394,3.0915,3.0808,3.0327,3.0635,3.0755,3.0768,3.1076,3.1022,3.0835,0.0,0.0,0.0,0.0,0.0,0.0,0.0,0.0,0.0,0.0,0.0,0.0,0.0,0.0,0.0,0.0,0.0,0.0,0.0,0.0,0.0,0.0,0.0,1.4299,1.4299,1.4333,1.4448,1.4652,1.4502,1.4387,1.4299,1.4299,0.0,0.0,1.4299,1.4346,1.4428,1.434,1.4353,1.4421,1.4333,1.4299,0.0,0.0,0.0,0.0,0.0,0.0,0.0,0.0,0.0,0.0,0.0,0.0,0.0,0.0,0.0,0.0,1.3403,1.3268,0.0,0.0,0.0,0.0,0.0,0.0,0.0,0.0,0.0,0.0,0.0,0.0,0.0,0.0,0.0,0.0,0.0,0.0,0.0,2.8922,2.9305,2.925,2.9416,3.0319,3.0929,3.1116,3.0849,3.0889,3.137,3.1116,3.1169,3.165,3.149,3.1476,3.1664,3.1664,3.161,3.1503,3.1396,3.1343,3.1343,3.1343,3.1343,3.133,3.1263,3.1102,3.0889,3.0742,3.0662,3.0662,3.0942,3.1169,3.1356,3.1463,3.1316,3.1102,0.0,0.0,0.0,0.0,0.0,0.0,0.0,0.0,0.0,0.0,0.0,0.0,0.0,0.0,0.0,0.0,0.0,0.0,0.0,0.0,0.0,0.0,0.0,1.4319,1.4367,1.4462,1.4563,1.4665,1.4563,1.4441,1.4299,0.0,0.0,0.0,1.4299,1.4353,1.4441,1.434,1.4353,1.4434,1.434,1.4299,0.0,0.0,0.0,0.0,0.0,0.0,0.0,0.0,0.0,0.0,0.0,0.0,0.0,0.0,0.0,0.0,1.3275,1.3078,0.0,0.0,0.0,0.0,0.0,0.0,0.0,0.0,0.0,0.0,0.0,0.0,0.0,0.0,0.0,0.0,0.0,0.0,2.7898,3.0132,3.0287,3.0341,3.0621,3.0555,3.0581,3.0782,3.0528,3.0568,3.1062,3.0902,3.1022,3.1517,3.1423,3.1463,3.1664,3.1664,3.1664,3.1664,3.1664,3.1664,3.1664,3.1664,3.1664,3.1664,3.145,3.1263,3.1076,3.0862,3.0889,3.1089,3.1289,3.149,3.1664,3.1664,3.1543,3.141,0.0,0.0,0.0,0.0,0.0,0.0,0.0,0.0,0.0,0.0,0.0,0.0,0.0,0.0,0.0,0.0,0.0,0.0,0.0,0.0,0.0,0.0,0.0,1.4367,1.4509,1.4509,1.4509,1.4509,1.4516,1.4441,1.4299,1.4299,0.0,0.0,1.4299,1.4299,1.4299,1.4299,1.4299,1.4299,1.4299,1.4299,1.4299,0.0,0.0,0.0,0.0,0.0,0.0,0.0,0.0,0.0,0.0,0.0,0.0,0.0,0.0,1.3146,1.3003,0.0,0.0,0.0,0.0,0.0,0.0,0.0,0.0,0.0,0.0,0.0,0.0,0.0,0.0,0.0,0.0,0.0,0.0,0.0,2.9064,2.9446,2.9726,3.002,3.0327,3.0608,3.0782,3.0782,3.0515,3.0488,3.0782,3.0782,3.0929,3.1223,3.1503,3.1664,3.1664,3.1664,3.1664,3.1664,3.1664,3.1664,3.1664,3.1664,3.1664,3.1664,3.1664,3.1343,3.0849,3.1423,3.1664,3.1664,3.1664,3.1664,3.1677,3.1677,3.1677,3.1717,0.0,0.0,0.0,0.0,0.0,0.0,0.0,0.0,0.0,0.0,0.0,0.0,0.0,0.0,0.0,0.0,0.0,0.0,0.0,0.0,0.0,0.0,0.0,0.0,0.0,0.0,1.4414,1.4509,1.4726,1.4652,0.0,0.0,0.0,1.4299,0.0,0.0,1.4299,1.4299,1.4299,1.4299,1.4299,1.4299,1.4299,0.0,0.0,0.0,0.0,0.0,0.0,0.0,0.0,0.0,0.0,0.0,0.0,0.0,1.3492,1.3322,1.3281,0.0,0.0,0.0,0.0,0.0,0.0,0.0,0.0,0.0,0.0,0.0,0.0,0.0,0.0,0.0,0.0,2.1223,0.0,0.0,2.7272,2.8977,2.9245,2.9419,2.9713,2.982,2.9953,3.0167,3.01,3.0261,3.0768,3.0408,3.0595,3.1517,3.1022,3.1049,3.1664,3.1463,3.1463,3.1664,3.1664,3.1664,3.1664,3.1664,3.1664,3.1664,3.145,3.1383,3.1423,3.1597,3.1543,3.1383,3.1583,3.1797,3.1971,3.1971,3.2104,3.2291,0.0,0.0,0.0,0.0,0.0,0.0,0.0,0.0,0.0,0.0,0.0,0.0,0.0,0.0,0.0,0.0,0.0,0.0,0.0,0.0,0.0,0.0,0.0,0.0,0.0,1.4414,1.4462,0.0,0.0,0.0,0.0,0.0,0.0,1.4299,0.0,1.4353,0.0,1.436,1.4353,1.4299,1.4299,1.4299,1.4299,0.0,0.0,0.0,0.0,0.0,0.0,0.0,0.0,0.0,0.0,0.0,0.0,0.0,1.3478,1.3268,0.0,0.0,0.0,0.0,0.0,0.0,0.0,0.0,0.0,0.0,0.0,0.0,0.0,0.0,0.0,0.0,0.0,2.1162,2.6326,2.6807,2.7218,2.8672,2.8871,2.9032,2.9446,2.9486,2.9606,2.99,2.9913,3.0074,3.0421,3.0221,3.0421,3.1129,3.0755,3.0835,3.149,3.1316,3.137,3.1664,3.1664,3.1664,3.1664,3.1664,3.1664,3.165,3.1236,3.1156,3.1316,3.1316,3.1289,3.1249,3.1557,3.1851,3.2104,3.2104,3.2291,3.2656,0.0,0.0,0.0,0.0,0.0,0.0,0.0,0.0,0.0,0.0,0.0,0.0,0.0,0.0,0.0,0.0,0.0,0.0,0.0,0.0,0.0,0.0,0.0,0.0,0.0,0.0,0.0,0.0,0.0,0.0,0.0,0.0,1.4299,1.4306,0.0,1.4421,0.0,1.4434,1.4421,1.4299,1.4299,1.4299,1.4299,1.4299,0.0,0.0,0.0,0.0,0.0,0.0,0.0,0.0,0.0,0.0,0.0,0.0,1.3451,0.0,0.0,0.0,0.0,0.0,0.0,0.0,0.0,0.0,0.0,0.0,0.0,0.0,0.0,0.0,0.0,0.0,1.9463,2.1739,2.4337,2.6503,2.8074,2.8524,2.8564,2.8791,2.9352,2.9432,2.9553,2.982,2.9887,2.9913,2.9913,3.0167,3.0341,3.0394,3.0608,3.0875,3.1223,3.1196,3.1343,3.1664,3.1664,3.1664,3.1664,3.1664,3.1637,3.1557,3.1049,3.0822,3.0795,3.0822,3.1009,3.1289,3.1597,3.1891,3.2144,3.2171,3.2372,3.2666,0.0,0.0,0.0,0.0,0.0,0.0,0.0,0.0,0.0,0.0,0.0,0.0,0.0,0.0,0.0,0.0,0.0,0.0,0.0,0.0,0.0,0.0,0.0,0.0,0.0,0.0,0.0,0.0,0.0,0.0,0.0,0.0,0.0,1.4299,0.0,1.4326,1.4299,1.4333,1.4326,1.4299,1.4299,1.4299,1.4299,1.4299,1.4299,0.0,0.0,0.0,0.0,0.0,0.0,0.0,1.4299,1.4197,1.4061,1.3994,1.3763,0.0,0.0,0.0,0.0,0.0,0.0,0.0,0.0,0.0,0.0,0.0,0.0,0.0,0.0,0.0,0.0,0.0,1.8165,2.0009,2.4081,2.5117,2.6176,2.8061,2.8328,2.839,2.8764,2.9005,2.9165,2.9219,2.9659,2.9913,2.9913,2.998,3.0221,3.0688,3.0314,3.0461,3.1223,3.0996,3.1156,3.1664,3.1664,3.1664,3.1664,3.1664,3.1423,3.0982,3.1089,3.0996,3.0808,3.1036,3.1303,3.1597,3.1891,3.2185,3.2478,3.2706,3.2973,3.324,0.0,0.0,0.0,0.0,0.0,0.0,0.0,0.0,0.0,0.0,0.0,0.0,0.0,0.0,0.0,0.0,0.0,0.0,0.0,0.0,0.0,0.0,0.0,0.0,0.0,0.0,0.0,0.0,0.0,0.0,0.0,0.0,0.0,1.4306,0.0,1.4367,1.4306,1.4373,1.436,1.4299,1.4299,1.4299,1.4299,1.4299,1.4299,1.4299,1.4299,0.0,0.0,0.0,0.0,0.0,0.0,0.0,1.4238,1.4027,1.3851,0.0,0.0,0.0,0.0,0.0,0.0,0.0,0.0,0.0,0.0,0.0,0.0,0.0,0.0,0.0,0.0,0.0,0.0,1.9063,2.2525,2.3995,2.5556,2.7883,2.8221,2.8355,2.8577,2.8751,2.8898,2.9032,2.9325,2.9553,2.97,2.9713,2.9913,3.0354,3.0074,3.0274,3.1009,3.0862,3.1089,3.1664,3.1664,3.1664,3.1664,3.1517,3.1209,3.0795,3.0955,3.0849,3.0621,3.1049,3.1396,3.1704,3.1984,3.2372,3.2772,3.2919,3.316,3.3414,0.0,0.0,0.0,0.0,0.0,0.0,0.0,0.0,0.0,0.0,0.0,0.0,0.0,0.0,0.0,0.0,0.0,0.0,0.0,0.0,0.0,0.0,0.0,0.0,0.0,0.0,0.0,0.0,0.0,0.0,0.0,0.0,0.0,1.4306,0.0,0.0,1.4306,1.4428,1.4407,1.4299,1.4299,1.4299,1.4299,1.4299,1.4299,1.4299,1.4299,1.4299,1.4319,1.4434,0.0,0.0,0.0,0.0,1.4401,1.4027,1.3899,1.3797,0.0,0.0,0.0,0.0,0.0,0.0,0.0,0.0,0.0,0.0,0.0,0.0,0.0,0.0,0.0,0.0,0.0,0.0,0.0,2.319,2.5556,2.7883,2.8221,2.8328,2.8497,2.8577,2.8684,2.8871,2.8978,2.9125,2.9325,2.9379,2.9513,2.9753,2.982,3.0127,3.0715,3.0768,3.1089,3.1664,3.1664,3.1664,3.1664,3.1356,3.1089,3.0862,3.0862,3.0728,3.0541,3.1022,3.1436,3.177,3.2064,3.2505,3.2986,3.304,3.32,3.3414,0.0,0.0,0.0,0.0,0.0,0.0,0.0,0.0,0.0,0.0,0.0,0.0,0.0,0.0,0.0,0.0,0.0,0.0,0.0,0.0,0.0,0.0,0.0,0.0,0.0,0.0,0.0,0.0,0.0,0.0,0.0,0.0,0.0,0.0,0.0,0.0,0.0,1.4319,1.4319,1.4299,1.4299,1.4299,1.4299,1.4299,1.4299,1.4299,1.4299,1.4299,1.4306,1.4319,1.4326,0.0,0.0,0.0,1.4319,1.4258,1.4143,0.0,0.0,0.0,0.0,0.0,0.0,0.0,0.0,0.0,0.0,0.0,0.0,0.0,0.0,0.0,0.0,0.0,0.0,0.0,0.0,0.0,0.0,2.7883,2.8221,2.8248,2.8288,2.8444,2.8511,2.8283,2.8751,2.8951,2.8738,2.8965,2.9112,2.9152,2.9406,2.982,3.0408,3.0662,3.1089,3.1664,3.1664,3.1664,3.1664,3.1356,3.1209,3.1169,3.1169,3.1142,3.1116,3.1196,3.1543,3.2078,3.2372,3.2692,3.3013,3.3253,3.3374,3.3414,0.0,0.0,0.0,0.0,0.0,0.0,0.0,0.0,0.0,0.0,0.0,0.0,0.0,0.0,0.0,0.0,0.0,0.0,0.0,0.0,0.0,0.0,0.0,0.0,0.0,0.0,0.0,0.0,0.0,0.0,0.0,1.4299,1.4992,0.0,0.0,0.0,0.0,0.0,0.0,1.4299,1.4299,1.4299,0.0,0.0,1.4299,1.4299,1.4299,1.4299,1.4312,1.4394,1.4421,1.4421,1.4421,0.0,0.0,0.0,0.0,0.0,0.0,0.0,0.0,0.0,0.0,0.0,0.0,0.0,0.0,0.0,0.0,0.0,0.0,0.0,0.0,0.0,0.0,0.0,0.0,0.0,0.0,0.0,2.7343,2.8221,2.8221,2.827,2.8283,2.8234,2.839,2.8564,2.8604,2.8724,2.8951,2.9272,2.9419,2.9847,3.0595,3.0728,3.1089,3.1664,3.1664,3.1583,3.1423,3.1463,3.1383,3.1223,3.1223,3.1223,3.1236,3.141,3.1717,3.2131,3.2425,3.2719,3.3013,3.3307,3.3414,3.3414,0.0,0.0,0.0,0.0,0.0,0.0,0.0,0.0,0.0,0.0,0.0,0.0,0.0,0.0,0.0,0.0,0.0,0.0,0.0,0.0,0.0,0.0,0.0,0.0,0.0,0.0,0.0,0.0,0.0,0.0,1.4299,1.4911,1.6122,0.0,1.7159,0.0,0.0,0.0,0.0,0.0,0.0,0.0,0.0,0.0,0.0,0.0,0.0,1.4333,1.4319,1.4462,1.4489,1.4462,1.4462,1.4462,0.0,0.0,0.0,0.0,0.0,0.0,0.0,0.0,0.0,0.0,0.0,0.0,0.0,0.0,0.0,0.0,0.0,0.0,0.0,0.0,0.0,0.0,0.0,0.0,0.0,0.0,2.6625,2.8194,2.8114,2.8181,2.8221,2.8221,2.8221,2.8328,2.847,2.8484,2.8684,2.9125,2.9285,2.9726,3.0448,3.0755,3.1156,3.1664,3.1664,3.1517,3.1236,3.153,3.1503,3.1223,3.1303,3.1343,3.1356,3.1583,3.1877,3.2238,3.2465,3.2772,3.312,3.3334,3.3414,3.3414,0.0,0.0,0.0,0.0,0.0,0.0,0.0,0.0,0.0,0.0,0.0,0.0,0.0,0.0,0.0,0.0,0.0,0.0,0.0,0.0,0.0,0.0,0.0,0.0,0.0,0.0,0.0,0.0,0.0,0.0,1.4387,1.6553,1.7676,1.7676,1.5513,1.5772,1.784,0.0,0.0,0.0,0.0,0.0,0.0,0.0,0.0,0.0,0.0,1.4414,1.4319,1.4462,1.4421,1.4312,1.4312,1.4312,1.4306,0.0,0.0,0.0,0.0,0.0,0.0,0.0,0.0,0.0,0.0,0.0,0.0,0.0,0.0,0.0,0.0,0.0,0.0,0.0,0.0,0.0,0.0,0.0,0.0,0.0,0.0,2.8114,2.7749,2.7976,2.8221,2.8221,2.8221,2.8234,2.8248,2.8248,2.8261,2.8301,2.8764,2.9219,2.9553,3.0648,3.1356,3.1664,3.1664,3.1517,3.1236,3.153,3.1503,3.1236,3.153,3.165,3.165,3.1664,3.2011,3.2616,3.2629,3.2893,3.3387,3.34,3.3414,3.3414,0.0,0.0,0.0,0.0,0.0,0.0,0.0,0.0,0.0,0.0,0.0,0.0,0.0,0.0,0.0,0.0,0.0,0.0,0.0,0.0,0.0,0.0,0.0,0.0,0.0,0.0,0.0,0.0,0.0,1.4299,1.4299,1.5168,1.6378,1.7763,1.6896,1.7016,1.768,1.5278,0.0,0.0,0.0,0.0,0.0,0.0,0.0,0.0,0.0,0.0,0.0,0.0,1.434,1.4299,1.4299,1.4299,1.4299,1.4299,0.0,0.0,0.0,0.0,0.0,0.0,0.0,0.0,0.0,0.0,0.0,0.0,0.0,0.0,0.0,0.0,0.0,0.0,0.0,0.0,0.0,0.0,0.0,0.0,0.0,0.0,2.7696,2.7789,2.7936,2.8207,2.8221,2.8221,2.8221,2.8221,2.8315,2.843,2.8831,2.9459,3.0314,3.0929,3.137,3.1664,3.1476,3.1236,3.0955,3.1249,3.1223,3.0969,3.1463,3.1664,3.1664,3.1664,3.1904,3.2278,3.2478,3.2786,3.316,3.3347,3.3414,3.3414,0.0,0.0,0.0,0.0,0.0,0.0,0.0,0.0,0.0,0.0,0.0,0.0,0.0,0.0,0.0,0.0,0.0,0.0,0.0,0.0,0.0,0.0,0.0,0.0,0.0,0.0,0.0,0.0,0.0,0.0,0.0,0.0,1.5168,1.6641,1.6641,1.7104,0.0,0.0,0.0,1.4367,0.0,0.0,1.5513,0.0,0.0,0.0,0.0,0.0,0.0,0.0,0.0,0.0,0.0,0.0,0.0,0.0,0.0,0.0,0.0,0.0,0.0,0.0,0.0,0.0,0.0,0.0,0.0,0.0,0.0,0.0,0.0,0.0,0.0,0.0,0.0,0.0,0.0,0.0,0.0,0.0,0.0,0.0,0.0,2.7736,2.7923,2.8207,2.8221,0.0,2.8221,2.8328,2.8484,2.8885,2.8991,2.9553,3.0635,3.0942,3.1223,3.1517,3.1423,3.1223,3.0942,3.1249,3.1209,3.0969,3.1463,3.1664,3.1677,3.177,3.1984,3.2278,3.2572,3.2866,3.3146,3.3334,3.3414,3.3414,0.0,0.0,0.0,0.0,0.0,0.0,0.0,0.0,0.0,0.0,0.0,0.0,0.0,0.0,0.0,0.0,0.0,0.0,0.0,0.0,0.0,0.0,0.0,0.0,0.0,0.0,0.0,0.0,0.0,0.0,0.0,0.0,1.4299,0.0,1.4299,1.5602,1.7759,0.0,1.438,1.4496,0.0,1.569,1.7763,0.0,0.0,0.0,1.884,1.8004,0.0,1.5334,0.0,0.0,0.0,0.0,0.0,0.0,0.0,0.0,0.0,0.0,0.0,0.0,0.0,0.0,0.0,0.0,0.0,0.0,0.0,0.0,0.0,0.0,0.0,0.0,0.0,0.0,0.0,0.0,0.0,0.0,0.0,0.0,0.0,0.0,2.8123,2.8221,2.8221,2.8221,2.8221,2.843,2.8858,2.9446,2.9179,2.9459,3.0354,3.0648,3.0942,3.1223,3.1517,3.149,3.1223,3.1517,3.149,3.1236,3.1543,3.1677,3.1704,3.1984,3.2278,3.267,3.2866,3.316,3.3414,3.3414,3.3414,3.3414,0.0,0.0,0.0,0.0,0.0,0.0,0.0,0.0,0.0,0.0,0.0,0.0,0.0,0.0,0.0,0.0,0.0,0.0,0.0,0.0,0.0,0.0,0.0,0.0,0.0,0.0,0.0,0.0,0.0,0.0,0.0,0.0,0.0,0.0,1.4299,1.4673,1.5322,1.4578,0.0,0.0,1.4319,1.569,0.0,0.0,0.0,0.0,0.0,1.9195,1.7684,0.0,1.5719,1.4299,0.0,0.0,0.0,0.0,0.0,0.0,1.4299,0.0,0.0,0.0,0.0,0.0,0.0,0.0,0.0,0.0,0.0,0.0,0.0,0.0,0.0,0.0,0.0,0.0,0.0,0.0,0.0,0.0,0.0,0.0,0.0,0.0,2.602,0.0,2.8016,2.8221,2.8221,2.8315,2.8444,2.8831,2.8978,2.9459,3.0354,3.0648,3.0942,3.1223,3.1102,3.0996,3.0915,3.0996,3.1102,3.1236,3.1543,3.1784,3.1984,3.2064,3.2278,3.267,3.2866,3.316,3.3414,3.3414,3.3414,3.344,0.0,0.0,0.0,0.0,0.0,0.0,0.0,0.0,0.0,0.0,0.0,0.0,0.0,0.0,0.0,0.0,0.0,0.0,0.0,0.0,0.0,0.0,0.0,0.0,0.0,0.0,0.0,0.0,0.0,0.0,0.0,0.0,0.0,0.0,0.0,0.0,0.0,0.0,0.0,0.0,1.5344,0.0,0.0,2.0269,2.2084,0.0,0.0,0.0,1.9054,1.8104,1.621,0.0,0.0,0.0,0.0,0.0,0.0,0.0,0.0,0.0,0.0,0.0,0.0,0.0,1.3838,1.3824,0.0,0.0,0.0,0.0,0.0,0.0,0.0,0.0,0.0,0.0,0.0,0.0,0.0,0.0,0.0,0.0,0.0,2.2774,2.3936,2.6251,2.6669,2.7246,2.8323,2.8301,2.8337,2.8778,2.8951,2.9352,2.9993,3.0528,3.0822,3.0862,3.1062,3.1089,3.0982,3.1102,3.1249,3.1423,3.1597,3.1837,3.2118,3.2238,3.2465,3.2759,3.3053,3.3267,3.3414,3.3414,3.3414,3.3454,0.0,0.0,0.0,0.0,0.0,0.0,0.0,0.0,0.0,0.0,0.0,0.0,0.0,0.0,0.0,0.0,0.0,0.0,0.0,0.0,0.0,0.0,0.0,0.0,0.0,0.0,0.0,0.0,0.0,0.0,0.0,0.0,0.0,0.0,0.0,0.0,0.0,0.0,0.0,1.4476,1.6553,1.8976,0.0,0.0,2.5896,2.7883,2.5556,2.3212,2.0789,1.8279,1.6034,0.0,0.0,0.0,0.0,0.0,1.4299,0.0,0.0,0.0,0.0,0.0,0.0,0.0,1.3749,1.3654,1.3573,0.0,0.0,0.0,0.0,0.0,0.0,0.0,0.0,0.0,0.0,0.0,0.0,0.0,0.0,0.0,2.0216,2.066,2.1901,2.4473,2.4935,2.6092,2.8452,2.8323,2.8444,2.8978,2.8784,2.8956,2.9526,3.0094,3.0359,3.0368,3.1183,3.1436,3.1183,3.145,3.161,3.1664,3.1664,3.1851,3.2171,3.2438,3.2719,3.3013,3.3293,3.3414,3.3414,3.3414,3.3427,3.3507,0.0,0.0,0.0,0.0,0.0,0.0,0.0,0.0,0.0,0.0,0.0,0.0,0.0,0.0,0.0,0.0,0.0,0.0,0.0,0.0,0.0,0.0,0.0,0.0,0.0,0.0,0.0,0.0,0.0,0.0,0.0,0.0,0.0,0.0,0.0,0.0,0.0,0.0,0.0,1.4299,1.4822,0.0,2.1221,2.1739,2.4508,2.7883,2.5556,2.3212,2.0529,1.6386,1.4646,1.4299,0.0,0.0,0.0,0.0,0.0,0.0,0.0,0.0,0.0,0.0,0.0,0.0,1.3878,1.3797,1.3749,0.0,0.0,0.0,0.0,0.0,0.0,0.0,0.0,0.0,0.0,0.0,0.0,0.0,0.0,0.0,1.7751,1.8252,2.0115,2.3963,2.628,2.7741,2.823,2.8417,2.8577,2.8684,2.7172,2.7533,2.9833,2.8499,2.8661,3.0368,3.0768,3.0929,3.0875,3.0942,3.1223,3.1664,3.1664,3.1971,3.2465,3.2519,3.2719,3.3013,3.3293,3.3414,3.3414,3.3414,3.3574,3.3841,0.0,0.0,0.0,0.0,0.0,0.0,0.0,0.0,0.0,0.0,0.0,0.0,0.0,0.0,0.0,0.0,0.0,0.0,0.0,0.0,0.0,0.0,0.0,0.0,0.0,0.0,0.0,0.0,0.0,0.0,0.0,0.0,0.0,0.0,0.0,0.0,0.0,0.0,1.4299,1.4387,1.5601,0.0,1.9662,2.0789,2.2686,2.4582,2.3384,2.148,1.915,1.6817,1.6034,0.0,0.0,1.6034,1.5858,0.0,1.4299,1.4299,0.0,0.0,0.0,1.4299,0.0,0.0,0.0,1.3783,1.3675,0.0,0.0,0.0,0.0,0.0,0.0,0.0,0.0,0.0,0.0,0.0,0.0,0.0,0.0,0.0,1.5745,1.5981,1.7904,2.2353,2.6161,2.8221,2.8221,2.8444,2.8076,2.682,2.7373,2.7724,2.7862,2.8553,2.9348,3.0154,3.0875,3.1076,3.0808,3.1102,3.1476,3.1891,3.1891,3.2211,3.2759,3.2759,3.2933,3.3213,3.336,3.3414,3.3427,3.3587,3.3748,3.3948,0.0,0.0,0.0,0.0,0.0,0.0,0.0,0.0,0.0,0.0,0.0,0.0,0.0,0.0,0.0,0.0,0.0,0.0,0.0,0.0,0.0,0.0,0.0,1.4285,0.0,0.0,0.0,0.0,0.0,0.0,0.0,0.0,0.0,0.0,0.0,0.0,0.0,0.0,0.0,1.4476,0.0,1.7413,1.8017,1.9836,2.0789,2.1135,2.0702,1.9315,1.7763,1.7763,1.8104,1.8453,1.8453,1.8104,0.0,0.0,0.0,0.0,0.0,0.0,0.0,0.0,0.0,1.4224,0.0,0.0,0.0,0.0,0.0,0.0,0.0,0.0,0.0,0.0,0.0,0.0,0.0,0.0,0.0,0.0,0.0,0.0,1.4258,1.5066,1.7159,2.0962,2.5543,2.8221,2.8221,2.8004,2.7203,2.5745,2.7297,2.7622,2.6725,2.8907,3.0083,3.01,3.1102,3.133,3.0889,3.1423,3.1824,3.2104,3.2158,3.2492,3.2973,3.2973,3.3146,3.3414,3.3414,3.3454,3.3534,3.3788,3.3961,3.4122,0.0,0.0,0.0,0.0,0.0,0.0,0.0,0.0,0.0,0.0,0.0,0.0,0.0,0.0,0.0,0.0,0.0,0.0,1.4272,0.0,0.0,0.0,0.0,0.0,1.4102,0.0,0.0,0.0,0.0,0.0,0.0,0.0,0.0,0.0,1.4292,0.0,0.0,0.0,1.4299,0.0,1.4557,1.5946,0.0,1.8104,1.9401,2.0962,1.8889,1.8017,1.7763,0.0,1.9141,2.0789,0.0,1.9401,1.7763,0.0,0.0,0.0,0.0,0.0,0.0,0.0,1.4299,0.0,0.0,0.0,1.3973,1.3797,0.0,0.0,0.0,0.0,0.0,0.0,0.0,0.0,0.0,0.0,0.0,0.0,0.0,0.0,0.0,1.7931,2.0616,2.1135,2.5543,2.8221,2.8221,2.6498,2.6413,2.8443,2.4966,2.5331,2.9794,2.8347,2.8576,3.0702,3.1089,3.1236,3.1183,3.1517,3.1824,3.2118,3.2385,3.2679,3.2973,3.2973,3.3146,3.3414,3.3414,3.3587,3.3841,3.3868,3.4215,3.467,0.0,0.0,0.0,0.0,0.0,0.0,0.0,0.0,0.0,0.0,0.0,0.0,0.0,0.0,0.0,0.0,0.0,1.3966,0.0,0.0,0.0,0.0,0.0,0.0,0.0,0.0,0.0,0.0,1.4299,0.0,0.0,0.0,0.0,0.0,1.4258,0.0,1.4177,0.0,1.4299,0.0,0.0,0.0,0.0,1.577,1.6378,1.708,1.6122,1.577,1.621,0.0,2.0443,0.0,0.0,0.0,0.0,0.0,0.0,0.0,0.0,0.0,0.0,0.0,0.0,0.0,1.4217,0.0,1.4055,0.0,0.0,0.0,0.0,0.0,0.0,0.0,0.0,0.0,0.0,0.0,0.0,0.0,0.0,0.0,0.0,0.0,0.0,2.1135,2.4252,2.6758,2.8136,2.7706,2.7297,2.712,2.7079,2.7494,2.8439,2.9343,3.0075,3.0795,3.1436,3.165,3.149,3.1784,3.2171,3.2612,3.2746,3.2959,3.3227,3.3227,3.3414,3.3681,3.3681,3.3774,3.3921,3.4269,3.4656,3.5044,0.0,0.0,0.0,0.0,0.0,0.0,0.0,0.0,0.0,0.0,0.0,0.0,1.4231,1.4197,0.0,0.0,1.4034,1.4027,0.0,0.0,1.4102,0.0,0.0,0.0,0.0,0.0,0.0,0.0,0.0,0.0,0.0,0.0,0.0,0.0,0.0,1.4238,1.4143,0.0,0.0,1.4299,1.4299,1.4299,1.4299,1.4299,1.4734,1.5168,1.4557,1.5521,1.7597,2.0269,2.2084,0.0,2.3115,0.0,0.0,0.0,0.0,0.0,1.5425,0.0,0.0,0.0,0.0,0.0,0.0,0.0,0.0,0.0,0.0,0.0,0.0,0.0,0.0,0.0,0.0,0.0,0.0,0.0,0.0,0.0,0.0,0.0,0.0,0.0,0.0,2.0183,2.3041,2.547,2.7194,2.7659,2.7297,2.583,2.8035,2.8578,2.7192,3.0157,3.145,3.1036,3.1837,3.2078,3.1797,3.2171,3.2572,3.2986,3.3066,3.3213,3.3414,3.3507,3.3681,3.3908,3.4068,3.4175,3.4295,3.4723,3.507,3.5351,1.3607,1.3743,0.0,0.0,0.0,0.0,0.0,0.0,0.0,0.0,0.0,0.0,0.0,0.0,0.0,0.0,0.0,1.3912,1.4061,0.0,1.4007,0.0,0.0,1.4231,0.0,0.0,0.0,0.0,0.0,0.0,0.0,0.0,0.0,0.0,0.0,1.4299,1.4292,1.4299,1.4299,1.4299,1.4299,1.4299,1.4299,0.0,1.569,1.7413,1.508,0.0,0.0,2.1911,2.424,2.7968,2.7968,0.0,0.0,0.0,0.0,0.0,0.0,0.0,0.0,1.4911,0.0,0.0,0.0,0.0,1.7063,0.0,0.0,0.0,0.0,0.0,0.0,0.0,0.0,0.0,0.0,0.0,0.0,0.0,0.0,0.0,0.0,0.0,1.7842,1.7929,2.2094,2.4691,2.4776,2.511,2.5313,2.564,2.6179,2.6789,2.7274,3.026,3.1664,3.165,3.2251,3.2372,3.2104,3.2692,3.2959,3.2986,3.328,3.34,3.344,3.3748,3.3881,3.3948,3.4509,3.491,3.5151,3.5177,3.5364,3.5658,1.3451,1.3519,1.3566,0.0,0.0,0.0,0.0,1.3709,0.0,0.0,1.4407,0.0,0.0,1.476,1.4672,0.0,0.0,1.4265,1.4224,1.4129,0.0,0.0,0.0,1.4278,0.0,0.0,0.0,0.0,0.0,0.0,0.0,0.0,0.0,0.0,0.0,1.4299,0.0,0.0,0.0,0.0,0.0,1.4299,1.4299,0.0,1.577,1.7501,1.5168,1.6817,2.0009,1.9237,2.0009,2.1297,2.1297,2.1825,2.2084,2.0616,2.0616,2.1048,2.0269,2.0009,1.9836,1.9063,0.0,0.0,0.0,0.0,0.0,0.0,0.0,0.0,0.0,0.0,0.0,0.0,0.0,0.0,0.0,0.0,0.0,0.0,0.0,0.0,0.0,0.0,0.0,1.7667,2.0564,2.295,2.4594,2.6599,2.7084,2.5885,2.6408,2.6163,2.5014,2.8159,2.9578,2.9405,3.1751,3.2786,3.2692,3.2893,3.308,3.3267,3.3374,3.3414,3.344,3.3761,3.4002,3.4215,3.4603,3.5057,3.5458,3.5271,3.5511,3.5912,1.3471,1.3485,1.3498,1.3539,0.0,0.0,0.0,0.0,0.0,0.0,1.4726,0.0,1.5153,0.0,1.5086,0.0,1.4679,1.4509,1.4312,1.4204,0.0,1.4217,1.4272,0.0,0.0,0.0,0.0,0.0,0.0,1.4299,0.0,0.0,0.0,0.0,0.0,0.0,0.0,0.0,1.4299,0.0,0.0,1.4299,0.0,0.0,1.577,1.7501,1.5168,1.6298,1.8889,1.8104,1.8366,1.8976,1.8976,2.0009,2.1048,2.0443,2.1307,2.2428,2.2428,2.2428,2.2256,2.1394,2.1221,0.0,2.1221,0.0,2.217,0.0,0.0,0.0,0.0,0.0,0.0,0.0,0.0,0.0,0.0,0.0,0.0,0.0,0.0,0.0,0.0,0.0,1.4748,1.6278,1.9284,2.1713,2.3336,2.6982,2.7675,2.4729,2.6063,2.5516,2.2507,2.6595,2.8513,2.8265,3.1591,3.308,3.2986,3.3093,3.324,3.3414,3.3414,3.3414,3.344,3.3868,3.4148,3.4376,3.487,3.5297,3.5605,3.5418,3.5658,3.6032,1.3648,1.3627,1.3587,1.3437,1.3532,0.0,0.0,0.0,1.4421,0.0,1.4903,1.5059,1.5208,1.5228,1.5167,1.5018,1.4862,1.4652,1.4353,1.4319,0.0,0.0,1.4224,1.4299,1.4299,0.0,0.0,0.0,0.0,0.0,0.0,0.0,0.0,0.0,1.4299,0.0,1.4299,1.4299,1.4299,1.4299,1.4299,1.4299,1.4299,1.4299,1.569,1.7326,1.508,1.7159,2.0702,1.8366,1.9063,2.0875,2.0875,2.0962,2.148,2.3824,2.4605,2.4691,2.4861,2.4861,2.4337,2.2084,2.1566,2.1566,0.0,0.0,2.4252,0.0,0.0,0.0,0.0,0.0,0.0,0.0,0.0,0.0,0.0,0.0,0.0,0.0,0.0,0.0,0.0,1.4204,1.4163,1.3885,1.8397,2.11,0.0,2.6093,2.6866,2.227,2.5125,2.4472,1.9888,2.561,2.8328,2.8105,3.1685,3.3267,3.3013,3.328,3.3414,3.3414,3.3414,3.3414,3.348,3.4082,3.4322,3.4429,3.5271,3.5605,3.5605,3.5631,3.5805,3.5992,1.3492,1.3553,1.3614,1.358,1.36,1.3715,0.0,0.0,0.0,0.0,1.5303,1.5567,1.5825,1.5852,1.575,1.5493,1.533,0.0,0.0,0.0,0.0,1.4401,1.4333,1.4299,1.4299,1.4299,0.0,1.4299,0.0,0.0,1.4299,0.0,0.0,0.0,0.0,0.0,1.4299,1.4299,1.4299,1.4299,1.4299,1.4299,1.4299,0.0,1.4646,1.508,1.4564,1.621,1.8279,1.5946,1.5601,1.6034,1.6034,1.7247,1.9141,2.1394,2.3298,2.5117,2.6842,2.7279,2.7181,2.6575,2.6406,2.6406,2.6406,2.6842,0.0,0.0,0.0,0.0,0.0,0.0,0.0,0.0,0.0,0.0,0.0,0.0,0.0,0.0,0.0,0.0,1.4245,1.4068,1.4021,1.417,1.8308,2.0942,2.112,0.0,2.6866,2.227,2.3354,2.1788,1.7335,2.2912,2.5797,2.5914,3.0952,3.3374,3.3307,3.3374,3.3414,3.3414,3.3414,3.3547,3.3801,3.4162,3.4456,3.4696,3.5137,3.5311,3.5338,3.5551,3.5538,3.5418,1.362,1.3715,1.3824,1.3824,0.0,0.0,1.4238,1.4462,0.0,1.5052,1.5411,0.0,1.5778,1.5906,1.5886,1.5655,1.5438,0.0,1.4889,0.0,0.0,1.4421,1.434,1.4299,1.4299,1.4299,0.0,1.4299,0.0,0.0,1.4299,0.0,0.0,0.0,0.0,1.4299,0.0,1.4299,1.4299,1.4299,1.4299,1.4299,0.0,1.4299,1.4299,1.4299,1.4299,1.5168,1.6034,1.4734,1.4299,1.4299,1.4299,1.5168,1.6729,1.9063,2.0616,2.217,2.4496,2.5105,2.5373,2.6406,2.6673,2.6927,2.7968,2.8221,2.8221,2.8221,2.7194,2.5896,2.4861,2.2611,0.0,0.0,0.0,0.0,0.0,0.0,0.0,0.0,0.0,0.0,1.4299,1.4143,1.4489,1.5553,1.8934,2.1428,0.0,0.0,2.579,2.2168,2.1754,2.0446,1.8089,2.2617,2.5558,2.68,3.1328,3.3414,3.3414,3.3414,3.3414,3.3414,3.3561,3.3721,3.3921,3.4336,3.4683,3.4977,3.5271,3.5378,3.5391,3.5431,3.5338,3.5217,0.0,0.0,0.0,0.0,0.0,0.0,0.0,1.4746,0.0,1.5038,0.0,1.5649,1.5513,1.573,1.5818,1.5655,0.0,1.512,1.4814,1.4638,1.4489,1.4367,1.4319,1.4299,1.4299,1.4299,1.4299,0.0,0.0,0.0,0.0,0.0,0.0,0.0,0.0,0.0,0.0,1.4299,1.4299,1.4299,1.4299,1.4299,1.4299,1.4299,1.4299,1.4299,1.4299,1.4299,1.4299,1.4299,1.4299,1.4299,1.4299,1.4299,1.4734,1.7071,1.7763,1.8279,2.0616,2.1221,2.1739,2.4081,2.4691,2.5288,2.7617,2.8221,2.8221,2.8221,2.8261,2.7598,2.5604,0.0,0.0,0.0,0.0,0.0,0.0,0.0,0.0,0.0,0.0,0.0,1.4299,1.4285,1.5119,1.7222,1.9695,0.0,0.0,0.0,2.4364,2.2218,2.0639,1.9989,2.0476,2.3571,2.6542,2.9285,3.2132,3.3494,3.3534,3.3534,3.3534,3.3547,3.3828,3.3961,3.4042,3.4549,3.4937,3.5217,3.5471,3.5591,3.5605,3.5351,3.5271,3.5338,0.0,0.0,0.0,0.0,0.0,1.478,1.5025,1.5303,1.5493,1.552,1.5805,1.5995,1.5967,1.6008,1.5934,1.5662,1.5588,0.0,0.0,0.0,0.0,1.4665,1.4428,1.4299,1.4299,1.4299,1.4299,0.0,1.4299,1.4299,0.0,0.0,0.0,0.0,0.0,0.0,1.4299,1.4299,0.0,1.4299,1.4299,1.4299,1.4299,1.4299,1.4299,1.4299,1.4299,1.4299,1.4299,1.4299,1.4299,1.4299,1.4299,1.4299,1.4734,1.7071,1.7763,1.8279,2.0616,2.1221,2.1739,2.4081,2.4691,2.5288,2.7617,2.8221,2.8221,2.8221,2.835,2.8438,2.7997,2.6327,0.0,0.0,0.0,0.0,0.0,0.0,0.0,0.0,0.0,0.0,0.0,0.0,0.0,0.0,0.0,0.0,0.0,0.0,2.4442,0.0,2.0472,2.004,0.0,0.0,2.6729,2.9986,3.2634,3.3935,3.4162,3.4162,3.4162,3.4162,3.4215,3.4389,3.4616,3.4723,3.4937,3.5204,3.5257,3.5418,3.5618,3.5578,3.5712,3.5885,0.0,0.0,0.0,0.0,0.0,0.0,0.0,1.5676,1.5784,1.5554,1.5716,1.5818,1.5744,1.5872,1.5872,1.5655,1.5567,1.5357,1.4977,1.4821,1.4672,1.4516,1.4373,1.4299,1.4299,1.4299,1.4299,1.4299,1.4299,1.4299,0.0,0.0,0.0,0.0,0.0,1.4299,0.0,0.0,0.0,1.4299,1.4299,1.4299,1.4299,1.4299,1.4299,1.4299,1.4299,1.4299,1.4299,1.4299,1.4299,1.4299,1.4299,1.4299,1.4564,1.569,1.5946,1.621,1.7334,1.7597,1.8462,2.1998,2.2869,2.3812,2.7363,2.8221,2.8221,2.8221,2.839,2.8604,2.8604,2.7719,2.6474,2.5068,0.0,0.0,0.0,0.0,0.0,0.0,0.0,0.0,0.0,0.0,0.0,0.0,0.0,0.0,0.0,0.0,2.3694,0.0,0.0,0.0,2.5328,0.0,2.8894,3.2096,3.3324,3.4042,3.4322,3.4322,3.4322,3.4336,3.4643,3.4776,3.479,3.5084,3.5204,3.5204,3.5364,3.5511,3.5631,3.5631,3.5912,3.6259,0.0,1.4326,0.0,0.0,1.5011,1.5269,1.5588,1.5893,1.5954,1.5601,1.5662,1.5689,1.5567,1.573,1.5798,1.5649,1.5499,1.5248,1.4855,1.4808,1.4672,1.4407,1.436,1.4333,1.4299,1.4299,1.4285,0.0,1.4285,1.4265,1.4204,0.0,0.0,0.0,0.0,0.0,0.0,1.4299,1.4299,1.4299,1.4299,1.4299,1.4299,1.4299,1.4299,1.4299,1.4299,1.4299,1.4299,1.4299,1.4299,1.4299,1.4299,1.4299,1.4299,1.4299,1.4299,1.4299,1.4299,1.4299,1.5256,1.9411,2.0875,2.2342,2.6491,2.7883,2.8221,2.8221,2.839,2.8631,2.8684,2.8644,2.8524,2.8283,0.0,0.0,0.0,0.0,0.0,0.0,0.0,0.0,0.0,0.0,0.0,0.0,0.0,2.2772,2.6491,2.3358,2.2653,0.0,0.0,2.307,2.9019,0.0,3.1052,3.4068,3.4015,3.4162,3.4509,3.4576,3.4603,3.4629,3.5151,3.5217,3.4977,3.5444,3.5498,3.5311,3.5538,3.5712,3.5819,3.5819,3.6153,3.654,0.0,0.0,0.0,0.0,0.0,1.5744,1.5649,1.5893,1.6062,1.6022,1.6035,1.6035,1.6022,1.592,1.5798,1.5649,1.5499,1.5337,1.5153,1.5018,1.4875,1.4706,1.4563,1.4434,1.4306,1.4299,1.4231,0.0,1.4231,1.4156,1.3892,0.0,0.0,0.0,0.0,1.4299,1.4299,1.4299,1.4299,1.4299,1.4299,1.4299,1.4299,1.4299,1.4299,1.4299,1.4299,1.4299,1.4299,1.4299,1.4299,1.4299,1.4299,1.4299,1.4299,1.4299,1.4299,1.4299,1.4299,1.4299,1.4911,1.7501,1.9662,2.1825,2.4423,2.6673,2.8221,2.8221,2.839,2.8684,2.8951,2.8778,2.8591,2.8564,0.0,0.0,0.0,0.0,0.0,0.0,0.0,0.0,0.0,1.7501,0.0,0.0,2.2428,2.1394,2.1825,2.1608,2.1779,2.2647,2.0955,2.2915,2.8908,2.9201,3.1166,3.4683,3.4416,3.4576,3.5124,3.5391,3.5511,3.5525,3.5845,3.5819,3.5551,3.5605,3.5618,3.5591,3.5618,3.5952,3.6433,3.6433,3.662,3.6834,0.0,0.0,1.5072,1.5398,0.0,1.5689,1.5995,1.6144,1.6246,1.6334,1.6191,1.6083,1.6083,1.5947,1.5798,1.5649,1.5499,1.5309,1.5072,1.5004,1.4862,1.4611,1.4543,1.4441,1.4306,1.4299,1.4272,0.0,0.0,1.4238,1.4122,1.4245,1.4299,1.4299,1.4299,1.4299,1.4299,1.4299,1.4299,1.4299,1.4299,1.4299,1.4299,1.4299,1.4299,1.4299,1.4299,1.4299,1.4299,1.4299,1.4299,1.4299,1.4299,1.4299,1.4299,1.4299,1.4299,1.4299,1.4299,1.4299,1.4822,1.7247,1.9488,2.1825,2.4166,2.6503,2.8221,2.8221,2.839,2.8698,2.8991,2.8951,2.8804,2.8631,2.8644,0.0,0.0,0.0,0.0,0.0,0.0,0.0,0.0,0.0,0.0,0.0,0.0,2.3298,2.3298,2.2005,2.1727,2.2525,0.0,2.4456,2.8883,3.1013,3.2929,3.4496,3.4736,3.5057,3.5471,3.5765,3.5992,3.6139,3.5912,3.5845,3.5885,3.5698,3.5631,3.5645,3.5819,3.6153,3.65,3.65,3.6687,3.6874,1.5296,1.5269,1.5343,1.571,1.575,1.5866,1.6252,1.6347,1.6408,1.651,1.6341,1.6198,1.6151,1.6008,1.5845,1.5655,1.5499,1.5303,1.5052,1.5031,1.4916,1.4658,1.4604,0.0,1.4367,1.4319,1.4278,1.4231,1.4278,1.4251,1.4163,1.4211,1.4258,1.4299,1.4299,1.4299,1.4299,1.4299,1.4299,1.4299,1.4299,1.4299,1.4299,1.4299,1.4299,1.4299,1.4299,1.4299,1.4299,1.4299,1.4299,1.4299,1.4299,1.4299,1.4299,1.4299,1.4299,1.4299,1.4299,1.4299,1.4734,1.6378,1.854,2.0789,2.3126,2.5458,2.7389,2.8172,2.8524,2.8818,2.9112,2.9098,2.9005,2.8885,2.8965,0.0,0.0,2.8524,0.0,0.0,2.2654,2.1221,2.1221,0.0,0.0,0.0,0.0,0.0,2.2783,2.1801,2.1343,0.0,0.0,0.0,2.8836,3.2235,3.4122,3.4576,3.5004,3.5391,3.5765,3.6072,3.6313,3.6473,3.6153,3.6032,3.6059,3.5939,3.5885,3.5912,3.6206,3.6473,3.6647,3.6727,3.6794,3.6754,1.5574,1.5744,1.5893,1.6049,1.6313,1.6463,1.6334,1.6429,1.6517,1.6524,1.6517,1.6463,1.632,1.6171,1.5961,1.5662,1.5499,1.5343,1.5187,1.5181,1.5113,0.0,0.0,1.4665,1.4509,1.4373,1.4224,1.4075,0.0,0.0,1.3851,1.4,1.4156,1.4299,1.4299,1.4299,1.4299,1.4299,1.4299,1.4299,1.4299,1.4299,1.4299,1.4299,1.4299,1.4299,1.4299,1.4299,1.4299,1.4299,1.4299,1.4299,1.4299,1.4299,1.4299,1.4299,1.4299,1.4299,1.4299,1.4299,1.4299,1.4299,1.6122,1.8453,2.0702,2.3041,2.5458,2.8096,2.8831,2.9125,2.9419,2.9245,2.9138,2.9419,2.9232,0.0,0.0,0.0,0.0,0.0,2.2751,2.1221,2.1221,2.1221,0.0,0.0,0.0,0.0,0.0,2.0122,2.061,1.9031,2.2342,0.0,2.8896,3.2237,3.4322,3.5191,3.5191,3.5498,3.6072,3.6366,3.65,3.6513,3.6794,3.6607,3.6099,3.638,3.65,3.654,3.6834,3.6941,3.6981,3.7275,3.7021,3.6473,1.592,1.5974,1.6022,1.6076,1.6157,1.6273,1.6429,1.649,1.6598,1.6809,1.6836,1.6734,1.6483,1.6327,1.6076,0.0,1.5594,1.5459,0.0,1.5092,1.497,1.4821,1.4665,1.4516,1.4373,1.4326,1.4278,1.4231,0.0,1.4251,1.4156,1.4204,1.4251,1.4299,1.4299,1.4299,1.4299,1.4299,1.4299,1.4299,1.4299,1.4299,1.4299,1.4299,1.4299,1.4299,1.4299,1.4299,1.4299,1.4299,1.4299,1.4299,1.4299,1.4299,1.4319,1.4414,1.4373,1.4319,1.4421,1.4373,1.4299,1.4299,1.6034,1.8366,2.0702,2.439,2.7667,2.8658,2.8978,2.9125,2.9432,2.9406,2.9379,2.9472,2.9566,0.0,2.8831,0.0,0.0,0.0,2.3686,2.2428,2.5629,2.327,0.0,0.0,0.0,0.0,0.0,2.1433,2.0244,1.6634,2.1512,0.0,2.6375,3.1778,3.4723,3.5204,3.6006,3.658,3.6981,3.7048,3.6981,3.6794,3.6687,3.654,3.638,3.6473,3.65,3.654,3.6834,3.6941,3.6941,3.7048,3.6981,3.6754,1.6083,1.6083,1.6096,1.6157,1.6212,1.6327,1.6571,1.6659,1.6761,1.6958,1.6978,1.6863,1.6558,1.6442,1.6205,1.5757,1.5669,1.5533,1.5282,1.5133,1.4984,1.4835,1.4679,1.4529,1.438,1.4326,1.4299,1.4299,1.4299,1.4299,1.4299,1.4299,1.4299,1.4299,1.4299,1.4299,1.4299,1.4299,1.4299,1.4299,1.4299,1.4299,1.4299,1.4299,1.4299,1.4299,1.4299,1.4299,1.4299,1.4299,1.4299,1.4299,1.4299,1.434,1.4394,1.4482,1.4448,1.4401,1.4489,1.4489,1.4441,1.4326,1.5469,1.7425,2.0647,2.45,2.7779,2.8964,2.9299,2.9419,2.9606,2.9646,2.9646,2.9646,2.9713,2.9566,2.9018,0.0,0.0,0.0,0.0,2.3776,2.674,2.4789,2.4402,0.0,0.0,0.0,0.0,0.0,1.9209,1.5745,2.1468,2.505,2.5788,3.1874,3.5231,3.5859,3.6687,3.7195,3.7382,3.7275,3.7048,3.6794,3.6834,3.6767,3.6687,3.6901,3.6941,3.6874,3.7155,3.7128,3.6941,3.7048,3.6981,3.6754,1.6083,1.609,1.6137,1.6273,1.6422,1.6571,1.6714,1.6863,1.6971,1.6978,1.6978,1.687,1.6571,1.653,1.6347,1.592,1.5737,1.5581,1.5438,1.5262,1.5106,1.4977,1.4814,1.4652,1.4502,1.4367,1.4299,1.4299,1.4299,1.4299,1.4299,1.4299,1.4299,1.4299,1.4299,1.4299,1.4299,1.4299,1.4299,1.4299,1.4299,1.4299,1.4299,1.4299,1.4299,1.4299,1.4299,1.4299,1.4299,1.4299,1.4299,1.4299,1.4312,1.4407,1.4516,1.4523,1.4529,1.4529,1.4536,1.4638,1.4672,1.4387,1.4503,1.5928,2.0431,2.3622,2.6303,2.8752,2.9677,2.998,2.998,2.998,2.9967,2.9953,2.97,2.9499,2.9459,2.8965,0.0,0.0,0.0,2.5189,2.5386,2.5749,2.6146,0.0,0.0,0.0,0.0,0.0,1.7803,1.6196,2.2076,2.5748,2.6714,3.2398,3.5832,3.6981,3.7235,3.7382,3.7382,3.7088,3.6834,3.6607,3.7128,3.7235,3.7048,3.7555,3.7635,3.7422,3.7662,3.7408,3.6981,3.7235,3.7021,3.654,1.6083,1.6178,1.6232,1.6151,1.6347,1.653,1.6571,1.6707,1.6849,1.6965,1.6978,1.691,1.6714,1.6592,1.6435,1.6218,1.5859,1.5622,1.5588,1.5228,1.5004,1.497,1.4713,1.4496,1.4353,1.4319,1.4299,1.4299,1.4299,1.4299,1.4299,1.4299,1.4299,1.4299,1.4299,1.4299,1.4299,1.4299,1.4299,1.4299,1.4299,1.4299,1.4299,1.4299,1.4299,1.4299,1.4299,1.4299,1.4299,1.4299,1.4299,1.4319,1.4428,1.4482,1.4536,1.4652,1.4685,1.4713,1.4828,1.4801,1.4699,1.4509,1.5809,1.755,1.8838,2.274,2.6304,2.7214,2.9077,3.0581,3.0581,3.0581,3.0515,3.0287,3.0007,2.9659,2.9205,2.8831,2.8604,0.0,2.6748,2.6246,2.8253,2.7124,2.7135,0.0,0.0,2.4301,2.3269,1.9257,1.6862,1.6415,2.2527,2.6123,2.6724,3.2779,3.634,3.7275,3.7342,3.7382,3.7382,3.7315,3.7235,3.7195,3.7315,3.7448,3.7595,3.7529,3.7448,3.7382,3.7195,3.7048,3.6941,3.7008,3.6941,3.6834,1.6273,1.6347,1.6402,1.6388,1.6517,1.6653,1.672,1.6802,1.6883,1.6971,1.6978,1.6897,1.6666,1.6571,1.6435,1.6225,1.592,1.5737,1.5737,1.5445,1.5215,1.5072,1.4909,1.4685,1.4401,1.4394,1.4367,1.4299,1.4299,1.4299,1.4299,1.4299,1.4299,1.4299,1.4299,1.4333,1.4394,1.4326,1.434,1.4394,1.4326,1.4299,1.4299,1.4299,1.4299,1.4306,1.4373,1.4353,1.4319,1.4455,1.4455,1.4421,1.457,1.4665,1.474,1.4821,1.4841,1.4862,1.495,1.4957,1.4909,1.476,1.5705,1.7006,1.835,2.1814,2.5088,2.655,2.8976,3.0795,3.0795,3.0795,3.0648,3.0221,2.9913,2.9513,2.8925,2.8711,2.8657,2.8791,2.8217,2.8373,2.9957,2.9453,2.9525,3.0663,2.874,0.0,2.3743,2.3058,2.1518,1.898,2.3763,2.7287,2.9174,3.4237,3.6914,3.7382,3.7382,3.7448,3.7569,3.7448,3.7448,3.7595,3.7716,3.7782,3.7809,3.7782,3.7635,3.7382,3.7195,3.7048,3.6941,3.6941,3.6941,3.6941,1.649,1.6524,1.6558,1.6666,1.672,1.6788,1.6897,1.6951,1.6978,1.6978,1.6978,1.687,1.6585,1.6558,1.6435,1.6144,1.6015,1.5934,1.5893,1.573,1.5513,1.5228,1.5194,1.497,1.4523,1.4489,1.4421,1.4299,1.4299,1.4299,1.4299,1.4299,1.4299,1.4299,1.4326,1.4401,1.4502,1.4407,1.4421,1.4502,1.438,1.4319,1.4299,1.4299,1.4312,1.4346,1.4468,1.4448,1.4407,1.4658,1.4652,1.457,1.4726,1.4862,1.4977,1.5025,1.5038,1.5038,1.5038,1.5126,1.5187,1.5065,1.5038,1.5617,1.7864,2.0479,2.3135,2.539,2.8221,3.0359,3.0359,3.0611,3.0662,3.0074,2.97,2.9285,2.8684,2.8604,2.8751,2.9125,2.9913,3.0568,3.0955,3.1664,3.1931,3.1517,3.1568,2.9625,2.5012,2.729,2.708,2.3322,2.5985,2.9229,3.2855,3.5785,3.7275,3.7315,3.7342,3.7489,3.7676,3.7529,3.7595,3.7823,3.8143,3.8116,3.7889,3.8116,3.7863,3.7382,3.7342,3.7155,3.6941,3.6981,3.6981,3.6941,1.649,1.6524,1.649,1.6395,1.6585,1.6714,1.6612,1.6815,1.6978,1.6978,1.6978,1.691,1.6734,1.6714,1.6592,1.63,1.6361,1.6313,1.6062,1.5791,1.556,1.5384,1.5248,1.497,1.4523,1.4394,1.4326,1.4299,1.4299,1.4299,1.4299,1.4299,1.4299,1.4306,1.4428,1.4489,1.4516,1.4624,1.4611,1.4509,1.4489,1.4407,1.4299,1.4299,1.4373,1.4482,1.4502,1.4577,1.4679,1.4726,1.4726,1.4733,1.4889,1.495,1.5018,1.5269,1.5343,1.5343,1.5343,1.5357,1.5371,1.535,1.5343,1.5445,1.5839,1.824,2.0404,2.0807,2.4801,2.8236,2.8236,2.9879,3.0969,3.0381,2.9833,2.9285,2.8684,2.8604,2.8898,2.9686,3.0341,3.1036,3.1824,3.2024,3.2265,3.2679,2.8317,2.6623,2.8813,2.5147,2.5147,2.9783,3.0556,3.2652,3.6184,3.648,3.6754,3.7008,3.7275,3.7275,3.7088,3.7555,3.7782,3.7823,3.8143,3.8223,3.8183,3.7969,3.7676,3.7342,3.7114,3.6981,3.6967,3.7235,3.7155,3.6981,1.6619,1.6714,1.6748,1.668,1.6781,1.6849,1.6781,1.689,1.6978,1.6978,1.6978,1.6924,1.6768,1.6748,1.6659,1.6442,1.6483,1.6429,1.6218,1.6076,1.5859,1.5547,1.5466,1.5181,1.4645,1.4414,1.4299,1.4299,1.4299,1.434,1.4414,1.4414,1.4462,1.4536,1.4604,1.4679,1.476,1.4746,1.4699,1.4624,1.4543,1.4428,1.4306,1.4387,1.4455,1.4529,1.4699,1.4753,1.4767,1.4923,1.493,1.4889,1.5038,1.5086,1.5126,1.535,1.5466,1.5533,1.5533,1.5533,1.5533,1.5533,1.5594,1.5669,1.575,1.7976,2.0038,2.0139,2.436,2.768,2.6201,2.9042,3.107,2.9206,2.9365,2.9619,2.9352,2.9312,2.9579,3.0301,3.1183,3.1957,3.2519,3.2866,3.3106,3.32,2.9575,2.8074,2.9779,2.7712,2.7952,3.153,3.3505,3.53,3.683,3.6794,3.6901,3.7195,3.7315,3.7489,3.7676,3.7929,3.8036,3.8076,3.8183,3.8076,3.7782,3.7635,3.7422,3.7128,3.6981,3.7048,3.7168,3.7155,3.7155,3.7168,1.6727,1.6842,1.6931,1.6931,1.6931,1.6931,1.6931,1.6958,1.6978,1.6978,1.6978,1.6924,1.6768,1.6781,1.6727,1.6537,1.6558,1.651,1.6368,1.6327,1.611,1.5655,1.554,1.5269,1.4801,1.4536,1.4401,1.4401,1.4401,1.4475,1.4618,1.4584,1.4645,1.4794,1.4828,1.4889,1.497,1.4916,1.4855,1.478,1.4665,1.4529,1.4414,1.4523,1.459,1.4652,1.4889,1.4916,1.4875,1.5106,1.5113,1.5045,1.5187,1.5235,1.5269,1.5459,1.5649,1.5778,1.571,1.5764,1.5825,1.5757,1.5879,1.6029,1.6117,1.7829,1.9372,1.9509,2.3236,2.5933,2.3727,2.7622,3.0311,2.7913,2.8947,3.01,3.0034,3.0074,3.0368,3.1022,3.2011,3.2786,3.316,3.3668,3.3881,3.3641,3.1417,3.0314,3.1114,3.0727,3.1261,3.2895,3.5397,3.6861,3.6941,3.6941,3.7088,3.7382,3.7529,3.7782,3.8143,3.829,3.829,3.8143,3.8223,3.7929,3.7382,3.7382,3.7195,3.6941,3.6941,3.7088,3.7275,3.7088,3.7155,3.7235,1.6748,1.6761,1.6768,1.6768,1.6768,1.6768,1.6768,1.689,1.6978,1.6978,1.6978,1.6924,1.6768,1.6876,1.6842,1.6551,1.6653,1.6666,1.6517,1.6381,1.611,1.5655,1.5242,1.4997,1.4957,1.4794,1.4706,1.4706,1.4706,1.4787,1.4936,1.4787,1.4808,1.4964,1.5092,1.5086,1.4991,1.5248,1.5201,1.495,1.4943,1.4848,1.4706,1.4719,1.4814,1.4943,1.4964,1.5052,1.5153,1.5174,1.5174,1.5194,1.5343,1.5391,1.5452,1.5737,1.6029,1.6198,1.5913,1.6137,1.6388,1.6117,1.6259,1.6442,1.632,1.6503,1.681,1.6823,1.9034,2.094,2.0738,2.4851,2.8076,2.7296,2.9148,3.0635,3.0368,3.0555,3.1049,3.1904,3.2559,3.3173,3.3761,3.4108,3.4282,3.4255,3.1755,3.1463,3.428,3.2306,3.2721,3.6379,3.6524,3.6647,3.6941,3.6941,3.7088,3.7382,3.7929,3.8076,3.7849,3.8437,3.8397,3.7849,3.8143,3.7929,3.7382,3.7382,3.7195,3.6941,3.6941,3.6941,3.7008,3.7275,3.7195,3.6967,1.6727,1.6829,1.6897,1.6897,1.6897,1.6897,1.6897,1.6944,1.6978,1.6978,1.6978,1.6958,1.6897,1.6944,1.6897,1.668,1.6714,1.6686,1.653,1.6469,1.6239,1.5791,1.5432,1.5201,1.5106,1.5045,1.497,1.4882,1.497,1.5092,1.5242,1.5181,1.5235,1.5384,1.5445,1.5384,1.5248,1.5364,1.5242,1.497,1.497,1.4875,1.476,1.4943,1.4997,1.5011,1.5282,1.5357,1.5337,1.5432,1.5466,1.5479,1.5533,1.5554,1.5608,1.5906,1.6273,1.6537,1.6327,1.6388,1.6497,1.6381,1.6435,1.653,1.6571,1.6625,1.6693,1.6788,1.8957,2.0282,1.8647,2.3962,2.8008,2.6185,2.8946,3.1423,3.1772,3.165,3.1864,3.2559,3.3,3.348,3.4095,3.4255,3.4402,3.4576,3.2177,3.1965,3.5178,3.4916,3.5339,3.6817,3.7008,3.7088,3.7195,3.7195,3.7342,3.7662,3.8076,3.829,3.8397,3.8397,3.821,3.7809,3.7742,3.7489,3.7114,3.7114,3.7048,3.6941,3.6941,3.7048,3.7195,3.6941,3.6874,3.6901,1.6741,1.6876,1.6978,1.6978,1.6978,1.6978,1.6978,1.6978,1.6978,1.6978,1.6978,1.6978,1.6978,1.6978,1.6937,1.6829,1.6781,1.6727,1.6673,1.6619,1.6395,1.5947,1.5683,1.5479,1.533,1.5323,1.5276,1.5181,1.5276,1.5404,1.5547,1.5506,1.556,1.571,1.571,1.5622,1.5486,1.5533,1.5404,1.5181,1.5181,1.512,1.5045,1.5248,1.5262,1.5221,1.5527,1.5574,1.5506,1.5655,1.571,1.5723,1.5818,1.5879,1.5967,1.6218,1.651,1.6734,1.668,1.6666,1.6639,1.6544,1.6592,1.668,1.6734,1.6788,1.6849,1.6958,1.8529,1.9253,1.7398,2.2222,2.612,2.5185,2.7656,3.0336,3.2443,3.1855,3.1788,3.3114,3.3601,3.4002,3.4416,3.4549,3.4683,3.4883,3.3316,3.3444,3.5898,3.6607,3.7048,3.7342,3.7382,3.7422,3.7529,3.7422,3.7529,3.7809,3.8036,3.829,3.8584,3.825,3.7969,3.7676,3.7462,3.7195,3.6941,3.6941,3.6901,3.6794,3.6901,3.6941,3.6941,3.662,3.658,3.662,1.6781,1.6876,1.6978,1.6978,1.6978,1.6978,1.6978,1.6978,1.6978,1.6978,1.6978,1.6978,1.6978,1.6978,1.6978,1.6978,1.6836,1.6815,1.6971,1.6836,1.6551,1.6103,1.594,1.5791,1.5649,1.5642,1.5642,1.5642,1.5642,1.5716,1.5852,1.571,1.5716,1.5852,1.5852,1.5778,1.5649,1.5791,1.5771,1.5642,1.5642,1.5642,1.5642,1.5642,1.5642,1.5642,1.5642,1.5642,1.5669,1.5811,1.5859,1.5913,1.6218,1.6408,1.6551,1.6707,1.6748,1.6788,1.6937,1.6978,1.6904,1.6598,1.6754,1.6937,1.6788,1.687,1.6985,1.6985,1.6985,1.6985,1.6985,1.9253,2.1966,2.4404,2.4951,2.6869,3.2207,3.1012,3.063,3.3475,3.4402,3.475,3.4763,3.503,3.5191,3.5204,3.5471,3.6019,3.6901,3.6941,3.7342,3.8223,3.7676,3.7529,3.7809,3.7529,3.7529,3.7809,3.7809,3.7969,3.825,3.7956,3.7662,3.7382,3.7382,3.7195,3.6941,3.6941,3.6754,3.654,3.6834,3.658,3.6112,3.6393,3.6326,3.6072,1.6876,1.6951,1.6978,1.6978,1.6978,1.6978,1.6978,1.5271,1.399,1.399,1.399,1.399,1.399,1.5803,1.6937,1.6829,1.6775,1.6768,1.6815,1.6876,1.6802,1.6564,1.6307,1.6103,1.5954,1.5947,1.5893,1.5791,1.5893,1.5974,1.6015,1.5967,1.5974,1.6015,1.6015,1.5927,1.5791,1.5839,1.5771,1.5649,1.575,1.5791,1.5798,1.5906,1.5947,1.5947,1.5947,1.6022,1.6117,1.6157,1.6239,1.6341,1.6429,1.6564,1.6686,1.6734,1.6829,1.6924,1.6971,1.6978,1.6958,1.6863,1.6917,1.6971,1.6924,1.7026,1.7127,1.7127,1.7127,1.7161,1.727,2.1074,2.4533,2.5444,2.7155,2.8997,3.0654,3.0232,3.0145,3.1359,3.3188,3.4616,3.503,3.4963,3.5057,3.5471,3.6153,3.658,3.662,3.7422,3.7889,3.7956,3.7782,3.7742,3.7809,3.7529,3.7422,3.7529,3.7702,3.7849,3.7929,3.7635,3.7462,3.7382,3.7155,3.7008,3.6941,3.6727,3.658,3.65,3.638,3.6353,3.6366,3.6246,3.6153,3.6072,1.6944,1.6978,1.6978,1.6978,1.6978,1.6978,1.6978,1.4528,1.2716,1.2716,1.2716,1.2716,1.2716,1.5271,1.6944,1.6849,1.6842,1.6842,1.6842,1.6931,1.6937,1.6842,1.6612,1.6415,1.6259,1.6252,1.6185,1.6035,1.613,1.6144,1.6083,1.6083,1.611,1.6171,1.611,1.6096,1.611,1.6056,1.6015,1.5995,1.6083,1.6117,1.613,1.6218,1.6252,1.6252,1.6252,1.6313,1.6402,1.6463,1.6578,1.67,1.67,1.6768,1.6842,1.6842,1.691,1.6978,1.6978,1.6978,1.6992,1.7053,1.7026,1.6992,1.7053,1.7127,1.7209,1.727,1.7283,1.7311,1.7405,2.1037,2.4137,2.4154,2.5621,2.7499,2.9643,2.9167,2.9386,3.1825,3.3628,3.4857,3.5324,3.5204,3.5391,3.6099,3.654,3.6834,3.7008,3.7595,3.7889,3.7809,3.7595,3.7489,3.7489,3.7048,3.7048,3.7382,3.7448,3.7529,3.7635,3.7342,3.7195,3.7195,3.7008,3.6861,3.6754,3.658,3.6366,3.6153,3.6099,3.6112,3.6153,3.6099,3.6072,3.6086,1.6978,1.6978,1.6978,1.6978,1.6978,1.6978,1.6978,1.4312,1.2295,1.2295,1.2084,1.2084,1.2295,1.4844,1.6768,1.6978,1.6978,1.6978,1.6978,1.6978,1.6978,1.6978,1.6842,1.6707,1.6564,1.6537,1.6456,1.6327,1.6327,1.6259,1.6123,1.6123,1.6198,1.632,1.6185,1.6273,1.651,1.6381,1.6402,1.6524,1.6537,1.6544,1.6544,1.6544,1.6551,1.6558,1.653,1.6537,1.6585,1.672,1.6863,1.6978,1.6978,1.6978,1.6978,1.6978,1.6978,1.6978,1.6978,1.6978,1.7012,1.7154,1.7093,1.7039,1.7182,1.7222,1.727,1.7412,1.7439,1.7446,1.746,1.9884,2.1784,2.1588,2.183,2.3796,2.9003,2.7856,2.8477,3.3902,3.4965,3.5351,3.5645,3.5712,3.6072,3.6834,3.6727,3.6941,3.7702,3.7529,3.7529,3.7782,3.7235,3.6941,3.6941,3.6366,3.6473,3.7275,3.6981,3.7008,3.7301,3.7008,3.6901,3.6941,3.6941,3.6754,3.65,3.6473,3.6139,3.5658,3.5899,3.5859,3.5698,3.5979,3.6072,3.6099,1.6958,1.6978,1.6978,1.6978,1.6978,1.6978,1.6978,1.2721,0.9439,0.9439,0.7429,0.6899,0.9122,1.1978,1.4528,1.6768,1.6978,1.6978,1.6978,1.6978,1.6978,1.6978,1.6951,1.6917,1.6883,1.6646,1.6503,1.6476,1.6476,1.6456,1.6429,1.6429,1.6442,1.6476,1.6442,1.6463,1.6517,1.649,1.649,1.653,1.6653,1.67,1.67,1.67,1.6775,1.6849,1.6605,1.668,1.689,1.6917,1.6951,1.6978,1.6978,1.6978,1.6978,1.6978,1.6978,1.6978,1.6978,1.6978,1.7012,1.7154,1.7168,1.7182,1.7338,1.7467,1.7561,1.7595,1.7602,1.7629,1.7738,2.0039,2.2022,2.2067,2.1999,2.3251,2.6796,2.6735,2.7771,3.1582,3.4073,3.5658,3.5952,3.6393,3.6647,3.6607,3.7168,3.7408,3.7155,3.7489,3.7635,3.7489,3.7128,3.6941,3.6941,3.6366,3.6166,3.6353,3.6286,3.6393,3.6687,3.662,3.6727,3.6941,3.6941,3.6754,3.65,3.6259,3.5952,3.5618,3.5444,3.5631,3.5979,3.6046,3.6072,3.6046,1.6965,1.6978,1.6978,1.6978,1.6978,1.6978,1.6978,1.2194,0.8487,0.8487,0.5947,0.5313,0.817,1.1024,1.3885,1.6768,1.6978,1.6978,1.6978,1.6978,1.6978,1.6978,1.6978,1.6978,1.6978,1.6822,1.6707,1.6632,1.6632,1.6592,1.6524,1.6524,1.6558,1.6625,1.6558,1.6605,1.6734,1.6659,1.6673,1.6748,1.6829,1.6863,1.6863,1.6863,1.691,1.6958,1.6802,1.6842,1.6978,1.6978,1.6978,1.6978,1.6978,1.7026,1.7066,1.6998,1.708,1.7175,1.71,1.7134,1.7222,1.7372,1.7412,1.7433,1.7514,1.7589,1.767,1.7738,1.7758,1.7772,1.7846,2.0177,2.1665,2.0357,2.1254,2.3178,2.6077,2.6627,2.8328,3.285,3.4867,3.5952,3.6246,3.6687,3.6941,3.6914,3.7235,3.7342,3.7155,3.7301,3.7342,3.7168,3.6874,3.6727,3.6727,3.6286,3.6072,3.6072,3.6219,3.6433,3.6727,3.6727,3.6794,3.6941,3.6794,3.658,3.6273,3.5979,3.5685,3.5404,3.5257,3.5471,3.5859,3.5859,3.5952,3.6032,1.6229,1.6656,1.6978,1.6978,1.6978,1.6978,1.6978,1.2616,0.9016,0.8593,0.5947,0.5313,0.817,1.1451,1.4417,1.6768,1.6978,1.6978,1.6978,1.6978,1.6978,1.6978,1.6978,1.6978,1.6978,1.6978,1.6917,1.6788,1.6788,1.672,1.6598,1.6598,1.6666,1.6781,1.6659,1.6741,1.6971,1.6842,1.6863,1.6978,1.6978,1.6978,1.6978,1.6978,1.6978,1.6978,1.6978,1.6978,1.6978,1.6978,1.6978,1.6985,1.7012,1.71,1.7175,1.708,1.7229,1.7392,1.7263,1.7324,1.746,1.7609,1.765,1.765,1.7684,1.7684,1.7717,1.788,1.7901,1.7901,1.7901,1.9883,2.0757,1.8302,1.9978,2.2742,2.6156,2.6881,2.9229,3.5108,3.6046,3.6313,3.654,3.6834,3.7088,3.7301,3.7128,3.7088,3.7301,3.7088,3.6941,3.6941,3.6647,3.65,3.65,3.6219,3.6099,3.6153,3.6393,3.662,3.6861,3.6861,3.6861,3.6861,3.662,3.6313,3.5979,3.5725,3.5458,3.5191,3.5191,3.5378,3.5631,3.5631,3.5778,3.5952,1.3248,1.5271,1.6978,1.6978,1.6978,1.6978,1.6978,1.4207,1.1235,0.8805,0.5947,0.5313,0.817,1.3253,1.6551,1.6978,1.6978,1.6978,1.6978,1.6978,1.6978,1.6978,1.6978,1.6978,1.6978,1.6978,1.6971,1.6951,1.6951,1.6937,1.6917,1.6917,1.6931,1.6951,1.6931,1.6944,1.6978,1.6958,1.6965,1.6978,1.6978,1.6978,1.6978,1.6978,1.6978,1.6978,1.6978,1.6978,1.6978,1.6978,1.6978,1.7005,1.7127,1.7175,1.7216,1.7324,1.7392,1.7412,1.7399,1.7405,1.746,1.7609,1.765,1.7684,1.7812,1.7826,1.788,1.8023,1.8057,1.8057,1.8057,1.8509,1.8608,1.8011,1.8419,2.0759,2.6196,2.7124,2.9437,3.5685,3.6647,3.6834,3.6861,3.7155,3.7235,3.7008,3.7195,3.7235,3.7008,3.6967,3.6941,3.6941,3.6647,3.65,3.65,3.6219,3.6206,3.6433,3.6473,3.654,3.658,3.658,3.658,3.658,3.6513,3.6193,3.5685,3.5645,3.5458,3.5191,3.5191,3.5378,3.5631,3.5631,3.5658,3.5645,1.24,1.3675,1.506,1.6768,1.6978,1.6978,1.6978,1.4528,1.1662,0.8911,0.5947,0.5313,0.817,1.3575,1.6978,1.6978,1.6978,1.6978,1.6978,1.6978,1.6978,1.6978,1.706,1.71,1.71,1.7182,1.7229,1.7229,1.706,1.7019,1.71,1.7019,1.6978,1.6978,1.6978,1.6978,1.6978,1.6978,1.6978,1.6978,1.6978,1.6978,1.6978,1.6978,1.6978,1.6992,1.7073,1.71,1.7114,1.7195,1.7229,1.7236,1.7297,1.7378,1.7446,1.7426,1.7534,1.765,1.7568,1.7609,1.7684,1.7758,1.7772,1.7792,1.7846,1.786,1.7901,1.8057,1.8091,1.8111,1.8199,1.8267,1.8267,1.8145,1.8233,1.9749,2.3967,2.6237,2.9699,3.5929,3.6861,3.6941,3.6941,3.7048,3.7088,3.6941,3.7048,3.7088,3.6941,3.6941,3.6941,3.6941,3.6834,3.6754,3.6754,3.662,3.662,3.6754,3.658,3.658,3.6754,3.658,3.65,3.6473,3.6153,3.5872,3.5618,3.5458,3.5311,3.5191,3.5191,3.5271,3.5391,3.5391,3.5391,3.5364]}]]